[[{"header":{"parameterUnit":"m.s-1","parameterCategory":1,"la1":30.6,"la2":28.766,"lo1":-90.7593,"lo2":-88.6598,"dy":0.0162,"dx":0.0183,"nx":116,"ny":114,"refTime":"2024-05-27T12:00:00:Z","depth":0,"parameterNumber":2,"parameterNumberName":"U-component_of_WINDS"},"data":[0.0,0.0,0.0,0.0,0.0,0.0,0.0,0.0,0.0,0.0,0.0,0.0,0.0,0.0,0.0,0.0,0.0,0.0,0.0,0.0,0.0,0.0,0.0,0.0,0.0,0.0,0.0,0.0,0.0,0.0,0.0,0.0,0.0,0.0,0.0,0.0,0.0,0.0,0.0,0.0,0.0,0.0,0.0,0.0,0.0,0.0,0.0,0.0,0.0,0.0,0.0,0.0,0.0,0.0,0.0,0.0,0.0,0.0,0.0,0.0,0.0,0.0,0.0,0.0,0.0,0.0,0.0,0.0,0.0,0.0,0.0,0.0,0.0,0.0,0.0,0.0,0.0,0.0,0.0,0.0,0.0,0.0,0.0,0.0,0.0,0.0,0.0,0.0,0.0,0.0,0.0,0.0,0.0,0.0,0.0,0.0,0.0,0.0,0.0,0.0,0.0,0.0,0.0,0.0,0.0,0.0,0.0,0.0,0.0,0.0,0.0,0.0,0.0,0.0,0.0,0.0,0.0,0.0,0.0,0.0,0.0,0.0,0.0,0.0,0.0,0.0,0.0,0.0,0.0,0.0,0.0,0.0,0.0,0.0,0.0,0.0,0.0,0.0,0.0,0.0,0.0,0.0,0.0,0.0,0.0,0.0,0.0,0.0,0.0,0.0,0.0,0.0,0.0,0.0,0.0,0.0,0.0,0.0,0.0,0.0,0.0,0.0,0.0,0.0,0.0,0.0,0.0,0.0,0.0,0.0,0.0,0.0,0.0,0.0,0.0,0.0,0.0,0.0,0.0,0.0,0.0,0.0,0.0,0.0,0.0,0.0,0.0,0.0,0.0,0.0,0.0,0.0,0.0,0.0,0.0,0.0,0.0,0.0,0.0,0.0,0.0,0.0,0.0,0.0,0.0,0.0,0.0,0.0,0.0,0.0,0.0,0.0,0.0,0.0,0.0,0.0,0.0,0.0,0.0,0.0,0.0,0.0,0.0,0.0,0.0,0.0,0.0,0.0,0.0,0.0,0.0,0.0,0.0,0.0,0.0,0.0,0.0,0.0,0.0,0.0,0.0,0.0,0.0,0.0,0.0,0.0,0.0,0.0,0.0,0.0,0.0,0.0,0.0,0.0,0.0,0.0,0.0,0.0,0.0,0.0,0.0,0.0,0.0,0.0,0.0,0.0,0.0,0.0,0.0,0.0,0.0,0.0,0.0,0.0,0.0,0.0,0.0,0.0,0.0,0.0,0.0,0.0,0.0,0.0,0.0,0.0,0.0,0.0,0.0,0.0,0.0,0.0,0.0,0.0,0.0,0.0,0.0,0.0,0.0,0.0,0.0,0.0,0.0,0.0,0.0,0.0,0.0,0.0,0.0,0.0,0.0,0.0,0.0,0.0,0.0,0.0,0.0,0.0,0.0,0.0,0.0,0.0,0.0,0.0,0.0,0.0,0.0,0.0,0.0,0.0,0.0,0.0,0.0,0.0,0.0,0.0,0.0,0.0,0.0,0.0,0.0,0.0,0.0,0.0,0.0,0.0,0.0,0.0,0.0,0.0,0.0,0.0,0.0,0.0,0.0,0.0,0.0,0.0,0.0,0.0,0.0,0.0,0.0,0.0,0.0,0.0,0.0,0.0,0.0,0.0,0.0,0.0,0.0,0.0,0.0,0.0,0.0,0.0,0.0,0.0,0.0,0.0,0.0,0.0,0.0,0.0,0.0,0.0,0.0,0.0,0.0,0.0,0.0,0.0,0.0,0.0,0.0,0.0,0.0,0.0,0.0,0.0,0.0,0.0,0.0,0.0,0.0,0.0,0.0,0.0,0.0,0.0,0.0,0.0,0.0,0.0,0.0,0.0,0.0,0.0,0.0,0.0,0.0,0.0,0.0,0.0,0.0,0.0,0.0,0.0,0.0,0.0,0.0,0.0,0.0,0.0,0.0,0.0,0.0,0.0,0.0,0.0,0.0,0.0,0.0,0.0,0.0,0.0,0.0,0.0,0.0,0.0,0.0,0.0,0.0,0.0,0.0,0.0,0.0,0.0,0.0,0.0,0.0,0.0,0.0,0.0,0.0,0.0,0.0,0.0,0.0,0.0,0.0,0.0,0.0,0.0,0.0,0.0,0.0,0.0,0.0,0.0,0.0,0.0,0.0,0.0,0.0,0.0,0.0,0.0,0.0,0.0,0.0,0.0,0.0,0.0,0.0,0.0,0.0,0.0,0.0,0.0,0.0,0.0,0.0,0.0,0.0,0.0,0.0,0.0,0.0,0.0,0.0,0.0,0.0,0.0,0.0,0.0,0.0,0.0,0.0,0.0,0.0,0.0,0.0,0.0,0.0,0.0,0.0,0.0,0.0,0.0,0.0,0.0,0.0,0.0,0.0,0.0,0.0,0.0,0.0,0.0,0.0,0.0,0.0,0.0,0.0,0.0,0.0,0.0,0.0,0.0,0.0,0.0,0.0,0.0,0.0,0.0,0.0,0.0,0.0,0.0,0.0,0.0,0.0,0.0,0.0,0.0,0.0,0.0,0.0,0.0,0.0,0.0,0.0,0.0,0.0,0.0,0.0,0.0,0.0,0.0,0.0,0.0,0.0,0.0,0.0,0.0,0.0,0.0,0.0,0.0,0.0,0.0,0.0,0.0,0.0,0.0,0.0,0.0,0.0,0.0,0.0,0.0,0.0,0.0,0.0,0.0,0.0,0.0,0.0,0.0,0.0,0.0,0.0,0.0,0.0,0.0,0.0,0.0,0.0,0.0,0.0,0.0,0.0,0.0,0.0,0.0,0.0,0.0,0.0,0.0,0.0,0.0,0.0,0.0,0.0,0.0,0.0,0.0,0.0,0.0,0.0,0.0,0.0,0.0,0.0,0.0,0.0,0.0,0.0,0.0,0.0,0.0,0.0,0.0,0.0,0.0,0.0,0.0,0.0,0.0,0.0,0.0,0.0,0.0,0.0,0.0,0.0,0.0,0.0,0.0,0.0,0.0,0.0,0.0,0.0,0.0,0.0,0.0,0.0,0.0,0.0,0.0,0.0,0.0,0.0,0.0,0.0,0.0,0.0,0.0,0.0,0.0,0.0,0.0,0.0,0.0,0.0,0.0,0.0,0.0,0.0,0.0,0.0,0.0,0.0,0.0,0.0,0.0,0.0,0.0,0.0,0.0,0.0,0.0,0.0,0.0,0.0,0.0,0.0,0.0,0.0,0.0,0.0,0.0,0.0,0.0,0.0,0.0,0.0,0.0,0.0,0.0,0.0,0.0,0.0,0.0,0.0,0.0,0.0,0.0,0.0,0.0,0.0,0.0,0.0,0.0,0.0,0.0,0.0,0.0,0.0,0.0,0.0,0.0,0.0,0.0,0.0,0.0,0.0,0.0,0.0,0.0,0.0,0.0,0.0,0.0,0.0,0.0,0.0,0.0,0.0,0.0,0.0,0.0,0.0,0.0,0.0,0.0,0.0,0.0,0.0,0.0,0.0,0.0,0.0,0.0,0.0,0.0,0.0,0.0,0.0,0.0,0.0,0.0,0.0,0.0,0.0,0.0,0.0,0.0,0.0,0.0,0.0,0.0,0.0,0.0,0.0,0.0,0.0,0.0,0.0,0.0,0.0,0.0,0.0,0.0,0.0,0.0,0.0,0.0,0.0,0.0,0.0,0.0,0.0,0.0,0.0,0.0,0.0,0.0,0.0,0.0,0.0,0.0,0.0,0.0,0.0,0.0,0.0,0.0,0.0,0.0,0.0,0.0,0.0,0.0,0.0,0.0,0.0,0.0,0.0,0.0,0.0,0.0,0.0,0.0,0.0,0.0,0.0,0.0,0.0,0.0,0.0,0.0,0.0,0.0,0.0,0.0,0.0,0.0,0.0,0.0,0.0,0.0,0.0,0.0,0.0,0.0,0.0,0.0,0.0,0.0,0.0,0.0,0.0,0.0,0.0,0.0,0.0,0.0,0.0,0.0,0.0,0.0,0.0,0.0,0.0,0.0,0.0,0.0,0.0,0.0,0.0,0.0,0.0,0.0,0.0,0.0,0.0,0.0,0.0,0.0,0.0,0.0,0.0,0.0,0.0,0.0,0.0,0.0,0.0,0.0,0.0,0.0,0.0,0.0,0.0,0.0,0.0,0.0,0.0,0.0,0.0,0.0,0.0,0.0,0.0,0.0,0.0,0.0,0.0,0.0,0.0,0.0,0.0,0.0,0.0,0.0,0.0,0.0,0.0,0.0,0.0,0.0,0.0,0.0,0.0,0.0,0.0,0.0,0.0,0.0,0.0,0.0,0.0,0.0,0.0,0.0,0.0,0.0,0.0,0.0,0.0,0.0,0.0,0.0,0.0,0.0,0.0,0.0,0.0,0.0,0.0,0.0,0.0,0.0,0.0,0.0,0.0,0.0,0.0,0.0,0.0,0.0,0.0,0.0,0.0,0.0,0.0,0.0,0.0,0.0,0.0,0.0,0.0,0.0,0.0,0.0,0.0,0.0,0.0,0.0,0.0,0.0,0.0,0.0,0.0,0.0,0.0,0.0,0.0,0.0,0.0,0.0,0.0,0.0,0.0,0.0,0.0,0.0,0.0,0.0,0.0,0.0,0.0,0.0,0.0,0.0,0.0,0.0,0.0,0.0,0.0,0.0,0.0,0.0,0.0,0.0,0.0,0.0,0.0,0.0,0.0,0.0,0.0,0.0,0.0,0.0,0.0,0.0,0.0,0.0,0.0,0.0,0.0,0.0,0.0,0.0,0.0,0.0,0.0,0.0,0.0,0.0,0.0,0.0,0.0,0.0,0.0,0.0,0.0,0.0,0.0,0.0,0.0,0.0,0.0,0.0,0.0,0.0,0.0,0.0,0.0,0.0,0.0,0.0,0.0,0.0,0.0,0.0,0.0,0.0,0.0,0.0,0.0,0.0,0.0,0.0,0.0,0.0,0.0,0.0,0.0,0.0,0.0,0.0,0.0,0.0,0.0,0.0,0.0,0.0,0.0,0.0,0.0,0.0,0.0,0.0,0.0,0.0,0.0,0.0,0.0,0.0,0.0,0.0,0.0,0.0,0.0,0.0,0.0,0.0,0.0,0.0,0.0,0.0,0.0,0.0,0.0,0.0,0.0,0.0,0.0,0.0,0.0,0.0,0.0,0.0,0.0,0.0,0.0,0.0,0.0,0.0,0.0,0.0,0.0,0.0,0.0,0.0,0.0,0.0,0.0,0.0,0.0,0.0,0.0,0.0,0.0,0.0,0.0,0.0,0.0,0.0,0.0,0.0,0.0,0.0,0.0,0.0,0.0,0.0,0.0,0.0,0.0,0.0,0.0,0.0,0.0,0.0,0.0,0.0,0.0,0.0,0.0,0.0,0.0,0.0,0.0,0.0,0.0,0.0,0.0,0.0,0.0,0.0,0.0,0.0,0.0,0.0,0.0,0.0,0.0,0.0,0.0,0.0,0.0,0.0,0.0,0.0,0.0,0.0,0.0,0.0,0.0,0.0,0.0,0.0,0.0,0.0,0.0,0.0,0.0,0.0,0.0,0.0,0.0,0.0,0.0,0.0,0.0,0.0,0.0,0.0,0.0,0.0,0.0,0.0,0.0,0.0,0.0,0.0,0.0,0.0,0.0,0.0,0.0,0.0,0.0,0.0,0.0,0.0,0.0,0.0,0.0,0.0,0.0,0.0,0.0,0.0,0.0,0.0,0.0,0.0,0.0,0.0,0.0,0.0,0.0,0.0,0.0,0.0,0.0,0.0,0.0,0.0,0.0,0.0,0.0,0.0,0.0,0.0,0.0,0.0,0.0,0.0,0.0,0.0,0.0,0.0,0.0,0.0,0.0,0.0,0.0,0.0,0.0,0.0,0.0,0.0,0.0,0.0,0.0,0.0,0.0,0.0,0.0,0.0,0.0,0.0,0.0,0.0,0.0,0.0,0.0,0.0,0.0,0.0,0.0,0.0,0.0,0.0,0.0,0.0,0.0,0.0,0.0,0.0,0.0,0.0,0.0,0.0,0.0,0.0,0.0,0.0,0.0,0.0,0.0,0.0,0.0,0.0,0.0,0.0,0.0,0.0,0.0,0.0,0.0,0.0,0.0,0.0,0.0,0.0,0.0,0.0,0.0,0.0,1.145,1.1374,0.0,0.0,0.0,0.0,0.0,0.0,0.0,0.0,0.0,0.0,0.0,0.0,0.0,0.0,0.0,0.0,0.0,0.0,0.0,0.0,0.0,0.0,0.0,0.4114,0.4312,0.4382,0.4646,0.4812,0.4864,0.0,0.0,0.0,0.0,0.0,0.463,0.4578,0.4684,0.497,0.506,0.5339,0.5732,0.6008,0.5784,0.514,0.0,0.0,0.0,0.0,0.0,0.0,0.0,0.0,0.0,0.0,0.0,0.0,0.0,0.0,0.0,0.0,0.0,0.0,0.0,0.0,0.0,0.0,0.0,0.0,0.0,0.0,0.0,0.0,0.0,0.0,0.0,0.0,0.0,0.0,0.0,0.0,0.0,0.0,0.0,0.0,0.0,0.0,0.0,0.0,0.0,0.0,0.0,0.0,0.0,0.0,0.0,0.0,0.0,0.0,0.0,0.0,0.0,0.0,0.0,0.0,0.0,0.0,0.0,0.0,0.0,0.0,0.0,0.0,0.0,0.0,1.1713,1.1692,0.0,0.0,0.0,0.0,0.0,0.0,0.0,0.0,0.0,0.0,0.0,0.0,0.0,0.0,0.0,0.0,0.0,0.0,0.0,0.0,0.0,0.3346,0.3892,0.413,0.4285,0.4388,0.4619,0.471,0.4678,0.471,0.0,0.0,0.0,0.4806,0.4922,0.4985,0.5216,0.5664,0.5896,0.6194,0.6527,0.657,0.6185,0.5486,0.5516,0.0,0.0,0.0,0.0,0.0,0.0,0.0,0.0,0.0,0.0,0.0,0.0,0.0,0.0,0.0,0.0,0.0,0.0,0.0,0.0,0.0,0.0,0.0,0.0,0.0,0.0,0.0,0.0,0.0,0.0,0.0,0.0,0.0,0.0,0.0,0.0,0.0,0.0,0.0,0.0,0.0,0.0,0.0,0.0,0.0,0.0,0.0,0.0,0.0,0.0,0.0,0.0,0.0,0.0,0.0,0.0,0.0,0.0,0.0,0.0,0.0,0.0,0.0,1.1649,1.1919,1.2032,1.2404,1.2635,1.2726,1.2079,1.1956,1.216,1.1253,0.0,0.0,0.0,0.0,0.0,0.0,0.0,0.0,0.0,0.0,0.0,0.0,0.0,0.0,0.0,0.0,0.0,0.0,0.0,0.3394,0.3715,0.3877,0.3956,0.3988,0.4253,0.4388,0.4194,0.4426,0.0,0.0,0.4619,0.4678,0.4992,0.5042,0.5339,0.5875,0.6279,0.6543,0.6586,0.6586,0.6456,0.6171,0.6414,0.6314,0.592,0.0,0.0,0.0,0.0,0.0,0.0,0.0,0.0,0.0,0.0,0.0,0.0,0.0,0.0,0.0,0.0,0.0,0.0,0.0,0.0,0.0,0.0,0.0,0.0,0.0,0.0,0.0,0.0,0.0,0.0,0.0,0.0,0.0,0.0,0.0,0.0,0.0,0.0,0.0,0.0,0.0,0.8839,0.9056,0.0,0.0,0.0,0.0,0.0,0.0,0.0,0.0,0.0,0.0,0.0,0.0,0.0,1.0146,1.0695,1.1207,1.1464,1.1554,1.2026,1.2445,1.2858,1.2806,1.3003,1.3437,1.2773,0.0,1.1461,1.1648,0.0,0.0,0.0,0.0,0.0,0.0,0.0,0.0,0.0,0.0,0.0,0.0,0.0,0.0,0.0,0.0,0.0,0.0,0.0,0.0,0.0,0.4372,0.4582,0.4616,0.5021,0.5114,0.479,0.4885,0.4892,0.4818,0.4742,0.4826,0.5049,0.5431,0.6081,0.7074,0.7759,0.7896,0.7593,0.7736,0.7584,0.7271,0.7489,0.7097,0.6242,0.6019,0.0,0.0,0.0,0.0,0.0,0.0,0.0,0.0,0.0,0.0,0.0,0.0,0.0,0.0,0.0,0.0,0.0,0.0,0.0,0.0,0.0,0.0,0.0,0.0,0.0,0.0,0.0,0.0,0.0,0.0,0.0,0.0,0.0,0.0,0.0,0.0,0.0,0.0,0.0,0.8696,0.9097,0.895,0.9457,0.9526,0.0,0.0,0.0,0.0,0.0,0.0,0.0,0.0,0.0,1.0342,1.0517,1.0986,1.1725,1.2163,1.2648,1.3187,1.363,1.3828,1.3784,1.3994,1.3906,1.3595,1.3284,1.2498,1.1397,1.1406,1.1092,1.061,0.0,0.0,0.0,0.0,1.1124,1.1087,0.0,0.0,0.0,0.0,0.0,0.0,0.0,0.0,0.0,0.0,0.0,0.0,0.4574,0.4842,0.5086,0.5263,0.5528,0.5583,0.5369,0.5233,0.5104,0.4981,0.4933,0.5106,0.5492,0.6319,0.7276,0.8387,0.9053,0.9245,0.8939,0.9107,0.8868,0.8349,0.85,0.7859,0.6673,0.649,0.6158,0.0,0.0,0.0,0.0,0.0,0.0,0.0,0.0,0.0,0.0,0.0,0.0,0.0,0.0,0.0,0.0,0.0,0.0,0.0,0.0,0.0,0.0,0.0,0.0,0.0,0.0,0.0,0.0,0.0,0.0,0.0,0.0,0.0,0.0,0.0,0.0,0.0,0.0,0.9082,0.9254,0.8883,0.9563,0.977,0.0,0.0,0.0,0.0,0.0,0.0,1.0205,1.0527,1.0837,1.1188,1.1508,1.2079,1.2914,1.3343,1.3883,1.4589,1.4789,1.4789,1.4558,1.4686,1.4362,1.38,1.3389,1.2589,1.1592,1.1233,1.101,1.0842,1.0553,1.0636,1.0954,1.144,1.1468,1.1449,0.0,0.0,0.0,0.0,0.0,0.0,0.0,0.0,0.0,0.0,0.0,0.4593,0.5094,0.4946,0.4979,0.5436,0.5282,0.5246,0.0,0.507,0.4999,0.5452,0.5098,0.5449,0.6589,0.7953,0.8914,0.9412,0.9766,1.0116,1.0392,1.0409,1.0004,0.9213,0.9236,0.8572,0.7426,0.715,0.6807,0.6362,0.0,0.0,0.0,0.0,0.0,0.0,0.0,0.0,0.0,0.0,0.0,0.0,0.0,0.0,0.0,0.0,0.0,0.0,0.0,0.0,0.0,0.0,0.0,0.0,0.0,0.0,0.0,0.0,0.0,0.0,0.0,0.0,0.0,0.0,0.0,0.0,0.0,0.0,0.0,0.9257,0.9529,0.0,0.0,0.0,0.0,1.0118,1.0363,1.0625,1.0818,1.1387,1.1972,1.2504,1.314,1.3752,1.4297,1.4778,1.5017,1.5073,1.464,1.4651,1.5017,1.4082,1.3952,1.428,1.2725,1.2039,1.1944,1.1524,1.1031,1.0553,1.0934,1.1198,1.147,1.1567,1.1601,1.1624,0.0,0.0,0.0,0.0,0.0,0.3018,0.3541,0.3968,0.4321,0.4624,0.5025,0.5453,0.58,0.6187,0.6463,0.666,0.6817,0.6831,0.6657,0.6276,0.6236,0.6717,0.6376,0.6891,0.8394,0.9308,1.0115,1.0766,1.1165,1.118,1.0883,1.1104,1.0853,1.0262,1.0067,0.9632,0.8892,0.7823,0.7141,0.6711,0.6326,0.6004,0.0,0.0,0.0,0.0,0.0,0.0,0.0,0.0,0.0,0.0,0.0,0.0,0.0,0.0,0.0,0.0,0.0,0.0,0.0,0.0,0.0,0.0,0.0,0.0,0.0,0.0,0.0,0.0,0.0,0.0,0.0,0.0,0.0,0.0,0.0,0.0,0.0,0.956,1.0007,0.0,0.9961,1.0297,1.0494,1.0532,1.1022,1.1562,1.211,1.232,1.2825,1.3744,1.3986,1.449,1.5311,1.549,1.5534,1.5534,1.54,1.5085,1.4686,1.4362,1.4186,1.4104,1.317,1.2774,1.2716,1.2272,1.1553,1.0768,1.1107,1.1396,1.1645,1.1636,1.1779,1.1921,0.0,0.0,0.0,0.0,0.2864,0.3375,0.3931,0.4358,0.4722,0.5099,0.5645,0.6189,0.6552,0.7162,0.7589,0.7623,0.7839,0.7895,0.7732,0.731,0.7248,0.7642,0.8035,0.8757,0.9895,1.0923,1.1787,1.2482,1.2732,1.2578,1.2098,1.2292,1.1969,1.1248,1.1048,1.0614,0.9844,0.8761,0.7868,0.7264,0.7021,0.67,0.6303,0.0,0.0,0.0,0.0,0.0,0.0,0.0,0.0,0.0,0.0,0.0,0.0,0.0,0.0,0.0,0.0,0.0,0.0,0.0,0.0,0.0,0.0,0.0,0.0,0.0,0.0,0.0,0.0,0.0,0.0,0.0,0.0,0.0,0.0,0.0,1.0128,0.9918,1.0384,1.0697,1.0525,1.1012,1.137,1.1474,1.1836,1.2339,1.2948,1.3208,1.3684,1.4408,1.4731,1.513,1.5611,1.5744,1.57,1.5579,1.5433,1.5085,1.4501,1.4362,1.4197,1.3962,1.3409,1.3218,1.317,1.2716,1.2129,1.1551,1.1751,1.195,1.2206,1.2206,1.2304,1.2452,0.0,0.0,0.0,0.2699,0.3289,0.3908,0.4434,0.4698,0.5062,0.5718,0.6239,0.6734,0.7296,0.785,0.8218,0.8325,0.8244,0.8273,0.8496,0.8073,0.794,0.8265,0.9896,1.0878,1.1012,1.28,1.394,1.4405,1.4405,1.4294,1.4014,1.4025,1.3362,1.2175,1.2126,1.1401,1.0246,0.9966,0.9156,0.8051,0.7615,0.7488,0.7504,0.0,0.0,0.0,0.0,0.0,0.0,0.0,0.0,0.0,0.0,0.0,0.0,0.0,0.0,0.0,0.0,0.0,0.0,0.0,0.0,0.0,0.0,0.0,0.0,0.0,0.0,0.0,0.0,0.0,0.0,0.0,0.0,0.0,1.0034,1.0423,1.0613,1.0288,1.0668,1.118,1.1874,1.1847,1.2107,1.2919,1.2909,1.3016,1.3409,1.4035,1.4408,1.4503,1.5332,1.5611,1.5311,1.5611,1.5534,1.5062,1.4686,1.4501,1.4455,1.415,1.402,1.3973,1.3467,1.3266,1.3218,1.2967,1.2861,1.2861,1.2812,1.2957,1.3218,1.3218,1.3218,1.3218,0.0,0.0,0.2616,0.3112,0.3733,0.4388,0.5195,0.5459,0.5734,0.6122,0.6794,0.7507,0.8241,0.8955,0.9413,0.9394,0.94,0.9304,0.911,0.8445,0.8645,0.9888,1.0968,1.2069,1.3259,1.3887,1.4428,1.4901,1.4901,1.4778,1.4525,1.4154,1.3695,1.3142,1.2412,1.1918,1.1551,1.0923,1.0466,1.0024,0.8514,0.7721,0.7417,0.0,0.0,0.0,0.0,0.0,0.0,0.0,0.0,0.0,0.0,0.0,0.0,0.0,0.0,0.0,0.0,0.0,0.0,0.0,0.0,0.0,0.0,0.0,0.0,0.0,0.0,0.0,0.0,0.0,0.0,0.0,0.0,1.1003,1.0562,1.0845,1.121,1.1314,1.1492,1.1787,1.2329,1.2918,1.318,1.3016,1.342,1.3668,1.3668,1.3858,1.414,1.449,1.472,1.504,1.5457,1.5445,1.5209,1.4812,1.4709,1.4536,1.4269,1.4186,1.4186,1.4291,1.414,1.4082,1.4035,1.3988,1.3941,1.3884,1.3304,1.316,1.3218,1.3218,1.3218,1.3266,0.0,0.2535,0.3112,0.3821,0.4369,0.4942,0.5636,0.5859,0.6106,0.6565,0.7324,0.8131,0.8973,0.9466,0.9762,0.9781,0.9791,0.9573,0.9038,0.9252,0.9989,1.13,1.2502,1.3584,1.4518,1.501,1.5413,1.568,1.568,1.549,1.505,1.4617,1.4118,1.3647,1.2852,1.2382,1.2076,1.1651,1.1283,1.0881,0.9699,0.8907,0.8345,0.7896,0.759,0.7301,0.7012,0.6855,0.674,0.6722,0.0,0.0,0.0,0.0,0.0,0.0,0.0,0.0,0.0,0.0,0.0,0.0,0.0,0.0,0.0,0.0,0.0,0.0,0.0,0.0,0.0,0.0,0.0,0.0,1.1185,1.1667,1.1538,1.1724,1.2008,1.2365,1.2365,1.256,1.2967,1.342,1.3658,1.3494,1.381,1.401,1.3952,1.4082,1.4305,1.4686,1.4823,1.5051,1.5232,1.513,1.4846,1.4408,1.4433,1.4398,1.4222,1.4269,1.4326,1.4373,1.4373,1.4373,1.4373,1.4373,1.4373,1.4326,0.0,0.0,0.0,0.0,1.3695,1.3742,0.0,0.3288,0.3888,0.4633,0.5107,0.5491,0.5944,0.6106,0.6413,0.7089,0.7812,0.8604,0.9496,0.958,0.962,0.9848,0.9764,0.9437,0.0,0.0,1.1578,1.2519,1.4105,1.5031,1.5175,1.6046,1.6522,1.6522,1.6522,1.6238,1.5676,1.5209,1.4617,1.3956,1.3478,1.291,1.2363,1.2363,1.199,1.1358,1.1183,1.0576,0.9784,0.8795,0.8427,0.8326,0.7656,0.7375,0.7215,0.6922,0.0,0.0,0.0,0.0,0.0,0.0,0.0,0.0,0.0,0.0,0.0,0.0,0.0,0.0,0.0,0.0,0.0,0.0,0.0,0.0,0.0,0.0,0.0,0.0,1.1664,1.2308,1.2764,1.2822,1.291,1.3218,1.3266,1.3362,1.3658,1.3668,1.3847,1.4176,1.4104,1.4057,1.4176,1.4479,0.0,0.0,0.0,1.5187,1.4858,1.4709,1.4444,1.4067,1.4186,1.4222,1.4222,1.4419,1.4466,1.4373,1.4466,1.4477,1.4373,1.4466,1.4512,1.4558,1.4419,1.4373,1.4373,1.4373,1.4373,1.4466,0.0,0.3553,0.4262,0.5054,0.5463,0.5959,0.6678,0.7077,0.7373,0.7647,0.8259,0.8932,0.9608,0.9765,0.9934,1.0259,1.0159,1.0011,0.0,0.0,1.2118,1.3319,1.4401,1.538,1.6175,1.6416,1.6522,1.6522,1.6522,1.6423,1.625,1.5688,1.532,1.5062,1.4514,1.4143,1.4039,1.3909,1.3768,1.3606,1.3032,1.1868,1.0407,1.0089,0.9845,0.9599,0.8992,0.8601,0.8222,0.782,0.7013,0.6337,0.6855,0.0,0.0,0.0,0.0,0.0,0.0,0.0,0.0,0.0,0.0,0.0,0.0,0.0,0.0,0.0,0.0,0.0,0.0,0.0,0.0,1.171,1.2469,1.3117,1.3515,1.3583,1.3631,1.3668,1.3668,1.381,1.4035,1.4186,1.4233,1.4222,1.4176,1.4176,1.4222,1.4269,1.4316,1.4305,1.4408,1.4455,1.4512,1.4362,1.4316,1.4337,1.4326,0.0,1.4373,1.4789,1.4743,1.4419,1.4789,1.4743,1.4419,1.4789,1.5187,1.5433,1.4686,1.4373,1.4373,1.4373,1.4373,1.4466,0.4014,0.4344,0.4776,0.5517,0.5854,0.6191,0.6794,0.7175,0.752,0.7811,0.8334,0.8947,0.9581,0.9376,0.9327,0.9613,0.9512,0.0,0.0,1.1755,1.3031,1.4085,1.5411,1.6346,1.685,1.6863,1.6863,1.6863,1.6607,1.6479,1.6436,1.592,1.5644,1.5466,1.4926,1.4652,1.4606,1.4468,1.4376,1.4376,1.3935,1.3205,1.2288,1.129,1.0639,1.026,0.9919,0.9596,0.9217,0.8712,0.7929,0.7161,0.7121,0.6433,0.5711,0.0,0.0,0.0,0.0,0.0,0.0,0.0,0.0,0.0,0.0,0.0,0.0,0.0,0.0,1.0224,0.0,0.0,1.2148,1.2525,1.3125,1.3563,1.3763,1.4164,1.4361,1.4125,1.4307,1.4494,1.4638,1.4686,1.4843,1.4985,1.4779,1.4746,1.4985,1.4768,1.4638,1.4638,1.4638,1.4577,1.4373,1.4566,1.4566,1.4373,1.4651,1.4743,1.4789,1.5232,1.5311,1.513,1.5355,1.5311,1.513,1.5355,1.5579,1.5744,1.5266,1.513,1.5187,1.5187,1.5187,1.5277,0.4833,0.5022,0.5229,0.5945,0.6191,0.6445,0.6803,0.7205,0.7579,0.7956,0.8382,0.8872,0.9435,0.8893,0.8563,0.0,0.0,0.0,0.0,1.2576,1.3947,1.4711,1.6397,1.7282,1.7199,1.7199,1.7199,1.7199,1.6778,1.6522,1.6479,1.6151,1.592,1.5776,1.5344,1.513,1.5017,1.488,1.4835,1.4835,1.4709,1.4536,1.4247,1.2744,1.1818,1.1258,1.1007,1.0673,1.0237,0.9831,0.9041,0.816,0.7656,0.705,0.6464,0.6487,0.6748,0.0,0.0,0.0,0.0,0.0,0.0,0.0,0.0,0.0,0.9351,1.0031,1.0504,1.1057,1.2039,1.2546,1.2955,1.3263,1.3741,1.4053,1.4053,1.4747,1.5105,1.4712,1.5006,1.5247,1.5247,1.5247,1.5411,1.5753,1.5465,1.5421,1.5763,1.5554,1.5383,1.5383,1.553,1.5378,1.5023,1.5367,1.5367,1.5012,1.5383,1.5521,1.5428,1.5912,1.6017,1.5788,1.5788,1.5832,1.592,1.592,1.5964,1.6051,1.6095,1.6194,1.625,1.6076,1.6032,1.6076,0.0,0.4879,0.5349,0.6114,0.6474,0.6768,0.7107,0.7772,0.8298,0.8326,0.8595,0.8878,0.9122,0.8661,0.8469,0.8777,0.0,0.0,1.1263,1.3289,1.4573,1.4864,1.6718,1.7557,1.7199,1.7199,1.7199,1.7199,1.6833,1.662,1.6522,1.6577,1.6534,1.638,1.6306,1.6219,1.6207,1.6044,1.6001,1.6001,1.6163,1.58,1.5164,1.5016,1.4378,1.3569,1.3004,1.2234,1.1472,1.1345,1.0377,0.9136,0.8987,0.845,0.7703,0.7233,0.0,0.6806,0.7043,0.7681,0.8297,0.8435,0.8907,0.9473,0.0,0.0,1.0892,1.1447,1.2041,1.258,1.2984,1.3396,1.3663,1.3716,1.4398,1.4969,1.4969,1.5393,1.5687,1.5622,1.5665,1.5698,1.5698,1.5698,1.572,1.5774,1.5731,1.572,1.5785,1.6266,1.6531,1.6531,1.6988,1.7195,1.7135,1.7195,1.7195,1.7135,1.7231,1.7002,1.6522,1.7012,1.6695,1.5788,1.5788,1.6064,1.6423,1.6423,1.668,1.7073,1.717,1.7253,1.7214,1.6324,1.6051,1.6231,0.0,0.4897,0.5334,0.5703,0.6014,0.6421,0.6936,0.7452,0.7888,0.8233,0.8578,0.8773,0.8656,0.8404,0.8278,0.8326,0.0,0.0,1.1359,1.353,1.5006,1.5522,1.6995,1.7828,1.7948,1.7679,1.7557,1.7557,1.696,1.6675,1.662,1.6748,1.6863,1.6951,1.6951,1.7047,1.7214,1.7089,1.706,1.706,1.7076,1.6896,1.6587,1.6471,1.6071,1.541,1.4075,1.3036,0.0,0.0,1.1292,1.0188,0.9455,0.9097,0.8799,0.8421,0.8421,0.0,0.9415,0.9687,0.0,0.0,1.0545,1.124,1.1399,1.2101,1.2788,1.3052,1.3437,1.3862,1.4168,1.4887,1.5416,0.0,1.6256,1.6752,1.6752,1.7053,1.7213,1.6959,1.7424,1.7422,1.6577,1.6334,1.6403,1.6859,1.6669,1.6718,1.7251,1.7001,1.7139,1.7671,1.7532,1.744,1.7509,1.7763,1.7763,1.7496,1.7797,1.7793,1.7582,1.8045,1.8042,1.7574,1.7257,1.7441,1.783,1.7175,1.7238,1.7695,1.7494,1.7673,1.798,1.7652,1.7553,1.7661,0.0,0.4739,0.5151,0.5327,0.5655,0.6098,0.6734,0.7136,0.754,0.7976,0.8354,0.8495,0.8195,0.8205,0.8195,0.8163,0.9792,1.1027,0.0,1.3702,1.5278,1.5973,1.7232,1.8113,1.85,1.8187,1.7988,1.7988,1.7352,1.7044,1.7002,1.7144,1.7338,1.7476,1.7476,1.7612,1.7828,1.776,1.772,1.772,1.7693,1.7652,1.7517,1.7462,1.704,1.6355,1.4944,1.3748,0.0,0.0,1.1832,1.0903,0.9916,0.9739,0.9881,0.9681,0.993,1.0417,1.1028,0.0,0.0,1.1302,1.2139,1.2897,1.2672,1.3424,1.419,1.4283,1.4549,1.4892,1.5252,1.6016,1.6708,1.6958,1.7597,1.8102,1.8102,1.8425,1.8472,1.7971,1.857,1.8602,1.7612,1.7368,1.7554,1.8147,1.7836,1.7926,1.8596,1.8172,1.8168,1.8858,1.8578,1.8408,1.8435,1.8784,1.8784,1.8484,1.8798,1.8865,1.8759,1.8728,1.8812,1.8872,1.838,1.8354,1.8668,1.8044,1.7925,1.8192,1.8014,1.8289,1.8735,1.8879,1.894,1.8973,0.0,0.0,0.4762,0.5214,0.5631,0.6067,0.6535,0.7166,0.7588,0.7618,0.7898,0.8052,0.7831,0.8119,0.8382,0.8557,0.9942,1.1131,1.1949,1.4004,1.5447,1.5996,1.7398,1.8272,1.85,1.85,1.8461,1.8461,1.8108,1.7868,1.7747,1.7961,1.804,1.7988,1.7988,1.7988,1.7988,1.7828,1.7787,1.7841,1.8069,1.7962,1.7626,1.7868,1.7143,1.5977,1.5746,0.0,0.0,0.0,1.1903,1.1102,1.0531,1.0684,0.0,1.0971,1.1248,0.0,0.0,0.0,1.3,1.2553,1.3457,1.4365,1.419,1.4411,1.4744,1.4937,1.5241,1.5596,1.5971,1.6589,1.6992,1.6992,1.7894,1.8598,1.8598,1.9041,1.915,1.8559,1.8484,1.8597,0.0,1.9154,1.9294,1.9371,1.9359,1.9359,1.9371,1.9812,2.0105,2.0156,2.0633,2.0894,2.0881,2.0908,2.0908,2.0881,2.093,2.0638,2.01,1.8879,1.8534,1.8872,1.8455,1.8262,1.8288,1.8977,1.8901,1.8449,1.9154,1.9427,1.9521,1.9781,1.98,1.971,0.0,0.0,0.0,0.5214,0.5631,0.5974,0.6176,0.6768,0.7285,0.7559,0.7744,0.0,0.0,0.0,0.0,0.0,0.0,0.0,1.201,1.3502,1.4816,1.5811,1.6766,1.7654,1.8433,1.809,1.8115,1.8592,1.8187,1.7988,1.7948,1.8082,1.824,1.8383,1.85,1.8669,1.886,1.886,1.8936,1.9072,1.8988,1.8898,1.8817,1.8319,1.7461,1.6349,0.0,0.0,0.0,0.0,1.2197,0.0,1.0981,0.0,0.0,1.1489,1.2431,1.327,0.0,0.0,1.4286,1.4133,1.4834,1.5487,1.5287,1.582,1.6343,1.6269,1.6367,1.6527,1.6909,1.7769,1.8494,1.8758,1.9706,2.0443,2.0443,2.0529,2.0401,1.9874,2.0087,0.0,0.0,0.0,0.0,1.9619,1.9695,1.9798,2.0055,2.0003,2.0194,2.0858,2.061,2.066,2.0997,2.0997,2.0997,2.0997,2.0997,2.089,2.074,2.0292,2.0178,2.0263,1.9787,1.9748,2.0006,1.9482,1.9408,1.96,1.9503,1.9755,2.0072,1.9932,2.0307,2.082,0.0,0.0,0.0,0.0,0.0,0.0,0.0,0.0,0.0,0.0,0.0,0.0,0.0,0.0,0.0,0.0,0.0,0.0,0.0,0.0,1.4069,1.5506,1.5802,1.6615,1.7993,1.743,1.7455,1.8127,1.7852,1.7702,1.7702,1.8054,1.8394,1.8642,1.8985,1.9273,1.9581,1.9596,1.9581,1.95,1.9184,1.8921,1.8636,1.7772,1.681,0.0,0.0,0.0,0.0,0.0,0.0,0.0,0.0,0.0,0.0,1.2399,1.3382,1.4362,1.4641,1.5096,1.5511,1.5576,1.6145,1.6629,1.6459,1.6993,1.7434,1.7323,1.7406,1.7529,1.7774,1.8571,1.9374,1.9839,2.0703,2.1417,2.1623,2.152,2.124,2.0841,2.0961,2.0996,0.0,0.0,0.0,2.032,2.0359,2.0459,2.0723,2.051,2.066,2.1277,2.0858,2.0809,2.1131,2.1131,2.1131,2.1131,2.1131,2.1131,2.1082,2.0868,2.0846,2.0957,2.0468,2.0489,2.0748,2.0234,2.016,2.0295,2.0213,2.0421,2.0711,2.0351,2.0735,2.1313,0.0,0.0,0.0,0.0,0.0,0.0,0.0,0.0,0.0,0.0,0.0,0.0,0.0,0.0,0.0,0.0,0.0,0.0,0.0,0.0,0.0,1.493,1.4644,1.536,1.7272,1.6635,1.66,1.7315,1.7248,1.72,1.7229,1.7894,1.8396,1.8638,1.9301,1.9728,1.9939,1.9884,1.9585,1.9046,1.8673,1.7999,1.7163,1.6345,0.0,0.0,0.0,0.0,0.0,0.0,0.0,0.0,0.0,0.0,0.0,1.3597,1.4081,1.4674,1.5508,1.6133,1.6629,1.6873,1.7368,1.7707,1.7558,1.7814,1.8068,1.8028,1.8254,1.8464,0.0,0.0,1.9572,2.0161,2.0778,2.1436,2.21,2.1996,2.168,0.0,0.0,0.0,0.0,0.0,0.0,2.1465,2.1471,2.1423,2.1423,2.1423,2.1423,2.1423,2.1423,2.1423,2.1423,2.1423,2.1423,2.1423,2.1423,2.1375,2.1215,2.0698,2.0657,2.1006,2.0637,2.0455,2.0489,2.1158,2.1084,2.0636,2.1192,2.1423,2.1361,2.1006,2.1104,2.1361,0.0,0.0,0.0,0.0,0.0,0.0,0.0,0.0,0.0,0.0,0.0,0.0,0.0,0.0,0.0,0.0,0.0,0.0,0.0,0.0,0.0,0.0,0.0,1.4698,1.6174,1.5936,0.0,0.0,0.0,1.72,1.7064,1.734,1.7446,1.7446,1.7827,1.7934,1.7886,1.8051,1.792,1.7551,0.0,1.7098,1.674,0.0,0.0,0.0,0.0,0.0,0.0,0.0,0.0,0.0,0.0,0.0,1.3685,0.0,0.0,1.5764,1.6232,1.6744,1.7188,1.7476,1.808,1.8472,1.8121,1.8461,1.8793,1.845,1.8175,1.7944,0.0,0.0,0.0,1.9544,2.0511,0.0,2.21,2.2137,0.0,2.1974,0.0,2.1899,2.1945,2.1945,0.0,0.0,2.2123,2.1996,2.1996,2.1996,2.1996,2.1996,2.1996,2.1996,2.1996,2.1996,2.1902,2.1712,2.1712,2.1568,2.1313,2.1212,2.1178,2.1264,2.1164,2.1158,2.1172,2.1561,2.1615,2.1492,2.188,2.1996,2.1983,2.1888,2.1888,2.1996,0.0,0.0,0.0,0.0,0.0,0.0,0.0,0.0,0.0,0.0,0.0,0.0,0.0,0.0,0.0,0.0,0.0,0.0,0.0,0.0,0.0,0.0,0.0,1.3365,1.4735,1.4611,1.4848,0.0,0.0,0.0,0.0,1.5825,1.6004,1.6037,1.6502,1.6684,1.6731,0.0,0.0,0.0,0.0,0.0,0.0,0.0,0.0,0.0,0.0,0.0,0.0,0.0,0.0,1.3237,1.3693,1.415,1.4626,1.5148,0.0,1.6532,1.712,1.7585,1.808,1.8598,1.9014,1.9288,1.902,1.9192,1.9207,1.8366,1.8096,0.0,0.0,0.0,0.0,0.0,0.0,0.0,2.2381,2.2417,2.2417,0.0,2.2495,0.0,2.2799,2.2799,2.2934,0.0,2.2754,2.248,2.2618,2.248,2.2402,2.2402,2.2278,2.2184,2.2184,2.2184,2.2137,2.1996,2.1996,2.1983,2.1969,2.1841,2.1841,2.1969,2.1793,2.1746,2.1746,2.1902,2.1996,2.1996,2.2137,2.2184,2.2184,2.2184,2.2184,2.2231,0.0,0.0,0.0,0.0,0.0,0.0,0.0,0.0,0.0,0.0,0.7608,0.0,0.0,0.0,0.0,0.0,0.0,0.0,0.0,0.0,0.0,0.0,1.1518,1.1942,1.3208,0.0,0.0,0.0,0.0,0.0,0.0,0.0,0.0,0.0,0.0,0.0,0.0,0.0,0.0,0.0,0.0,0.0,0.0,0.0,0.0,0.0,0.0,0.0,0.0,0.0,1.3934,1.4277,1.4794,1.5199,1.5656,1.6157,1.6617,1.712,1.7973,1.8549,1.9058,1.9722,1.9969,2.0004,1.9934,1.9768,1.931,1.8064,0.0,1.7641,1.6725,1.744,1.8586,1.9769,0.0,2.1608,2.2833,2.2783,2.2843,2.3246,2.3038,2.3098,2.3681,2.3724,2.3867,2.4135,2.3465,2.3084,2.3319,2.3054,2.2875,2.2875,2.2572,2.2449,2.2449,2.2449,2.2402,2.2402,2.2402,2.2526,2.274,2.2402,2.2434,2.2694,2.2356,2.2184,2.2184,2.2231,2.2231,2.2278,2.2324,2.2324,2.2324,2.2402,2.2449,2.2495,0.0,0.0,0.0,0.0,0.0,0.0,0.0,0.0,0.0,0.0,0.7588,0.7889,0.0,0.0,0.0,0.0,0.0,0.0,0.0,0.0,0.0,0.0,0.0,0.0,0.0,0.0,0.0,0.0,0.0,0.0,0.0,0.0,0.0,0.0,0.0,0.0,0.0,0.0,0.0,0.0,0.0,0.0,0.0,0.0,0.0,0.0,0.0,0.0,0.0,0.0,1.4972,1.5203,1.5936,1.6182,1.6312,1.7229,1.7571,1.7814,1.8535,1.9066,1.9471,1.9829,2.033,2.0565,2.0039,1.9375,0.0,0.0,0.0,1.6297,1.596,1.6846,1.7987,1.9107,0.0,0.0,0.0,0.0,2.3363,0.0,0.0,0.0,0.0,0.0,0.0,0.0,2.4759,2.4436,2.3882,2.3797,2.3754,2.3754,2.3711,2.3668,2.3668,2.3668,2.3566,2.3377,2.3377,2.3275,2.3084,2.2785,2.2663,2.2694,2.2356,2.2184,2.2231,2.2417,2.2509,2.2555,2.2843,2.2947,2.2978,2.3465,2.3623,2.3666,0.0,0.0,0.0,0.0,0.0,0.0,0.0,0.6915,0.7292,0.7381,0.7529,0.7763,0.8192,0.8174,0.8428,0.0,0.0,0.0,0.0,0.0,0.0,0.0,0.0,0.0,0.0,0.0,0.0,0.0,0.0,0.0,0.0,0.0,0.0,0.0,0.0,0.0,0.0,0.0,0.0,0.0,0.0,0.0,0.0,0.0,0.0,0.0,0.0,0.0,0.0,0.0,1.5229,1.5774,1.6699,1.7089,1.7284,1.7666,1.8108,1.8577,1.9118,1.9558,1.9984,2.0499,2.0861,2.0879,1.9995,0.0,0.0,0.0,0.0,1.5661,1.5067,0.0,0.0,0.0,0.0,0.0,0.0,0.0,0.0,0.0,0.0,0.0,0.0,0.0,0.0,2.5323,2.5378,2.5224,2.4855,2.4655,2.4426,2.4135,2.4151,2.4109,2.3982,2.3982,2.394,2.3797,2.3797,2.3824,2.3852,2.3319,2.3201,2.3348,2.2783,2.2678,2.2844,2.3054,2.329,2.3523,2.3767,2.3894,2.3894,2.4173,2.4256,2.4297,0.0,0.0,0.0,0.0,0.0,0.0,0.0,0.6961,0.7411,0.7411,0.746,0.7588,0.7849,0.7954,0.821,0.0,0.0,0.0,0.0,0.0,0.0,0.0,0.0,0.0,0.0,0.0,0.0,0.0,0.0,0.0,0.0,0.0,0.0,0.0,0.0,0.0,0.0,0.0,0.0,0.0,0.0,0.0,0.0,0.0,0.0,0.0,0.0,0.0,0.0,0.0,1.5164,1.5869,1.6792,1.7461,1.7942,1.8066,1.8577,1.9199,1.9594,2.0019,2.0481,2.1151,2.1309,2.1037,1.9925,1.9119,0.0,0.0,1.5463,1.518,1.4543,0.0,0.0,0.0,0.0,0.0,0.0,0.0,0.0,0.0,0.0,0.0,0.0,0.0,0.0,2.5733,2.5733,2.5696,2.5605,2.5339,2.5013,2.4589,2.4589,2.4467,2.4261,2.4276,2.4276,2.4234,2.4234,2.4359,2.458,2.3867,2.3739,2.4067,2.3319,2.3216,2.3595,2.3752,2.4063,2.4369,2.4599,2.4664,2.4664,2.4808,2.4863,2.4847,0.0,0.0,0.0,0.0,0.0,0.0,0.0,0.6737,0.7411,0.749,0.749,0.7421,0.7214,0.7462,0.7869,0.0,0.0,0.0,0.0,0.0,0.0,0.0,0.0,0.0,0.0,0.0,0.0,0.0,0.0,0.0,0.0,0.0,0.0,0.0,0.0,0.0,0.0,0.0,0.0,0.0,0.0,0.0,0.0,0.0,0.0,0.0,0.0,0.0,0.0,0.0,0.0,1.5205,1.5853,1.6789,1.7819,1.8772,0.0,0.0,1.9965,2.0429,2.0811,2.1214,2.1309,2.1037,1.9925,0.0,0.0,1.6047,1.5078,1.4484,1.4714,1.5541,0.0,0.0,0.0,0.0,0.0,0.0,0.0,0.0,0.0,0.0,0.0,0.0,0.0,2.6132,2.6132,2.597,2.5605,2.5567,2.553,2.5492,2.5492,2.5378,2.5162,2.5178,2.5084,2.4926,2.4926,2.4926,2.4926,2.4261,2.4109,2.4416,2.3681,2.3681,2.4219,2.4219,2.4354,2.4583,2.4784,2.4863,2.4942,2.5481,2.5705,2.5742,0.0,0.0,0.0,0.0,0.0,0.0,0.5918,0.6777,0.744,0.7539,0.7539,0.7421,0.7175,0.7451,0.7715,0.785,0.0,0.0,0.0,0.0,0.0,0.0,0.0,0.0,0.0,0.0,0.0,0.0,0.0,0.0,0.0,0.0,0.0,0.0,0.0,0.0,0.0,0.0,0.0,0.0,0.0,0.0,0.0,0.0,0.0,0.0,0.0,0.0,0.0,0.0,0.0,0.0,1.4693,1.5654,0.0,0.0,1.917,1.9584,2.067,2.1087,2.123,2.157,2.1631,2.1154,1.9417,0.0,1.7154,1.5567,1.4914,1.4651,1.4777,1.5287,1.6177,0.0,1.8546,1.9867,0.0,0.0,0.0,0.0,0.0,0.0,0.0,0.0,2.6312,2.6486,2.6468,2.6364,2.6206,2.6026,2.5897,2.577,2.577,2.5696,2.547,2.547,2.5416,2.5339,2.5339,2.5339,2.5339,2.4871,2.4751,2.4831,2.4338,2.4379,2.4775,2.4918,2.5153,2.546,2.5684,2.5795,2.5885,2.6118,2.6241,2.6241,0.0,0.0,0.0,0.0,0.0,0.5497,0.5914,0.68,0.744,0.7588,0.748,0.7294,0.7068,0.7373,0.753,0.7362,0.787,0.0,0.0,0.0,0.0,0.0,0.0,0.0,0.0,0.0,0.0,0.0,0.0,0.0,0.0,0.0,0.0,0.0,0.0,0.0,0.0,0.0,0.0,0.0,0.0,0.0,0.0,0.0,0.0,0.0,0.0,0.0,0.0,0.0,0.0,0.0,0.0,0.0,0.0,0.0,1.8933,1.972,2.0868,2.1269,2.1479,2.184,2.1781,2.1133,0.0,0.0,1.7284,1.5346,1.4871,1.4839,1.5011,1.5238,1.589,1.7409,1.8191,1.9371,2.1553,0.0,0.0,0.0,0.0,0.0,0.0,2.6589,2.6708,2.6906,2.6858,2.6842,2.6842,2.6623,2.6364,2.6007,2.597,2.5881,2.5696,2.5696,2.5642,2.5605,2.5605,2.5605,2.5584,2.5262,2.513,2.5224,2.4879,2.4997,2.5362,2.5497,2.5811,2.617,2.6347,2.6468,2.652,2.6589,2.6623,2.6589,0.0,0.0,0.0,0.0,0.0,0.0,0.5709,0.6675,0.744,0.7588,0.7324,0.6996,0.673,0.7059,0.7207,0.7017,0.7686,0.0,0.0,0.0,0.0,0.0,0.0,0.0,0.0,0.0,0.956,1.0096,1.0021,0.0,0.0,0.0,0.0,0.0,0.0,0.0,0.0,0.0,0.0,0.0,0.0,0.0,0.0,0.0,0.0,0.0,0.0,0.0,0.0,0.0,0.0,0.0,0.0,0.0,0.0,0.0,1.8376,1.9546,2.0237,2.0893,2.1479,2.184,2.1601,2.0844,0.0,1.8021,1.706,1.559,1.5025,1.4949,1.5492,1.558,1.5935,1.6951,1.7941,1.9197,2.0878,0.0,0.0,0.0,0.0,0.0,0.0,2.673,2.7378,2.7378,2.7378,2.7378,2.7378,2.7258,2.6875,2.6203,2.622,2.6096,2.5897,2.5897,2.5807,2.5605,2.5605,2.5584,2.5578,2.5262,2.5301,2.5567,2.5246,2.5438,2.5974,2.5974,2.617,2.6485,2.6589,2.6606,2.6606,2.6826,2.6893,2.6791,0.0,0.0,0.0,0.0,0.0,0.0,0.0,0.6439,0.7046,0.755,0.748,0.7303,0.7068,0.7373,0.751,0.7362,0.7841,0.0,0.0,0.0,0.0,0.0,0.0,0.0,0.0,0.0,0.9,0.9477,0.9477,0.9765,1.0413,0.0,0.0,0.0,0.0,0.0,0.0,0.0,0.0,0.0,0.0,0.0,0.0,0.0,0.0,0.0,0.0,0.0,0.0,0.0,0.0,0.0,0.0,0.0,0.0,0.0,0.0,0.0,1.9344,1.9953,2.029,2.0535,2.0389,1.9764,1.8307,1.7415,1.6583,1.5595,1.4965,1.479,1.5404,1.5696,1.6331,1.7922,1.8432,0.0,0.0,0.0,0.0,0.0,0.0,0.0,0.0,0.0,2.7971,2.7754,2.7487,2.7426,2.7654,2.7241,2.6954,2.6908,2.6775,2.6725,2.6657,2.6657,2.6538,2.6277,2.6277,2.6187,2.6023,2.5897,2.5917,2.6082,2.5957,2.6082,2.6329,2.6329,2.6434,2.6589,2.6589,2.664,2.6624,2.6215,2.6221,2.6258,0.0,0.0,0.0,0.0,0.0,0.0,0.0,0.6051,0.6528,0.6997,0.6924,0.684,0.6901,0.7091,0.7301,0.7423,0.7821,0.0,0.0,0.0,0.0,0.0,0.0,0.0,0.8499,0.8572,0.8847,0.9346,0.9605,0.9984,1.0478,1.0353,1.0274,0.0,0.0,0.0,0.0,0.0,0.0,0.0,0.0,0.0,0.0,0.0,0.0,0.0,0.0,0.0,0.0,0.0,0.0,0.0,0.0,0.0,0.0,0.0,1.428,0.0,0.0,1.8956,1.941,1.9807,1.9744,1.9197,1.7631,1.6918,1.6253,1.497,1.4652,1.4737,1.5222,1.5674,1.6381,1.7634,1.8302,0.0,0.0,0.0,0.0,0.0,0.0,0.0,0.0,2.7628,2.7939,2.7719,2.7483,2.7427,2.7628,2.752,2.7517,2.7642,2.7321,2.7132,2.7132,2.7085,2.694,2.6691,2.664,2.6468,2.6222,2.6222,2.6293,2.6382,2.6382,2.6434,0.0,2.6554,2.6572,2.6623,2.6623,2.6775,2.6853,2.6165,2.6087,2.6208,0.0,0.0,0.0,0.0,0.0,0.0,0.0,0.5536,0.5923,0.6142,0.5909,0.5891,0.6331,0.6475,0.6739,0.7251,0.0,0.0,0.0,0.0,0.0,0.0,0.0,0.0,0.8499,0.869,0.9063,0.9586,1.0205,1.0466,1.0404,1.0799,1.0507,0.9697,0.974,0.0,0.0,0.0,0.0,0.0,0.0,0.0,0.0,0.0,0.0,0.0,0.0,0.0,0.0,0.0,0.0,0.0,0.0,0.0,0.0,0.0,0.0,0.0,0.0,0.0,0.0,0.0,1.9339,1.8766,1.6871,1.6407,0.0,1.3989,1.4154,1.4737,1.5,1.564,1.6237,1.6495,1.7741,0.0,0.0,0.0,0.0,0.0,0.0,0.0,2.6925,2.7281,2.7447,2.7417,2.7393,2.7357,2.7327,2.79,2.8218,2.8244,2.7706,2.7417,2.7457,2.7321,2.7149,2.6873,2.6742,2.6555,2.6349,2.6349,2.6417,2.6485,2.6485,2.6554,2.6606,2.6606,2.6657,2.6691,2.6691,2.6937,2.7113,2.641,2.6339,2.6463,0.0,0.0,0.0,0.0,0.0,0.0,0.0,0.0,0.0,0.0,0.5968,0.6004,0.6231,0.657,0.6903,0.0,0.0,0.0,0.0,0.0,0.0,0.0,0.0,0.0,0.8499,0.8645,0.8932,0.9368,0.9671,0.9959,1.0156,0.9871,0.9741,0.9763,0.9295,0.9111,0.0,0.0,0.0,0.0,0.0,0.0,0.0,0.0,0.0,0.0,0.0,1.0523,0.0,0.0,0.0,0.0,0.0,0.0,0.0,0.0,1.1926,1.2438,1.3863,0.0,1.5905,1.6004,1.6046,1.5882,0.0,1.4437,0.0,0.0,0.0,0.0,0.0,1.6083,1.6764,0.0,0.0,0.0,0.0,0.0,0.0,0.0,0.0,2.6353,2.6672,2.7584,2.7951,2.7429,2.7252,2.6975,2.6506,2.6433,2.6516,2.6694,2.7173,2.7602,2.8017,2.7989,2.7847,2.7565,2.7535,2.7241,2.674,2.674,2.6674,2.6589,2.6589,2.6589,2.6674,2.6674,2.6759,2.6842,2.6842,2.671,2.6393,2.5686,2.5376,2.5159,0.0,0.0,0.0,0.0,0.0,0.0,0.0,0.0,0.0,0.0,0.0,0.5534,0.5811,0.6106,0.0,0.0,0.0,0.0,0.0,0.0,0.0,0.0,0.0,0.8393,0.846,0.8617,0.8932,0.9447,0.9649,0.9939,1.0329,0.9966,0.9741,0.9656,0.9125,0.8926,0.0,0.0,0.0,0.0,0.0,0.0,0.0,0.0,0.0,0.0,1.011,1.0386,0.0,1.0572,1.0801,1.1085,0.0,0.0,0.0,0.0,1.1392,1.1615,1.2134,1.3503,1.4844,1.5179,1.5275,1.5119,0.0,0.0,0.0,0.0,0.0,0.0,0.0,0.0,0.0,0.0,0.0,0.0,0.0,0.0,0.0,0.0,0.0,2.596,0.0,2.6598,2.6783,2.6418,2.6289,2.6067,2.5701,2.5906,2.6063,2.6204,2.662,2.7163,2.7823,2.7771,2.7772,2.7886,2.7448,2.7156,2.6987,2.6987,2.6891,2.6657,2.6657,2.6691,2.6792,2.6792,2.6925,2.7083,2.6708,2.6613,2.6525,2.5445,2.5105,2.5032,0.0,0.0,0.0,0.0,0.0,0.0,0.0,0.0,0.0,0.0,0.0,0.0,0.0,0.0,0.0,0.0,0.0,0.0,0.0,0.0,0.0,0.0,0.8205,0.8308,0.8393,0.8578,0.8916,0.9444,0.9642,0.9942,1.0378,1.0273,0.9942,0.9448,0.9102,0.8965,0.0,0.0,0.0,0.0,0.0,0.0,0.0,0.0,0.0,0.0,0.0,0.0,0.0,1.0498,1.0656,1.0873,1.0825,0.0,0.0,0.0,0.0,0.0,1.1198,1.2713,1.4405,1.4884,1.5144,1.5015,0.0,0.0,0.0,0.0,0.0,0.0,0.0,0.0,0.0,0.0,0.0,0.0,0.0,0.0,0.0,0.0,2.4537,0.0,2.5262,2.5296,2.5324,2.5218,2.5199,2.5124,2.4932,2.5568,2.5887,2.5842,2.595,2.6349,2.7037,2.7042,2.7341,2.7887,2.6969,2.6766,2.7181,2.706,2.6918,2.6742,2.6742,2.6724,2.6756,2.6771,2.6908,2.7009,2.6377,2.6419,2.6712,2.5425,2.5134,2.5263,0.0,0.0,0.0,0.0,0.0,0.0,0.0,0.0,0.0,0.0,0.0,0.0,0.0,0.0,0.0,0.0,0.0,0.0,0.0,0.0,0.0,0.7325,0.7918,0.8233,0.8319,0.8505,0.8633,0.8652,0.8867,0.9107,0.9322,0.9366,0.9375,0.9321,0.9131,0.896,0.8756,0.8828,0.0,0.0,0.0,0.0,0.0,0.0,0.0,0.0,0.0,0.0,0.0,1.0424,1.0597,1.0777,1.0548,0.0,0.0,0.0,0.0,0.0,1.1665,1.2584,1.3084,1.2134,1.2819,1.3528,0.0,0.0,0.0,0.0,0.0,0.0,0.0,0.0,0.0,0.0,0.0,0.0,0.0,0.0,0.0,2.2658,0.0,2.4401,2.4527,2.547,2.5814,2.5233,2.5241,2.4931,2.4114,2.4205,2.4239,2.4157,2.4827,2.5244,2.5371,2.6018,2.6754,2.7464,2.667,2.6728,2.7577,2.6883,2.6701,2.6876,2.6876,2.6568,2.6085,2.6247,2.6011,2.5562,2.5712,2.56,2.5325,2.5248,2.4986,2.4657,0.0,0.0,0.0,0.0,0.0,0.0,0.0,0.0,0.0,0.0,0.0,0.0,0.0,0.0,0.0,0.0,0.0,0.0,0.0,0.0,0.684,0.7186,0.7664,0.7966,0.808,0.8138,0.829,0.8544,0.8761,0.8981,0.9205,0.9232,0.9232,0.9178,0.9003,0.8855,0.8761,0.8789,0.0,0.0,0.0,0.0,0.0,0.0,0.0,0.0,0.0,0.0,0.0,0.0,1.0424,1.0523,1.0374,0.0,0.0,0.0,0.0,0.0,1.098,1.1624,1.2045,1.1456,1.2609,1.3876,0.0,0.0,0.0,0.0,0.0,0.0,0.0,0.0,0.0,0.0,0.0,0.0,0.0,0.0,2.249,0.0,0.0,2.3803,2.3991,2.4701,2.5001,2.4679,2.4642,2.4458,2.3994,2.3917,2.3876,2.3795,2.426,2.4502,2.4502,2.4866,2.5623,2.6747,2.595,2.5961,2.6667,2.6574,2.6545,2.6516,2.6409,2.619,2.5956,2.5744,2.5627,2.5569,2.5392,2.535,2.5355,2.5127,2.4945,2.485,0.0,0.0,0.0,0.0,0.0,0.0,0.0,0.0,0.0,0.0,0.0,0.0,0.0,0.0,0.0,0.0,0.0,0.0,0.0,0.5889,0.6507,0.6936,0.7289,0.7645,0.7984,0.8013,0.8241,0.8673,0.8969,0.9266,0.9528,0.9434,0.9339,0.9244,0.9003,0.8855,0.8789,0.8789,0.8789,0.0,0.0,0.0,0.0,0.0,0.0,0.0,0.0,0.0,0.0,0.0,0.0,0.0,0.0,0.0,0.0,1.0299,1.0299,1.0339,1.0469,1.0952,1.1415,1.1535,0.0,0.0,0.0,0.0,0.0,0.0,0.0,0.0,0.0,0.0,0.0,0.0,0.0,0.0,0.0,2.2292,2.2563,2.2977,2.3289,2.3544,2.3714,2.3996,2.417,2.417,2.4113,2.4054,2.3976,2.3917,2.3876,2.3795,2.3937,2.4036,2.4094,2.4094,2.4746,2.5978,2.5139,2.509,2.575,2.5968,2.603,2.5888,2.5747,2.563,2.5493,2.5167,2.5189,2.5338,2.5026,2.5153,2.5509,2.505,2.4981,2.5149,0.0,0.0,0.0,0.0,0.0,0.0,0.0,0.0,0.0,0.0,0.0,0.0,0.0,0.0,0.0,0.0,0.0,0.0,0.0,0.5043,0.5454,0.6247,0.6593,0.723,0.8251,0.8578,0.8789,0.8887,0.9466,0.9919,1.0235,0.9854,0.971,0.9724,0.9286,0.8987,0.8789,0.8789,0.8717,0.8628,0.0,0.0,0.0,0.0,0.0,0.0,0.0,0.0,0.0,0.0,0.0,0.0,0.0,0.0,1.0299,1.0299,1.0299,1.0417,1.0978,1.1255,1.1495,1.1869,0.0,0.0,0.0,0.0,0.0,0.0,0.0,0.0,0.0,0.0,0.0,0.0,0.0,0.0,2.1781,0.0,2.3052,2.3095,2.3491,2.3774,2.3795,2.3996,2.4094,2.4094,2.4054,2.3976,2.3917,2.3896,2.3876,2.3795,2.3816,2.3917,2.4094,2.4094,2.4533,2.5333,2.4411,2.4523,2.5491,2.4847,2.4725,2.4986,2.4974,2.4603,2.4081,2.4481,2.4283,2.3815,2.4412,2.4846,2.5137,2.5091,2.5171,2.5293,0.0,0.0,0.0,0.0,0.0,0.0,0.0,0.0,0.0,0.0,0.0,0.0,0.0,0.0,0.0,0.0,0.0,0.0,0.0,0.4763,0.5235,0.5732,0.6681,0.74,0.7788,0.8363,0.8935,0.9466,0.9816,0.9932,0.9869,0.9363,0.8946,0.8607,0.8428,0.8326,0.8259,0.8512,0.8595,0.8551,0.8589,0.0,0.0,0.0,0.0,0.0,0.0,0.0,0.0,0.0,1.0186,1.0224,0.0,1.0349,1.0349,1.0299,1.0299,1.0352,1.0573,1.1018,1.1522,1.2051,0.0,0.0,0.0,0.0,0.0,0.0,0.0,0.0,0.0,0.0,0.0,0.0,0.0,2.1781,2.1969,2.2581,2.3077,2.3218,2.3477,2.3774,2.3976,2.4054,2.4074,2.4036,2.4016,2.3976,2.3896,2.3876,2.3816,2.3795,2.3999,2.4153,2.421,2.4321,2.4469,2.4726,2.4243,2.4145,2.4384,2.4455,2.4496,2.4512,2.4348,2.4164,2.4033,2.3999,2.3858,2.3738,2.4487,2.491,2.5115,2.5182,2.5274,2.5348,0.0,0.0,0.0,0.0,0.0,0.0,0.0,0.0,0.0,0.0,0.0,0.0,0.0,0.0,0.0,0.0,0.0,0.0,0.4084,0.4616,0.5138,0.5584,0.6613,0.737,0.7819,0.8506,0.9176,0.9728,0.9869,0.9766,0.9433,0.8738,0.8112,0.7656,0.7637,0.7686,0.7744,0.8078,0.8315,0.8439,0.8477,0.8684,0.0,0.0,0.0,0.0,0.0,0.0,0.0,0.0,1.0224,1.0236,0.0,0.0,0.0,0.0,1.0299,1.0324,1.0324,1.074,1.1282,0.0,0.0,0.0,0.0,0.0,0.0,0.0,0.0,0.0,0.0,0.0,0.0,0.0,2.1477,2.1823,2.2068,2.2695,2.3188,2.33,2.3588,2.3876,2.4113,2.4094,2.4054,2.3996,2.3976,2.3917,2.3876,2.3896,2.3896,2.3896,2.4172,2.4321,2.4375,2.4444,2.4479,2.4393,2.421,2.3921,2.362,2.3998,2.4032,2.3815,2.3641,2.3649,2.3737,2.3608,2.3674,2.3946,2.4629,2.4975,2.5126,2.5264,2.536,2.5404,0.0,0.0,0.0,0.0,0.0,0.0,0.0,0.0,0.0,0.0,0.0,0.0,0.0,0.0,0.0,0.0,0.0,0.0,0.4293,0.4624,0.5109,0.5752,0.6255,0.7113,0.845,0.9154,0.9519,0.9617,0.9616,0.9433,0.9057,0.7996,0.7357,0.7095,0.7091,0.7178,0.7296,0.7589,0.7927,0.829,0.829,0.8432,0.0,0.0,0.0,0.0,0.0,0.0,0.0,0.0,0.9944,0.9957,0.0,0.0,0.0,1.0299,1.0349,1.0399,1.0399,1.0498,0.0,0.0,0.0,0.0,0.0,0.0,0.0,0.0,0.0,0.0,0.0,0.0,0.0,2.1135,2.1415,2.1702,2.2051,2.2848,2.3369,2.3323,2.3816,2.419,2.419,2.4074,2.3996,2.3996,2.3876,2.3795,2.3795,2.3996,2.4094,2.4094,2.4229,2.4375,2.4495,2.4495,2.4459,2.4389,2.4192,2.384,2.3394,2.3473,2.3242,2.2816,2.2868,2.2944,2.3003,2.3277,2.3762,2.4331,2.4752,2.4975,2.5126,2.5313,2.5399,2.5409,0.0,0.0,0.0,0.0,0.0,0.0,0.0,0.0,0.0,0.0,0.0,0.0,0.0,0.0,0.0,0.0,0.0,0.0,0.4293,0.4755,0.5087,0.5292,0.6106,0.6776,0.722,0.8116,0.9161,1.0295,0.9742,0.9,0.8084,0.7347,0.6695,0.6136,0.6297,0.6526,0.6777,0.7216,0.7569,0.785,0.8176,0.8347,0.0,0.0,0.0,0.0,0.0,0.0,0.0,0.0,0.0,0.0,1.0299,0.0,0.0,1.0299,1.0299,1.0324,1.0399,0.0,0.0,0.0,0.0,0.0,0.0,0.0,0.0,0.0,0.0,0.0,0.0,0.0,0.0,2.1246,2.1688,2.2051,2.2096,2.2857,2.3376,2.3307,2.375,2.4074,2.4074,2.4074,2.4054,2.3996,2.3958,2.3958,2.4019,2.4075,2.4152,2.4247,2.4375,2.4461,2.4495,2.4547,2.4512,2.4389,2.4099,2.3762,2.3405,2.3307,2.3151,2.285,2.2944,2.302,2.3119,2.3558,2.4002,2.4402,2.4663,2.4936,2.5171,2.5173,2.5331,2.5536,0.0,0.0,0.0,0.0,0.0,0.0,0.0,0.0,0.0,0.0,0.0,0.0,0.0,0.0,0.0,0.0,0.0,0.0,0.0,0.4873,0.5146,0.5253,0.5901,0.6448,0.6888,0.7724,0.853,0.9281,0.8821,0.8058,0.698,0.6559,0.6083,0.5609,0.5882,0.612,0.6336,0.6757,0.7101,0.7395,0.7685,0.7983,0.8294,0.0,0.0,0.0,0.0,0.0,0.0,0.0,0.0,0.0,0.0,0.0,0.0,0.9761,0.985,0.9964,1.0109,0.0,0.0,0.0,0.0,0.0,0.0,0.0,0.0,0.0,0.0,0.0,0.0,0.0,0.0,2.1615,2.1965,2.2248,2.2429,2.3,2.3405,2.3445,2.3834,2.4074,2.4074,2.4094,2.4074,2.4036,2.4016,2.4036,2.4057,2.4153,2.4228,2.421,2.4495,2.4575,2.4526,2.4613,2.4545,2.4318,2.3828,2.3446,2.32,2.3247,2.3144,2.2944,2.307,2.3144,2.3223,2.3732,2.406,2.4264,2.4678,2.4936,2.5126,2.5214,2.5397,2.5596,0.0,0.0,0.0,0.0,0.0,0.0,0.0,0.0,0.0,0.0,0.0,0.0,0.0,0.0,0.0,0.0,0.0,0.0,0.0,0.4932,0.5214,0.5454,0.5651,0.6179,0.7139,0.7644,0.7642,0.7145,0.7272,0.6857,0.5894,0.58,0.5641,0.5446,0.576,0.5949,0.6024,0.6238,0.6557,0.6915,0.6932,0.7437,0.8129,0.7966,0.0,0.0,0.0,0.0,0.0,0.0,0.0,0.0,0.9577,0.9161,0.8744,0.9034,0.9256,0.9489,0.0,0.0,0.0,0.0,0.0,0.0,0.0,0.0,0.0,0.0,0.0,0.0,0.0,2.1166,2.154,2.2108,2.222,2.2429,2.2927,2.3242,2.3459,2.3671,2.3996,2.4208,2.419,2.4151,2.4113,2.4113,2.4054,2.4016,2.4036,2.4247,2.4303,2.4173,2.4575,2.4734,2.4607,2.4657,2.4526,2.4174,2.3436,2.3028,2.2917,2.3126,2.3151,2.3045,2.3223,2.3336,2.3365,2.3842,2.4041,2.4099,2.4747,2.5019,2.5056,2.538,2.5528,2.5594,0.0,0.0,0.0,0.0,0.0,0.0,0.0,0.0,0.0,0.0,0.0,0.0,0.0,0.0,0.0,0.0,0.0,0.0,0.0,0.4834,0.5127,0.5185,0.5716,0.629,0.6885,0.6546,0.6238,0.5954,0.6557,0.6511,0.5896,0.5966,0.5944,0.5782,0.5805,0.5929,0.6082,0.5961,0.6044,0.6256,0.6562,0.681,0.6974,0.7024,0.7081,0.0,0.0,0.0,0.0,0.0,0.0,0.0,1.0117,0.9702,0.9341,0.9875,0.9791,0.9639,0.0,0.0,0.0,0.0,0.0,0.0,0.0,0.0,0.0,0.0,0.0,0.0,2.1151,2.1495,2.1794,2.2136,2.2419,2.2721,2.3028,2.3265,2.3459,2.3671,2.3996,2.417,2.4132,2.4151,2.417,2.417,2.4132,2.4114,2.4229,2.4247,2.4338,2.4561,2.4657,2.4723,2.4673,2.4645,2.4408,2.3964,2.3315,2.3063,2.3126,2.2773,2.2824,2.3223,2.3399,2.3518,2.3649,2.4173,2.4383,2.4433,2.4839,2.5103,2.525,2.5329,2.5453,2.5576,0.0,0.0,0.0,0.0,0.0,0.0,0.0,0.0,0.0,0.0,0.0,0.0,0.0,0.0,0.0,0.0,0.0,0.0,0.0,0.4606,0.4912,0.4912,0.5423,0.574,0.5782,0.5583,0.5313,0.5017,0.5405,0.5582,0.5532,0.5992,0.6199,0.6236,0.6039,0.5978,0.6031,0.585,0.5782,0.5876,0.6159,0.6441,0.6677,0.6522,0.6653,0.6895,0.6799,0.0,0.0,0.0,0.0,0.0,0.0,0.0,0.8414,0.8759,0.8947,0.9108,0.0,0.0,0.0,0.0,0.0,0.0,0.0,0.0,0.0,0.0,0.0,0.0,2.1464,2.1678,2.1928,2.2364,2.2588,2.2825,2.3188,2.3341,2.3544,2.3896,2.4094,2.419,2.4151,2.417,2.419,2.419,2.417,2.419,2.4247,2.4339,2.441,2.4409,2.4642,2.467,2.4508,2.4408,2.4174,2.3785,2.3124,2.2815,2.2798,2.2721,2.295,2.3399,2.354,2.3741,2.4024,2.4416,2.464,2.4728,2.5041,2.5212,2.5303,2.5376,2.5483,2.5584,0.0,0.0,0.0,0.0,0.0,0.0,0.0,0.0,0.0,0.0,0.0,0.0,0.0,0.0,0.0,0.0,0.0,0.0,0.0,0.4277,0.4622,0.4724,0.5033,0.5064,0.4817,0.4865,0.4738,0.442,0.4433,0.4693,0.5192,0.5887,0.6334,0.6579,0.62,0.6022,0.5941,0.5674,0.5554,0.5619,0.5749,0.6122,0.6531,0.6191,0.6294,0.6604,0.6158,0.6519,0.7286,0.7906,0.0,0.0,0.0,0.0,0.7257,0.7422,0.7933,0.8487,0.0,0.0,0.0,0.0,0.0,0.0,0.0,0.0,0.0,0.0,0.0,2.1007,2.1678,2.1797,2.1986,2.2588,2.2712,2.2859,2.3323,2.3392,2.3588,2.4151,2.419,2.419,2.419,2.419,2.419,2.419,2.419,2.419,2.419,2.4411,2.441,2.419,2.4524,2.4604,2.4336,2.4211,2.3983,2.366,2.2996,2.2582,2.2422,2.2867,2.3236,2.3544,2.3741,2.4043,2.44,2.467,2.4877,2.4993,2.5243,2.5361,2.5385,2.5481,2.5547,2.5574,0.0,0.0,0.0,0.0,0.0,0.0,0.0,0.0,0.0,0.0,0.0,0.2367,0.2697,0.274,0.0,0.0,0.0,0.0,0.3283,0.0,0.0,0.4754,0.4777,0.4924,0.5225,0.4735,0.4479,0.4487,0.4549,0.4878,0.0,0.0,0.6032,0.6488,0.6028,0.5846,0.5774,0.5171,0.5026,0.5195,0.5313,0.549,0.5689,0.58,0.5956,0.6101,0.6032,0.6519,0.7205,0.7318,0.7599,0.0,0.0,0.0,0.0,0.7997,0.8354,0.0,0.0,0.0,0.0,0.0,0.0,0.0,0.0,0.0,0.0,0.0,2.0662,2.1007,2.1678,2.1797,2.1986,2.2588,2.2712,2.2859,2.3323,2.3392,2.3588,2.4151,2.419,2.419,2.419,2.419,2.419,2.419,2.419,2.419,2.419,2.4228,2.4321,2.4444,2.4459,2.4458,2.4459,2.4408,2.408,2.3526,2.3074,2.2738,2.2529,2.3074,2.3468,2.3714,2.4118,2.4449,2.4674,2.5072,2.5222,2.5252,2.5406,2.5536,2.5629,2.5595,2.5584,2.558,0.0,0.0,0.0,0.0,0.0,0.0,0.0,0.0,0.0,0.0,0.0,0.2176,0.2394,0.2459,0.0,0.0,0.0,0.0,0.3078,0.3269,0.0,0.3937,0.3937,0.4082,0.4388,0.4186,0.4097,0.4156,0.4156,0.0,0.0,0.5318,0.58,0.0,0.5985,0.5727,0.5765,0.5129,0.0,0.5108,0.5253,0.553,0.5866,0.5702,0.59,0.6254,0.5993,0.6046,0.6329,0.6853,0.6976,0.6978,0.7422,0.0,0.0,0.0,0.0,0.0,0.0,0.0,0.0,0.0,0.0,0.0,0.0,0.0,0.0,0.0,1.9862,2.0605,2.1488,2.1675,2.1911,2.2552,2.2685,2.2825,2.3188,2.3236,2.3359,2.3692,2.3735,2.3735,2.3735,2.3896,2.3976,2.3976,2.4132,2.4209,2.4209,2.4303,2.4409,2.4491,2.4572,2.4588,2.4491,2.421,2.3767,2.3164,2.3133,2.3067,2.3007,2.3599,2.3846,2.3824,2.4244,2.4588,2.4943,2.519,2.5341,2.5415,2.5531,2.5629,2.5697,2.5588,2.558,2.5576,0.0,0.0,0.0,0.0,0.0,0.0,0.0,0.0,0.0,0.0,0.0,0.0,0.2132,0.0,0.0,0.0,0.0,0.0,0.2762,0.0,0.0,0.0,0.3269,0.3423,0.3689,0.3759,0.3842,0.3911,0.0,0.0,0.5305,0.5262,0.5838,0.0,0.6052,0.5702,0.0,0.0,0.0,0.0,0.5363,0.5694,0.6097,0.5899,0.6118,0.6447,0.6046,0.5776,0.0,0.0,0.0,0.0,0.0,0.0,0.0,0.0,0.0,0.0,0.0,0.0,0.0,0.0,0.0,0.0,0.0,0.0,0.0,0.0,1.8649,1.9418,2.044,2.122,2.1895,2.2497,2.2632,2.2764,2.307,2.3095,2.3182,2.3387,2.3392,2.3392,2.3392,2.3649,2.3795,2.3795,2.4056,2.421,2.4266,2.4408,2.451,2.4524,2.4651,2.4636,2.4474,2.4005,2.3552,2.3109,2.3259,2.3399,2.3535,2.4025,2.4191,2.4062,2.4428,2.4807,2.516,2.5302,2.5423,2.5538,2.5604,2.566,2.5681,2.5565,2.5544,2.554,0.0,0.0,0.0,0.0,0.0,0.0,0.0,0.0,0.0,0.0,0.0,0.0,0.1986,0.2074,0.21,0.21,0.0,0.0,0.0,0.0,0.0,0.0,0.0,0.0,0.3689,0.3759,0.3842,0.3911,0.0,0.0,0.5583,0.5767,0.6322,0.7148,0.6271,0.5772,0.5591,0.0,0.0,0.0,0.0,0.5783,0.5975,0.6537,0.663,0.6481,0.6263,0.0,0.0,0.0,0.0,0.0,0.0,0.0,0.5963,0.0,0.0,0.0,0.0,0.0,0.0,0.0,0.0,0.0,0.0,0.0,0.0,0.0,1.6946,1.7024,1.8087,2.0312,2.2113,2.2525,2.2605,2.2712,2.3052,2.3095,2.3182,2.3387,2.3392,2.3392,2.3392,2.3649,2.3795,2.3795,2.4039,2.4266,2.4372,2.4456,2.4524,2.458,2.454,2.4493,2.4412,2.3939,2.3692,2.3649,2.3544,2.361,2.3896,2.4227,2.4431,2.4498,2.4962,2.5203,2.5303,2.5423,2.5531,2.5604,2.5673,2.5704,2.5694,2.5612,2.5526,2.5408,0.0,0.0,0.0,0.0,0.0,0.0,0.0,0.0,0.0,0.0,0.0,0.0,0.0,0.1541,0.1677,0.1894,0.207,0.0,0.0,0.0,0.0,0.0,0.0,0.0,0.0,0.3605,0.3772,0.0,0.0,0.4589,0.5156,0.5392,0.5685,0.5979,0.5976,0.6135,0.638,0.5326,0.0,0.0,0.0,0.0,0.6121,0.6381,0.6691,0.6895,0.0,0.0,0.0,0.0,0.0,0.0,0.5899,0.5851,0.5752,0.5973,0.0,0.0,0.0,0.0,0.0,0.0,0.0,0.0,0.0,0.0,0.0,1.581,1.6402,1.693,1.7316,1.8696,2.0217,2.1609,2.1859,2.2134,2.2747,2.2825,2.2876,2.2943,2.2943,2.2943,2.2943,2.3188,2.3371,2.3417,2.3774,2.4077,2.4192,2.4338,2.4425,2.4403,2.4385,2.4246,2.3963,2.3943,2.3837,2.3576,2.3819,2.4041,2.4229,2.461,2.4839,2.4967,2.5253,2.5361,2.5302,2.5481,2.5599,2.5679,2.5684,2.5707,2.5691,2.5531,2.5439,2.5374,0.0,0.0,0.0,0.0,0.0,0.0,0.0,0.0,0.0781,0.0914,0.0,0.0,0.0,0.0,0.143,0.1762,0.2022,0.2176,0.2193,0.2241,0.0,0.0,0.0,0.0,0.0,0.345,0.3626,0.3759,0.4138,0.4574,0.0,0.5348,0.5601,0.5777,0.5956,0.6189,0.0,0.0,0.0,0.5545,0.0,0.0,0.6176,0.0,0.6915,0.7152,0.0,0.0,0.0,0.0,0.0,0.0,0.0,0.5857,0.5678,0.5852,0.0,0.0,0.0,0.0,0.0,0.0,0.0,0.0,0.0,0.0,1.4868,1.4868,1.562,1.6305,1.6305,1.6967,1.8212,2.0303,2.0899,2.1378,2.2203,2.235,2.2436,2.2677,2.2712,2.2712,2.2712,2.2952,2.3144,2.3193,2.358,2.3878,2.4018,2.4173,2.4247,2.4209,2.4155,2.3986,2.3741,2.3921,2.3899,2.3728,2.4079,2.4353,2.4551,2.4936,2.5157,2.5234,2.5416,2.5444,2.537,2.5556,2.5666,2.5712,2.5703,2.5693,2.5657,2.5487,2.5395,2.5316,0.0,0.0,0.0,0.0,0.0,0.0,0.0,0.0,0.0825,0.0961,0.0,0.0,0.0,0.0,0.0,0.1759,0.1986,0.214,0.2193,0.2193,0.0,0.0,0.0,0.0,0.3296,0.3317,0.3444,0.371,0.4158,0.47,0.5285,0.5694,0.6141,0.665,0.6245,0.589,0.5606,0.0,0.5658,0.5668,0.0,0.6224,0.6127,0.0,0.0,0.0,0.7044,0.6847,0.0,0.6401,0.0,0.0,0.0,0.5877,0.5708,0.5704,0.6314,0.0,0.0,0.0,0.0,0.0,0.0,0.0,0.0,0.0,1.4151,1.4166,1.456,1.4902,1.4902,1.5296,1.6363,1.8631,1.9686,2.0546,2.1428,2.1591,2.1867,2.2565,2.2694,2.2712,2.2712,2.2995,2.3193,2.3193,2.3491,2.3756,2.3885,2.3947,2.3988,2.3988,2.3844,2.3795,2.3795,2.3795,2.3919,2.4098,2.4317,2.4551,2.4818,2.5153,2.5301,2.5301,2.5443,2.5499,2.5507,2.5654,2.5701,2.5693,2.5703,2.5654,2.5588,2.5522,2.536,2.5182,0.0,0.0,0.0,0.0,0.0,0.0135,0.018,0.0247,0.0336,0.0,0.0,0.0,0.0651,0.1029,0.1363,0.1496,0.1913,0.2198,0.2263,0.2311,0.242,0.2626,0.2778,0.2966,0.3223,0.3423,0.3598,0.378,0.4104,0.442,0.4732,0.5029,0.534,0.5612,0.5593,0.5542,0.5442,0.5316,0.0,0.0,0.5786,0.5952,0.0,0.0,0.0,0.0,0.0,0.7089,0.7013,0.0,0.6939,0.6875,0.0,0.0,0.0,0.5746,0.0,0.0,0.754,0.0,0.0,0.0,0.0,0.0,0.0,0.0,0.0,1.3799,1.4452,1.4924,1.4962,1.5792,1.6526,1.6695,1.7791,1.9133,2.0532,2.1221,2.1677,2.1884,2.2384,2.2712,2.2712,2.2842,2.2944,2.2995,2.3301,2.3513,2.3602,2.3628,2.3649,2.3649,2.3602,2.3576,2.3576,2.3878,2.404,2.4098,2.4456,2.4708,2.4877,2.5168,2.5351,2.5455,2.5544,2.5563,2.5581,2.5661,2.5697,2.571,2.5654,2.5583,2.5514,2.5341,2.5163,2.4974,0.0,0.0,0.0,0.0422,0.0184,0.0023,0.0118,0.0138,0.018,0.0,0.0,0.0,0.045,0.097,0.1348,0.1393,0.1872,0.2202,0.2285,0.2333,0.2425,0.256,0.2729,0.2923,0.3159,0.3359,0.3577,0.3808,0.4042,0.4281,0.4507,0.4755,0.4981,0.5215,0.5273,0.535,0.5398,0.5282,0.0,0.0,0.5956,0.0,0.0,0.6942,0.7282,0.0,0.0,0.0,0.7329,0.7453,0.7402,0.0,0.0,0.0,0.0,0.0,0.0,0.0,0.0,0.0,0.0,0.0,0.0,0.0,1.1069,1.2004,0.0,0.0,1.4277,1.4946,1.5096,1.5795,1.6325,1.6304,1.7007,1.792,1.8861,1.9671,2.0315,2.0608,2.1591,2.2125,2.1755,2.241,2.2729,2.2467,2.2975,2.3295,2.3342,2.3435,2.3504,2.3504,2.3576,2.3692,2.3824,2.4061,2.4264,2.4439,2.4757,2.4955,2.5031,2.5293,2.5476,2.5556,2.5619,2.5631,2.5595,2.5619,2.5626,2.5641,2.5557,2.5441,2.5303,2.5141,2.493,2.4724,0.0,0.0,0.0461,0.0372,0.0143,0.0,0.0177,0.0168,0.0206,0.0,0.0393,0.0439,0.0554,0.1047,0.1398,0.1462,0.1842,0.2162,0.2285,0.2307,0.2376,0.2512,0.2637,0.2832,0.3111,0.3254,0.3472,0.378,0.3973,0.4211,0.4475,0.4644,0.4872,0.5127,0.5127,0.5215,0.5331,0.5331,0.0,0.511,0.6308,0.6614,0.0,0.0,0.7858,0.7898,0.7927,0.7746,0.754,0.7845,0.7818,0.0,0.0,0.0,0.0,0.0,0.7156,0.0,0.0,0.0,0.0,0.0,0.0,0.0,1.0108,1.143,1.2786,0.0,1.3996,1.487,1.5172,1.5446,1.588,1.6613,1.6784,1.6873,1.6981,1.769,1.8396,1.8982,2.0325,2.1022,2.0446,2.1742,2.2424,2.1962,2.2685,2.3126,2.3126,2.3371,2.3531,2.3531,2.3732,2.3984,2.4296,2.4314,2.4514,2.4896,2.5105,2.5197,2.5206,2.5486,2.5604,2.5595,2.5662,2.5644,2.5586,2.5499,2.5505,2.5566,2.5443,2.5248,2.5063,2.4937,2.4691,2.4431,0.0,0.018,0.0346,0.0125,-0.015,-0.0229,0.0082,-0.0026,0.0,0.0349,0.0406,0.054,0.0943,0.1192,0.1452,0.1772,0.1996,0.2162,0.2285,0.2307,0.2415,0.2659,0.2745,0.2902,0.3181,0.3372,0.3541,0.371,0.3869,0.4055,0.4268,0.4309,0.4423,0.4635,0.4684,0.4764,0.4834,0.0,0.0,0.5055,0.586,0.0,0.7026,0.7191,0.7486,0.785,0.807,0.7873,0.7566,0.8061,0.8451,0.8646,0.0,0.0,0.0,0.7071,0.7255,0.7665,0.7639,0.0,0.0,0.0,0.0,0.0,0.9289,1.0715,1.2195,0.0,1.3297,1.4069,1.4762,1.507,1.5184,1.5024,1.5448,1.6081,1.6875,1.769,1.8,1.7518,1.8276,1.928,2.0291,2.0742,2.1437,2.2581,2.3135,2.3435,2.3435,2.3642,2.3732,2.3732,2.3886,2.4063,2.4296,2.446,2.4662,2.4904,2.5107,2.5196,2.5206,2.5486,2.5604,2.5598,2.5604,2.5587,2.5511,2.5339,2.532,2.5425,2.5349,2.5153,2.4937,2.4904,2.4526,2.4007,0.0,0.0224,0.0327,0.0445,0.0104,-0.0052,0.0203,0.0167,0.0162,0.0364,0.0463,0.0582,0.0786,0.1113,0.139,0.164,0.1872,0.207,0.2241,0.2241,0.235,0.2551,0.2681,0.2832,0.2988,0.326,0.3478,0.3605,0.3807,0.3994,0.4207,0.4207,0.4301,0.4507,0.4535,0.4595,0.4706,0.0,0.4814,0.5054,0.5754,0.0,0.7055,0.7557,0.7987,0.8344,0.8679,0.8465,0.8116,0.8512,0.8701,0.0,0.0,0.8641,0.8365,0.0,0.7914,0.8015,0.7841,0.0,0.0,0.7749,0.0,0.0,0.0,1.0114,1.1405,1.2109,1.2402,1.291,1.4246,1.4307,1.4298,1.4761,1.5439,1.593,1.599,1.7018,1.7611,1.7211,1.8268,1.9029,1.895,1.9752,2.0795,2.2103,2.2398,2.2725,2.3209,2.3456,2.3547,2.3547,2.4126,2.4526,2.4705,2.4801,2.4974,2.5198,2.5339,2.5391,2.5415,2.5578,2.5631,2.5605,2.5609,2.5542,2.5434,2.5156,2.4987,2.4892,2.4785,2.4651,2.4476,2.4314,2.3986,2.3552,0.0,0.0246,0.0282,0.0672,0.0345,0.0108,0.0363,0.0355,0.0344,0.0401,0.0513,0.0584,0.0614,0.0977,0.1286,0.1399,0.1691,0.1937,0.2113,0.217,0.2263,0.2398,0.2594,0.2724,0.2767,0.3126,0.3359,0.3457,0.3744,0.3973,0.4145,0.4145,0.4219,0.4386,0.4333,0.0,0.0,0.0,0.0,0.5157,0.0,0.6279,0.6892,0.7886,0.8484,0.8833,0.9171,0.9115,0.89,0.8947,0.8863,0.8784,0.9118,0.9019,0.0,0.0,0.0,0.0,0.0,0.0,0.0,0.0,0.0,0.8919,0.0,0.0,0.0,1.1545,1.1438,0.0,0.0,0.0,0.0,1.4386,0.0,0.0,0.0,1.6168,0.0,1.687,1.8252,1.8823,1.779,1.9093,2.0372,2.117,2.1168,2.1544,2.2516,2.2761,2.2943,2.3112,2.3977,2.4511,2.4621,2.4635,2.4869,2.5253,2.5316,2.5438,2.5609,2.5676,2.5662,2.5605,2.5586,2.548,2.5274,2.4977,2.4623,2.4271,2.4205,2.4081,2.3929,2.3681,2.3445,2.3175,-0.0135,-0.0045,0.0069,0.0177,-0.0053,-0.0113,0.0335,0.0184,0.0152,0.0457,0.0514,0.063,0.0991,0.0977,0.1093,0.1443,0.1635,0.1757,0.183,0.2058,0.2263,0.2398,0.2594,0.2697,0.2724,0.3105,0.3317,0.3317,0.3716,0.3911,0.3931,0.3931,0.3952,0.3952,0.3731,0.0,0.0,0.0,0.4486,0.0,0.5375,0.5865,0.0,0.752,0.8174,0.8717,0.8834,0.933,0.9818,0.0,0.9157,0.9468,0.0,0.8844,0.8789,0.8789,0.0,0.0,0.0,0.0,0.0,0.0,0.9003,0.0,0.0,0.0,1.0541,1.0643,0.0,0.0,0.0,0.0,0.0,0.0,0.0,0.0,1.4497,1.5575,1.6062,1.5361,1.6112,1.7153,1.8283,1.9416,2.0137,2.0263,1.9936,2.0122,2.1003,2.1242,2.1702,2.2476,2.2737,2.2874,2.2876,2.3007,2.3501,2.4356,2.4426,2.488,2.5697,2.5696,2.5662,2.5593,2.5543,2.5302,2.4936,2.4728,2.4344,2.387,2.4044,2.3852,2.3476,2.3516,2.3277,2.2944,0.0,0.0022,0.0,0.0348,0.0181,0.011,0.0425,0.0444,0.0454,0.0584,0.0397,0.0437,0.0,0.0,0.0,0.0,0.0,0.1497,0.0,0.0,0.2067,0.2286,0.2476,0.2614,0.2693,0.3062,0.3239,0.3239,0.3682,0.3911,0.3911,0.3911,0.3911,0.3897,0.3937,0.0,0.4127,0.0,0.4553,0.0,0.0,0.0,0.0,0.7291,0.8231,0.9008,0.9027,0.9065,0.9119,0.0,0.8874,0.0,0.0,0.0,0.0,0.0,0.0,0.0,0.0,0.0,0.0,0.0,0.0,0.0,0.8878,0.0,0.9812,0.0,0.0,0.0,0.0,0.0,0.0,0.0,1.247,0.0,0.0,0.0,1.5889,1.5558,0.0,1.6761,1.7505,1.7988,1.8732,1.9894,1.9418,1.9511,2.0461,2.0585,2.0805,2.1176,2.1684,2.2192,2.2709,2.2813,2.3081,2.3494,2.352,2.3775,2.4215,2.467,2.4849,2.4802,2.5208,2.5206,2.4866,2.4473,2.41,2.3705,2.3419,2.3212,2.3111,2.3014,2.2867,2.2685,0.0,0.0,0.0,0.0435,0.0323,0.0265,0.0483,0.0583,0.0605,0.0504,0.0336,0.0,0.0471,0.0421,0.0,0.0,0.0895,0.1034,0.0,0.0,0.1655,0.1937,0.2207,0.2412,0.2507,0.2865,0.3095,0.3181,0.3577,0.3828,0.3911,0.3911,0.3911,0.3905,0.4133,0.4179,0.4186,0.0,0.477,0.4679,0.5448,0.5822,0.6074,0.7253,0.8145,0.8773,0.8789,0.8543,0.8249,0.8562,0.8191,0.7746,0.8233,0.8207,0.8048,0.0,0.0,0.0,0.889,0.0,0.0,0.0,0.0,0.0,0.0,0.0,0.0,0.0,0.0,0.0,0.0,0.0,1.0638,1.1365,0.0,1.3186,0.0,1.4418,0.0,0.0,0.0,0.0,1.6715,1.6686,1.7272,1.877,1.8211,1.8329,1.9529,1.9372,1.9584,2.0282,2.0623,2.1224,2.2106,2.2163,2.233,2.2636,2.2644,2.2793,2.3138,2.3902,2.4249,2.4218,2.4887,2.5046,2.4766,2.4316,2.3946,2.3592,2.3042,2.2825,2.2807,2.2632,2.2569,2.2525,-0.018,-0.009,0.0,0.0,0.0,0.0265,0.0483,0.0518,0.0403,0.0067,0.0,0.0,0.0,0.0,0.0,0.0,0.0,0.0276,0.0153,0.0,0.098,0.1303,0.1772,0.2016,0.0,0.2476,0.2853,0.3111,0.3372,0.3647,0.3911,0.3911,0.3911,0.3905,0.3974,0.4298,0.4766,0.4651,0.511,0.5922,0.5705,0.6,0.6644,0.0,0.7715,0.7763,0.7761,0.7731,0.7645,0.7143,0.7134,0.7201,0.6525,0.6773,0.7327,0.0,0.0,0.0,0.8701,0.9563,1.0141,0.9239,0.9634,1.0071,0.0,0.0,0.9593,0.0,0.0,0.0,0.0,1.1568,1.2184,1.241,1.2983,0.0,0.0,0.0,0.0,0.0,0.0,0.0,0.0,1.614,1.6101,1.6299,1.5699,1.6035,1.7683,1.7042,1.7753,2.0215,1.9511,1.9511,2.0369,2.0385,2.0832,2.1733,2.1746,2.2227,2.3137,2.3874,2.4173,2.413,2.4678,2.4757,2.4512,2.4266,2.3919,2.3463,2.3206,2.2935,2.2685,2.2487,2.2432,2.2515,0.0,0.0,0.0,0.0,0.0,0.0247,0.0398,0.057,0.0538,0.0,0.0,0.0,0.0,-0.0067,-0.0101,0.0,0.0,0.0228,0.0033,0.0544,0.0,0.0,0.0,0.1943,0.0,0.2367,0.2677,0.3041,0.3302,0.3563,0.3842,0.3869,0.3911,0.3912,0.0,0.4501,0.0,0.0,0.0,0.0,0.0,0.5849,0.6407,0.6948,0.7109,0.702,0.6943,0.6904,0.685,0.6561,0.6443,0.6435,0.6468,0.6585,0.6777,0.7138,0.7674,0.8203,0.8428,0.8763,0.9037,0.8803,0.8913,0.9046,0.8755,0.8887,0.9063,0.0,0.0,0.0,0.0,1.1173,1.2047,1.2148,1.295,1.342,0.0,0.0,0.0,0.0,0.0,0.0,0.0,1.5623,1.6026,1.6731,1.6706,1.6922,1.7531,1.7273,1.7502,1.8412,1.8206,1.8482,1.9356,2.0031,2.0526,2.0834,2.0879,2.1069,2.1394,2.2101,2.2689,2.3208,2.3795,2.4185,2.4389,2.4023,2.3801,2.3646,2.3259,2.3042,2.291,2.2525,2.2405,2.2405,-0.021,0.0,0.0,0.0,0.0,0.0,0.0429,0.057,0.0,0.0,-0.0067,0.0,-0.0101,0.0,-0.0101,0.0,0.0067,0.0067,-0.0034,0.0318,0.0,0.1003,0.1407,0.0,0.0,0.2177,0.2494,0.2855,0.3218,0.3534,0.3808,0.3877,0.3911,0.392,0.0,0.4703,0.4568,0.0,0.5656,0.0,0.0,0.577,0.0,0.6344,0.6457,0.6366,0.606,0.596,0.5959,0.5783,0.5663,0.5652,0.5907,0.6052,0.623,0.6632,0.7139,0.763,0.7717,0.7895,0.8086,0.8052,0.7998,0.7968,0.8069,0.8416,0.8728,0.8778,0.9448,0.0,0.0,1.1318,1.2197,1.2236,1.2981,1.3295,0.0,1.222,0.0,0.0,0.0,0.0,0.0,0.0,1.5062,1.6028,1.6022,1.6376,1.7264,1.6725,1.681,1.7795,1.7335,1.7644,1.8854,1.9585,2.0083,2.0398,2.0468,2.0494,2.0522,2.1217,2.1814,2.2314,2.3214,2.3742,2.3982,2.3894,2.3821,2.3774,2.3376,2.3253,2.3182,2.2668,2.2388,2.2203,0.0,0.0,0.0,0.0,0.0325,0.0,0.0,0.0,0.0269,0.0,0.0101,0.0235,-0.0403,0.0101,0.0336,0.0,-0.0168,-0.0235,-0.0134,-0.0096,0.0,0.0,0.1086,0.1309,0.1325,0.1874,0.2333,0.0,0.0,0.0,0.3808,0.3856,0.389,0.0,0.4522,0.0,0.4944,0.5539,0.5874,0.5959,0.5959,0.5734,0.5383,0.5547,0.572,0.5736,0.5131,0.4979,0.5042,0.483,0.4825,0.4867,0.4866,0.5246,0.5637,0.569,0.6136,0.6623,0.6623,0.6965,0.7275,0.7055,0.6909,0.6869,0.7251,0.7889,0.8491,0.8674,0.9956,1.1075,1.1125,1.2018,1.2738,1.268,1.3022,1.2864,1.1674,0.0,0.0,0.0,0.0,0.0,0.0,0.0,1.3364,1.415,1.3748,0.0,0.0,1.5433,1.57,1.8172,1.6876,1.6977,1.8705,1.8954,1.953,2.0394,2.0469,2.0506,2.0523,2.1223,2.154,2.1575,2.2894,2.3361,2.3242,2.3824,2.3963,2.3774,2.3598,2.3486,2.3417,2.2816,2.2364,2.2027,-0.021,0.0,0.0206,0.0,0.0417,0.0484,0.0,0.0,0.0,0.0,0.0168,0.0235,-0.0101,0.0034,0.0,-0.0336,-0.0202,0.0,0.0,0.0,0.0,0.0672,0.0981,0.1333,0.1723,0.176,0.2147,0.2982,0.0,0.0,0.3731,0.38,0.3856,0.0,0.0,0.0,0.4884,0.5576,0.5749,0.5547,0.5491,0.5302,0.5011,0.4686,0.4691,0.488,0.4947,0.4928,0.4828,0.4479,0.4453,0.4609,0.4546,0.474,0.5017,0.53,0.5524,0.5701,0.5793,0.5355,0.5055,0.5736,0.5492,0.5308,0.6274,0.693,0.7398,0.7616,0.9159,1.0412,1.0385,1.2089,1.326,1.2507,1.2095,1.1431,0.0,0.0,0.0,0.9466,0.0,0.0,0.0,0.0,1.337,1.2988,1.4034,1.4936,1.5544,1.5742,1.5954,1.6159,1.6557,1.7012,1.7535,1.8482,1.9381,2.025,2.0363,2.0429,2.0423,2.0624,2.0992,2.1504,2.167,2.2297,2.3198,2.3216,2.3451,2.3795,2.3732,2.3558,2.3301,2.3028,2.2624,2.2298,-0.0255,0.0,0.0,0.0609,0.0,0.0,0.0513,0.0593,0.0,0.0067,0.0235,0.0,0.0034,0.0134,0.0134,-0.0034,0.0067,0.0,-0.0067,0.0,0.0,0.0773,0.0942,0.1258,0.1758,0.1789,0.0,0.2848,0.0,0.3255,0.3535,0.3717,0.0,0.0,0.0,0.4807,0.4884,0.5443,0.5554,0.5334,0.5144,0.4884,0.0,0.45,0.4346,0.4187,0.4539,0.4703,0.4725,0.4247,0.4291,0.4528,0.4518,0.4524,0.4608,0.5062,0.5265,0.5265,0.5221,0.4637,0.4216,0.4764,0.4285,0.3939,0.5007,0.5705,0.6263,0.6572,0.8058,0.9409,0.9852,1.115,1.2004,1.1605,1.1146,0.0,0.0,0.0,0.0,0.0,0.8987,0.0,0.0,1.1803,1.253,1.1855,1.294,1.3844,1.4286,1.4984,1.5277,1.5064,1.5791,1.6243,1.6362,1.7501,1.855,1.9503,1.9954,2.0238,2.0355,2.0398,2.0603,2.0983,2.1203,2.1623,2.2154,2.2293,2.2502,2.2835,2.3159,2.3354,2.3458,2.3342,2.2867,2.2309,-0.0299,0.0,0.0,0.0,0.0,0.0,0.0,0.0611,0.0,0.0102,0.0,0.0446,0.0103,0.0309,0.048,0.0442,0.0,0.0406,0.0606,0.0471,0.0538,0.0875,0.0908,0.1142,0.1642,0.1925,0.2224,0.0,0.3081,0.3287,0.3247,0.3584,0.0,0.0,0.0,0.0,0.0,0.5201,0.5264,0.5151,0.4852,0.4494,0.4172,0.4492,0.423,0.373,0.3987,0.4361,0.4652,0.4057,0.4163,0.4541,0.4486,0.4316,0.4228,0.4709,0.4918,0.4908,0.4604,0.4232,0.3915,0.3949,0.3246,0.28,0.3686,0.4417,0.5022,0.5493,0.6815,0.8203,0.9241,0.9836,1.0225,1.0454,0.0,0.0,0.0,0.0,0.0,0.0,0.0,0.0,0.0,0.0,0.0,0.0,1.1352,1.2122,1.3143,1.377,1.4214,1.4383,1.4857,1.5208,1.5402,1.6392,1.7479,1.8612,1.9462,2.0009,2.0254,2.0347,2.0363,2.0336,2.1022,2.1128,2.0834,2.1263,2.148,2.1673,2.2298,2.3016,2.37,2.3678,2.3098,2.2303,0.0,0.0,0.0,0.0,0.0,0.1362,0.1326,0.115,0.0827,0.0395,0.0707,0.084,0.0383,0.0383,0.0301,0.0036,0.018,0.0,0.0,0.0,0.0,0.0808,0.0875,0.1209,0.1911,0.192,0.2253,0.0,0.2909,0.293,0.2965,0.3254,0.3429,0.0,0.0,0.0,0.4908,0.4903,0.0,0.4543,0.4371,0.4086,0.3779,0.3689,0.363,0.3605,0.3565,0.3894,0.4312,0.3823,0.3947,0.4239,0.396,0.3588,0.33,0.3615,0.3429,0.3155,0.3205,0.2822,0.2486,0.3004,0.2402,0.1996,0.3163,0.3375,0.3524,0.4317,0.5738,0.7083,0.7828,0.963,1.0787,1.0136,0.9833,0.0,0.0,0.0,0.0,0.0,0.0,0.7148,0.0,0.0,0.0,0.0,0.0,1.1515,1.2584,1.3328,1.3576,1.3285,1.4521,1.5265,1.5414,1.6089,1.7169,1.8606,1.9374,1.9854,2.0063,2.0243,2.0309,2.0307,2.0325,2.0515,2.0774,2.0541,2.1113,2.2164,2.2246,2.2847,2.3678,2.3526,2.3324,2.3074,0.0,0.0,0.0,0.0,0.0,0.0,0.0,0.1698,0.148,0.1139,0.1274,0.133,0.1097,0.1059,0.0923,0.0512,0.062,0.0571,0.027,0.037,0.0571,0.0774,0.0808,0.1108,0.1778,0.1728,0.2026,0.2691,0.2623,0.267,0.2844,0.2973,0.3083,0.3165,0.0,0.4347,0.0,0.0,0.4403,0.428,0.4021,0.3795,0.3527,0.3424,0.3446,0.3481,0.3416,0.3819,0.4286,0.3724,0.3763,0.3983,0.3632,0.3214,0.2948,0.3435,0.3255,0.2946,0.2812,0.2771,0.2674,0.2309,0.2001,0.1959,0.2512,0.2754,0.2987,0.3514,0.461,0.5833,0.7107,0.9068,1.0213,0.9414,0.9073,0.0,0.0,0.0,0.0,0.0,0.0,0.0,0.0,0.0,0.0,0.0,0.0,1.0701,1.1772,1.2329,1.2623,1.2686,1.3505,1.4106,1.4412,1.5044,1.6108,1.7629,1.8705,1.9487,1.9961,2.0188,2.0243,2.0134,2.0035,2.0025,1.9993,1.9592,1.9888,2.0683,2.1344,2.2131,2.2936,2.298,2.3164,2.3348,0.0,0.0776,0.0,0.0,0.1939,0.1977,0.2206,0.2268,0.2132,0.172,0.1725,0.1775,0.1696,0.1696,0.1545,0.1172,0.1129,0.0953,0.0584,0.0547,0.0613,0.0774,0.0739,0.0973,0.154,0.1473,0.1724,0.2236,0.2243,0.2316,0.2494,0.2572,0.2678,0.282,0.0,0.3868,0.4242,0.4113,0.4081,0.4011,0.375,0.3528,0.3412,0.3324,0.337,0.3517,0.3517,0.3858,0.4277,0.3837,0.3825,0.3865,0.3483,0.304,0.2773,0.3347,0.3258,0.2904,0.2729,0.2988,0.3083,0.2071,0.1941,0.2102,0.2152,0.2416,0.2699,0.2925,0.3658,0.4744,0.6237,0.8049,0.9085,0.8442,0.829,0.0,0.0,0.0,0.0,0.0,0.0,0.0,0.7337,0.0,0.0,0.0,0.0,1.0038,1.0825,1.1249,1.1555,1.1722,1.208,1.2478,1.2951,1.3652,1.4792,1.6297,1.7843,1.8942,1.96,2.0057,2.0165,1.9996,1.9897,1.9607,1.9178,1.8843,1.8926,1.9364,2.0315,2.1231,2.205,2.2216,2.2632,2.3026,0.0,0.0,0.0,0.0,0.0,0.2362,0.2622,0.2727,0.2544,0.172,0.1855,0.1945,0.1638,0.1595,0.1611,0.154,0.1327,0.1158,0.1057,0.076,0.0638,0.0708,0.0706,0.0906,0.1305,0.1338,0.1432,0.0,0.0,0.1602,0.1459,0.1804,0.2159,0.2459,0.2765,0.2951,0.3097,0.3495,0.363,0.3547,0.3392,0.3389,0.3465,0.3078,0.3308,0.3857,0.3857,0.3967,0.4168,0.4256,0.42,0.4001,0.3391,0.2904,0.2595,0.2865,0.2593,0.2233,0.246,0.26,0.2656,0.2547,0.2304,0.2182,0.2561,0.2383,0.2236,0.2507,0.3259,0.4034,0.454,0.6276,0.7512,0.7218,0.7649,0.7534,0.0,0.0,0.0,0.0,0.0,0.0,0.0,0.7477,0.0,0.0,0.9782,0.9964,0.975,1.0347,1.0325,0.9542,1.0174,1.0747,1.1228,1.2033,1.326,1.5007,1.6946,1.8109,1.858,1.9642,2.0078,1.9996,1.9796,1.9392,1.8825,1.8734,1.914,1.981,1.9696,2.0395,2.1468,2.131,2.1444,2.1674,0.0,0.0,0.1551,0.2123,0.2403,0.2623,0.2783,0.2882,0.276,0.2406,0.248,0.2551,0.2375,0.2375,0.2288,0.2021,0.1927,0.1673,0.1185,0.0963,0.0795,0.0707,0.0582,0.0672,0.1007,0.0973,0.1094,0.1423,0.1314,0.132,0.1481,0.1515,0.1674,0.1924,0.2081,0.237,0.2794,0.2896,0.317,0.349,0.3442,0.3424,0.3425,0.339,0.3633,0.3978,0.4048,0.4262,0.4521,0.4426,0.4232,0.3965,0.3785,0.3296,0.2857,0.335,0.3258,0.3031,0.3167,0.3581,0.3853,0.3296,0.3176,0.3121,0.2888,0.2703,0.2504,0.2311,0.2217,0.2266,0.2492,0.3896,0.5042,0.5242,0.5945,0.616,0.0,0.0,0.0,0.0,0.0,0.0,0.0,0.0,0.0,0.0,0.0,0.8364,0.9198,0.7355,0.6138,0.5843,0.4221,0.4518,0.7008,0.7441,0.9855,1.4211,1.5823,1.738,1.8851,1.958,1.9837,1.9688,1.9434,1.9178,1.8895,1.8753,1.8857,1.9159,1.9575,2.0045,2.0508,2.0586,2.1043,2.1552,-0.0129,0.0726,0.154,0.2137,0.248,0.2681,0.2854,0.2912,0.2868,0.2776,0.2776,0.2821,0.2912,0.2912,0.2742,0.2357,0.2222,0.1846,0.1202,0.097,0.0795,0.0634,0.0461,0.0482,0.0724,0.0644,0.0738,0.1039,0.0903,0.0939,0.1195,0.1088,0.1192,0.1483,0.1641,0.2047,0.2693,0.2755,0.3064,0.3526,0.3538,0.3551,0.3573,0.3655,0.3882,0.4143,0.4403,0.4709,0.5019,0.4971,0.4792,0.453,0.418,0.3649,0.33,0.3877,0.3883,0.3756,0.3928,0.4348,0.4541,0.3841,0.3759,0.3699,0.3189,0.2913,0.2504,0.1569,0.0467,-0.0209,0.0288,0.059,0.1045,0.1903,0.2358,0.2381,0.1743,0.2093,0.0,0.0,0.3704,0.407,0.494,0.4618,0.0,0.0,0.0,0.5642,0.7888,0.4857,0.2894,0.2576,-0.0516,-0.0819,0.206,0.3381,0.6504,1.1415,1.4237,1.6571,1.8495,1.9426,1.9722,1.949,1.9289,1.918,1.9113,1.8998,1.8911,1.893,1.9471,1.9741,1.983,1.9951,2.0448,2.0984,0.0223,0.0895,0.1477,0.2018,0.2328,0.2593,0.2868,0.2912,0.2821,0.2551,0.2504,0.2595,0.2868,0.2912,0.2732,0.2324,0.2014,0.1583,0.1051,0.0672,0.0494,0.0393,0.0337,0.0364,0.0509,0.0449,0.0403,0.0403,0.0403,0.0326,0.0215,0.0338,0.0699,0.1211,0.1542,0.2036,0.2645,0.3246,0.3525,0.3597,0.3609,0.3724,0.3876,0.3759,0.3998,0.4459,0.5015,0.5329,0.5577,0.6081,0.6289,0.599,0.4399,0.388,0.3968,0.4303,0.4219,0.4082,0.45,0.4464,0.4253,0.4132,0.3907,0.3673,0.351,0.2937,0.1899,0.0099,-0.2177,-0.3412,-0.2017,-0.3803,-0.4906,-0.3104,-0.3648,-0.4397,-0.474,-0.4726,0.0,-0.0141,-0.2648,-0.3145,0.0706,-0.2161,0.0,0.0,0.0,0.1716,0.5449,0.3459,0.1571,0.0192,-0.2719,-0.3985,-0.3404,0.0669,0.3717,0.5778,1.2028,1.5678,1.6999,1.9061,1.9815,1.9509,1.9504,1.9462,1.9409,1.9458,1.9485,1.9472,1.9276,1.9357,1.9569,1.9317,1.9382,1.9633,-0.0179,0.0313,0.0671,0.1074,0.1567,0.1927,0.2016,0.2196,0.2333,0.2241,0.2016,0.2016,0.2333,0.2241,0.2059,0.183,0.1655,0.1381,0.1098,0.0811,0.0667,0.0822,0.0393,0.0384,0.0845,0.0567,0.0375,0.0337,0.0375,0.0372,0.0329,0.0366,0.0652,0.114,0.1326,0.1846,0.254,0.2789,0.3169,0.3617,0.3637,0.3803,0.3979,0.4078,0.4383,0.4829,0.5159,0.5503,0.5867,0.613,0.6221,0.6101,0.5345,0.4993,0.4905,0.5111,0.5033,0.4896,0.494,0.5037,0.5015,0.4543,0.4308,0.3975,0.3208,0.1996,0.0598,-0.089,-0.3096,-0.4768,-0.4684,-0.5972,-0.6752,-0.5904,-0.5153,-0.4959,-0.5805,-0.489,-0.3997,-0.3654,-0.404,-0.402,-0.3236,-0.4156,0.0,0.0,-0.3443,-0.2174,0.1582,-0.0732,-0.3602,-0.6757,-0.9452,-0.9918,-0.7959,-0.3998,0.0684,0.6074,1.1342,1.5609,1.8907,1.9554,1.9713,1.9423,1.9243,1.9289,1.9476,1.9425,1.9529,1.9693,1.9582,1.9582,1.9669,1.9619,1.971,1.9858,-0.0269,-0.0045,0.0089,0.0492,0.0895,0.1162,0.1162,0.1341,0.1477,0.1478,0.1299,0.1254,0.1478,0.1389,0.1343,0.1474,0.1253,0.1119,0.103,0.0872,0.0903,0.1118,0.0783,0.0806,0.121,0.0792,0.055,0.0511,0.0354,0.0275,0.0314,0.0549,0.0888,0.1352,0.1661,0.2212,0.2879,0.299,0.331,0.3777,0.3899,0.4049,0.4215,0.4322,0.4539,0.484,0.5178,0.5508,0.5817,0.6115,0.6255,0.6266,0.6057,0.5805,0.5579,0.5564,0.5375,0.5105,0.5147,0.5039,0.4807,0.4317,0.398,0.3421,0.2093,0.0864,-0.0431,-0.1908,-0.3988,-0.5539,-0.5579,-0.765,-0.8992,-0.7881,-0.797,-0.8425,-0.9158,-0.8314,-0.7446,0.0,-0.7735,-0.7776,-0.6392,-0.7864,-0.8198,-0.6443,-0.7068,-0.6498,-0.4151,-0.5601,-0.7675,-1.0228,-1.3023,-1.3635,-1.1921,-0.6547,-0.1232,0.4036,1.1481,1.6725,1.9846,1.9896,1.9738,1.9438,1.9289,1.9346,1.9526,1.9526,1.967,1.9866,1.9824,1.9805,1.9828,1.9869,1.9933,2.0022,-0.0135,-0.0269,-0.0404,0.0179,0.0313,0.0358,0.0312,0.0356,0.0401,0.0358,0.0358,0.0358,0.0492,0.0492,0.0672,0.1254,0.0895,0.0716,0.0895,0.0851,0.103,0.1389,0.138,0.1434,0.1603,0.1135,0.0873,0.0834,0.0317,0.0119,0.0277,0.0751,0.1262,0.1771,0.2366,0.2949,0.3479,0.3648,0.3871,0.4108,0.4232,0.4364,0.4499,0.4499,0.4495,0.457,0.5072,0.5313,0.5482,0.5954,0.6258,0.641,0.6389,0.6229,0.5986,0.5736,0.53,0.4894,0.5073,0.4588,0.3923,0.351,0.2987,0.2128,0.0466,-0.0333,-0.1192,-0.2838,-0.4727,-0.5875,-0.5146,-0.8795,-1.1225,-0.9047,-1.1349,-1.3465,-1.3622,-1.3725,-1.2725,-0.9907,-1.2972,-1.3563,-0.9127,-1.2766,-1.3847,-1.0094,-1.0563,-1.0994,-1.0949,-1.0755,-1.0766,-1.1022,-1.3865,-1.5313,-1.5116,-0.7246,-0.1775,0.1356,1.2623,1.8679,1.9912,2.0031,1.9874,1.9523,1.9572,1.9612,1.9606,1.9688,1.9835,2.0004,2.0004,2.0007,2.0019,2.0019,2.0059,2.0088,-0.0946,-0.1103,-0.1254,-0.1035,-0.0505,-0.0232,-0.0539,-0.0045,0.0268,-0.0179,-0.0268,-0.0089,0.0447,0.0179,0.0269,0.1074,0.0628,0.0449,0.0718,0.0494,0.0673,0.1389,0.1066,0.1149,0.1723,0.1007,0.0523,0.0349,0.0479,0.0608,0.0739,0.0956,0.1534,0.2314,0.2689,0.3034,0.3358,0.3727,0.3891,0.3972,0.4188,0.432,0.4364,0.4364,0.4491,0.4698,0.4895,0.5153,0.541,0.5497,0.5569,0.5621,0.5282,0.5145,0.5172,0.5507,0.5457,0.5138,0.452,0.4247,0.3914,0.2918,0.1999,0.1071,0.0167,-0.0467,-0.1265,-0.2692,-0.4588,-0.6012,-0.5973,-0.8317,-0.9921,-0.8874,-0.9082,-0.9567,-1.0105,-1.0935,-1.1455,-1.1396,-1.3756,-1.4939,-1.3808,-1.4739,-1.4743,-1.3125,-1.3803,-1.3998,-1.3322,-1.3873,-1.4223,-1.4293,-1.5009,-1.5389,-1.5326,-0.7234,0.1754,1.1467,1.6645,1.9448,2.004,1.9981,1.9806,1.9572,1.9536,1.9591,1.9688,1.9748,1.9931,2.0144,2.0144,2.018,2.0222,2.0171,2.0162,2.0171,-0.1466,-0.1781,-0.2041,-0.1474,-0.1186,-0.0944,-0.0924,-0.0453,-0.0179,-0.0358,-0.0447,-0.0313,0.0134,0.0179,0.0359,0.0805,0.0537,0.0538,0.0987,0.0852,0.1032,0.1703,0.1481,0.1527,0.1928,0.1257,0.0807,0.0628,0.0896,0.1118,0.134,0.1609,0.2075,0.2722,0.3049,0.3349,0.3584,0.38,0.3968,0.41,0.4192,0.4232,0.4272,0.4232,0.4295,0.4382,0.4459,0.4744,0.5054,0.4882,0.5066,0.528,0.4818,0.4708,0.4825,0.4841,0.4766,0.452,0.3978,0.3658,0.3261,0.2233,0.1338,0.0504,-0.01,-0.0568,-0.1235,-0.2431,-0.3772,-0.4798,-0.5023,-0.6782,-0.7927,-0.7134,-0.7284,-0.7688,-0.8239,-0.9564,-1.0696,-1.1333,-1.3764,-1.5085,-1.4286,-1.4935,-1.5043,-1.4177,-1.4902,-1.5192,-1.4715,-1.5131,-1.5582,-1.5971,-1.5992,-1.6165,-1.6543,-0.6539,0.4173,1.5399,1.817,1.9723,2.0143,2.0007,1.9844,1.965,1.9559,1.9599,1.9713,1.9783,1.9943,2.0153,2.018,2.0197,2.0188,2.005,2.0022,2.0002,-0.1902,-0.2327,-0.2486,-0.1666,-0.1527,-0.1399,-0.0961,-0.07,-0.0547,-0.0456,-0.041,-0.0318,-0.0136,0.0406,0.0675,0.0627,0.0626,0.085,0.1344,0.1344,0.1478,0.1928,0.1973,0.1975,0.202,0.1703,0.1433,0.1119,0.1387,0.1655,0.1875,0.2324,0.2679,0.299,0.3398,0.3707,0.3884,0.391,0.405,0.4276,0.4219,0.4227,0.4353,0.4199,0.4097,0.4093,0.4065,0.4302,0.4605,0.4389,0.466,0.5079,0.4618,0.452,0.4501,0.4039,0.3728,0.3526,0.3438,0.294,0.2311,0.1609,0.0906,0.0269,-0.0234,-0.0569,-0.1035,-0.1996,-0.2633,-0.3101,-0.3286,-0.4733,-0.5595,-0.47,-0.5462,-0.6294,-0.6617,-0.8245,-0.9661,-1.0324,-1.3048,-1.4438,-1.3299,-1.4529,-1.5082,-1.4349,-1.498,-1.5408,-1.5395,-1.4963,-1.5301,-1.6638,-1.6699,-1.6352,-1.5616,-0.4928,0.5682,1.6015,1.8414,1.9777,2.0205,2.0079,1.9912,1.9744,1.9701,1.9713,1.9762,1.9828,1.9972,2.0126,2.018,2.0162,2.0108,1.9912,1.985,1.9817,-0.2734,-0.2427,-0.2141,-0.1923,-0.1131,-0.0622,-0.0854,-0.0398,-0.0149,-0.0545,-0.0446,-0.0147,0.0284,0.0613,0.0884,0.1167,0.1164,0.1208,0.1299,0.0985,0.094,0.1254,0.1344,0.1523,0.1658,0.2103,0.1923,0.1119,0.1698,0.2055,0.2235,0.2415,0.2815,0.335,0.3534,0.3663,0.3751,0.4031,0.414,0.4148,0.443,0.454,0.4521,0.4326,0.4345,0.4401,0.4288,0.4322,0.4448,0.4332,0.4362,0.4446,0.4302,0.3948,0.3576,0.3436,0.3111,0.28,0.2941,0.2172,0.1345,0.1278,0.0773,0.0235,-0.0067,-0.0201,-0.0402,-0.1001,-0.1733,-0.2203,-0.204,-0.2826,-0.3282,-0.2594,-0.2616,-0.2786,-0.2841,-0.455,-0.6595,-0.8766,-1.1089,-1.3175,-1.4834,-1.5243,-1.5338,-1.5215,-1.5311,-1.5404,-1.5395,-1.293,-1.3087,-1.6503,-1.6675,-1.295,-0.5135,-0.12,0.602,1.6428,1.8749,1.9967,2.0193,2.0108,2.0039,1.9971,1.9998,2.0039,2.003,2.0107,2.0197,2.0254,2.0214,2.0241,2.0246,2.0117,2.005,2.002,-0.2294,-0.2597,-0.2557,-0.1499,-0.1028,-0.0648,-0.0261,0.0102,0.0302,0.0151,0.0252,0.03,0.0246,0.0638,0.0878,0.0766,0.1052,0.1196,0.1148,0.1009,0.0985,0.1074,0.1164,0.1267,0.1435,0.194,0.2104,0.1816,0.2245,0.2597,0.2771,0.2912,0.3152,0.3401,0.3611,0.3785,0.3883,0.4186,0.4356,0.4364,0.4436,0.4565,0.4701,0.4424,0.4435,0.4489,0.4451,0.4529,0.4675,0.4381,0.455,0.4726,0.4156,0.3933,0.378,0.3394,0.2892,0.2474,0.2733,0.2135,0.1421,0.1464,0.1031,0.0538,0.0269,0.0067,-0.0134,-0.0402,-0.1036,-0.1538,-0.141,-0.194,-0.2249,-0.1807,-0.1807,-0.189,-0.197,-0.3733,-0.595,-0.8512,-1.0728,-1.2935,-1.5188,-1.5397,-1.4824,-1.3469,-1.3112,-1.2351,-1.0949,-0.9155,-0.9254,-1.1677,-1.5845,-1.4656,-0.756,-0.2447,0.4213,1.2421,1.7471,1.999,2.0153,1.9857,1.9817,1.9982,1.9801,1.9866,2.0108,2.0197,2.027,2.0292,2.032,2.0302,2.0269,2.0143,2.0031,1.9901,-0.1725,-0.235,-0.2519,-0.1009,-0.084,-0.061,0.0271,0.0527,0.0672,0.0827,0.0827,0.067,0.0358,0.0715,0.0865,0.0504,0.0908,0.1109,0.0958,0.1002,0.1014,0.1014,0.1106,0.1169,0.1303,0.1791,0.212,0.2319,0.2622,0.2928,0.3175,0.3322,0.3413,0.3501,0.3701,0.3894,0.405,0.4352,0.4522,0.458,0.4564,0.4626,0.477,0.4534,0.4515,0.463,0.4586,0.4734,0.4843,0.4617,0.4726,0.4857,0.4211,0.4033,0.3933,0.3382,0.268,0.2192,0.2573,0.2184,0.1684,0.1659,0.1235,0.0717,0.0539,0.0269,0.0067,0.0034,-0.0503,-0.0972,-0.1009,-0.1378,-0.165,-0.1635,-0.1688,-0.1816,-0.2013,-0.3408,-0.5296,-0.7716,-0.9435,-1.1261,-1.3394,-1.3602,-1.2764,-1.074,-1.0245,-0.9097,-0.6936,-0.5552,-0.5253,-0.6181,-1.3988,-1.5642,-1.042,-0.3755,0.2624,0.8726,1.6311,1.9993,2.0068,1.9701,1.971,1.9982,1.9713,1.979,2.0129,2.0269,2.0327,2.034,2.0385,2.0371,2.0315,2.02,2.0049,1.9888,-0.1846,-0.14,-0.1065,-0.0898,-0.0336,0.0168,0.0391,0.0557,0.0724,0.0891,0.0891,0.088,0.0905,0.0955,0.0995,0.0961,0.1009,0.0958,0.0806,0.0802,0.08,0.08,0.105,0.1252,0.1407,0.1816,0.2021,0.2021,0.2522,0.2866,0.3003,0.3255,0.355,0.3784,0.3794,0.3953,0.4218,0.4525,0.4647,0.4606,0.4804,0.4863,0.4845,0.4537,0.4672,0.5046,0.4939,0.4725,0.459,0.5066,0.4706,0.4075,0.4558,0.4249,0.3573,0.3047,0.2256,0.165,0.2481,0.218,0.161,0.1617,0.1016,0.0429,0.0408,0.0336,0.0303,0.0336,-0.0067,-0.0537,-0.0773,-0.0908,-0.1196,-0.1866,-0.1935,-0.1969,-0.2147,-0.2426,-0.3268,-0.507,-0.5377,-0.618,-0.808,-0.8257,-0.8064,-0.7564,-0.7497,-0.7116,-0.6295,-0.3321,-0.1765,-0.2041,-1.0485,-1.2347,-0.6747,-0.2389,0.2591,0.8244,1.6256,2.005,2.0012,1.9982,1.9979,2.0004,2.0096,2.016,2.0189,2.0335,2.038,2.0389,2.039,2.0395,2.0383,2.0302,2.0276,2.0214,-0.0896,-0.0952,-0.0952,-0.0449,0.0,0.028,0.028,0.0393,0.0561,0.0729,0.0785,0.0837,0.0936,0.0936,0.093,0.0918,0.1293,0.1453,0.14,0.14,0.1215,0.0808,0.1083,0.1305,0.1358,0.1708,0.1943,0.2103,0.2316,0.2607,0.3017,0.3123,0.3394,0.3677,0.3859,0.4004,0.4227,0.4638,0.4807,0.4815,0.4933,0.5069,0.512,0.4834,0.4848,0.5062,0.4938,0.4903,0.4835,0.4574,0.4402,0.42,0.3949,0.3748,0.3502,0.2945,0.2231,0.1789,0.2512,0.2324,0.1952,0.2163,0.1816,0.1379,0.1145,0.094,0.0739,0.0605,0.0303,-0.0101,-0.0538,-0.0739,-0.0982,-0.1482,-0.1834,-0.2024,-0.2068,-0.227,-0.3141,-0.5126,-0.5046,-0.5674,-0.7799,-0.7675,-0.6757,-0.5086,-0.4584,-0.3418,-0.1283,0.0407,0.1568,0.2154,-0.3756,-0.8109,-1.0558,-0.2028,0.2194,0.2141,1.2498,1.7797,1.8438,1.8144,1.8609,1.9626,1.9548,1.9735,2.0093,2.0302,2.0408,2.0406,2.0445,2.0445,2.0404,2.0414,2.0367,2.0274,-0.028,-0.056,-0.0672,-0.0112,0.0112,0.0224,0.0224,0.028,0.0393,0.0561,0.0673,0.0729,0.0842,0.0898,0.0898,0.0898,0.1232,0.1455,0.1512,0.1512,0.1317,0.0837,0.1069,0.1246,0.1246,0.1552,0.1852,0.2017,0.224,0.2544,0.2915,0.3184,0.3464,0.3755,0.3953,0.4154,0.4321,0.4743,0.4897,0.4897,0.5011,0.5069,0.5128,0.4901,0.4849,0.4963,0.4849,0.4846,0.4776,0.4452,0.4216,0.4003,0.3641,0.3266,0.2934,0.2613,0.2108,0.179,0.2398,0.2364,0.2221,0.2493,0.2278,0.1887,0.1581,0.1341,0.1142,0.0808,0.0571,0.0202,-0.0538,-0.0739,-0.1013,-0.1611,-0.2065,-0.2326,-0.2301,-0.2472,-0.3011,-0.4113,-0.3884,-0.4165,-0.549,-0.5191,-0.417,-0.235,-0.1726,-0.0377,0.2093,0.2914,0.3711,0.4491,0.1738,-0.2738,-0.8938,-0.0353,0.2829,0.0685,1.0923,1.6399,1.75,1.7175,1.7868,1.9297,1.9245,1.9483,1.9932,2.0192,2.0363,2.0428,2.0465,2.0446,2.0409,2.0448,2.0401,2.0333,-0.0224,-0.0112,0.0,0.0,0.0,0.0056,0.0168,0.0224,0.0224,0.0393,0.0561,0.0673,0.0673,0.0842,0.0898,0.0898,0.0785,0.0785,0.0898,0.0898,0.0898,0.0898,0.101,0.1122,0.1122,0.1403,0.1628,0.1628,0.2355,0.2691,0.2747,0.3463,0.3852,0.4024,0.4138,0.4301,0.4519,0.4791,0.4897,0.4897,0.4897,0.4897,0.4846,0.4625,0.4574,0.4691,0.4691,0.4463,0.4288,0.4901,0.4184,0.3186,0.3799,0.2945,0.1741,0.2034,0.1716,0.1462,0.2125,0.2296,0.2318,0.2455,0.2111,0.1685,0.1528,0.1507,0.1375,0.0907,0.0739,0.0336,-0.0875,-0.0942,-0.1196,-0.241,-0.2699,-0.2824,-0.2886,-0.3014,-0.2636,-0.1438,-0.1176,-0.0808,-0.0067,0.0168,0.0437,0.0773,0.0976,0.1642,0.2834,0.378,0.4382,0.4608,0.5179,0.3808,0.0307,0.3033,0.4776,0.5567,1.2461,1.6368,1.7482,1.7482,1.8072,1.9109,1.9384,1.9584,1.9715,1.9993,2.0263,2.0495,2.0432,2.0391,2.0402,2.0391,2.041,2.0381,-0.0224,-0.0112,0.0,0.0,0.0056,0.0112,0.0056,0.0112,0.0224,0.028,0.0336,0.0393,0.0505,0.0505,0.0561,0.0561,0.0896,0.1175,0.1399,0.1455,0.1344,0.0898,0.101,0.1122,0.1122,0.1403,0.1684,0.1905,0.2184,0.2575,0.2965,0.3355,0.3691,0.4024,0.4138,0.4301,0.4519,0.4684,0.4743,0.4743,0.4846,0.4897,0.4901,0.4684,0.4688,0.4688,0.4577,0.4574,0.4519,0.4353,0.4128,0.3793,0.3463,0.2619,0.1741,0.1885,0.1522,0.118,0.1943,0.208,0.2134,0.2724,0.2592,0.2313,0.2278,0.2068,0.1778,0.1477,0.1108,0.0605,-0.0134,-0.0504,-0.0979,-0.1712,-0.2161,-0.2453,-0.2472,-0.2408,-0.2178,-0.1778,-0.1074,-0.0538,-0.0303,0.0235,0.0639,0.0774,0.1378,0.1978,0.2507,0.3089,0.381,0.4711,0.5275,0.5766,0.623,0.6558,0.5928,0.4441,0.9845,1.3698,1.6026,1.5829,1.6959,1.9101,1.9182,1.9518,2.0009,2.023,2.0392,2.0508,2.0482,2.0444,2.0411,2.0448,2.0438,2.0401,-0.0224,-0.0112,0.0,0.0,0.0056,0.0112,0.0,0.0056,0.0112,0.0112,0.0168,0.0224,0.0336,0.0393,0.0393,0.0393,0.0784,0.1064,0.1119,0.1344,0.14,0.1288,0.1345,0.1289,0.101,0.1347,0.1626,0.1902,0.224,0.2631,0.313,0.3411,0.3688,0.4024,0.4138,0.4301,0.4519,0.4632,0.4691,0.4691,0.4739,0.4791,0.4794,0.4577,0.4577,0.4632,0.4519,0.4574,0.4688,0.4408,0.4349,0.4125,0.3074,0.2435,0.197,0.1879,0.1555,0.1433,0.2207,0.2284,0.2283,0.2927,0.2893,0.268,0.2664,0.2446,0.2133,0.1854,0.1408,0.0873,0.0235,-0.0202,-0.0638,-0.1171,-0.1605,-0.1873,-0.1911,-0.1878,-0.1709,-0.1305,-0.0737,-0.0269,0.0034,0.0471,0.0808,0.0976,0.1613,0.2045,0.2208,0.2763,0.3463,0.4303,0.5297,0.6693,0.8541,0.8356,0.7828,0.7068,1.0382,1.3109,1.5296,1.5499,1.6786,1.8872,1.9031,1.9443,1.9993,2.0167,2.032,2.0463,2.0466,2.0441,2.0399,2.0482,2.0473,2.0449,-0.0224,-0.0112,-0.0056,-0.0112,-0.0112,-0.0056,-0.0056,-0.0056,-0.0056,0.0,0.0112,0.0168,0.0168,0.028,0.0336,0.0336,0.0561,0.0617,0.0393,0.0785,0.1232,0.179,0.1846,0.1623,0.1065,0.129,0.1569,0.1902,0.2465,0.2856,0.3132,0.3574,0.3852,0.3965,0.4138,0.4301,0.4463,0.4577,0.4636,0.4636,0.4519,0.4519,0.4581,0.4304,0.4301,0.4463,0.4463,0.4522,0.4688,0.4791,0.468,0.4184,0.2794,0.2403,0.2367,0.1866,0.1721,0.1884,0.2598,0.2595,0.2549,0.3037,0.295,0.2775,0.2704,0.2612,0.2381,0.1964,0.154,0.1039,0.0302,0.0,-0.0269,-0.0736,-0.1003,-0.1204,-0.1239,-0.1373,-0.1171,-0.0401,-0.0302,0.0,0.0739,0.084,0.1009,0.1346,0.1713,0.1945,0.1945,0.2728,0.3341,0.3659,0.5286,0.6796,0.819,0.8929,1.0157,1.1915,1.2877,1.3972,1.5238,1.6102,1.7238,1.8538,1.8939,1.9378,1.9828,1.9964,2.0172,2.0399,2.0392,2.0373,2.0392,2.045,2.0473,2.0486,-0.0336,-0.0224,-0.028,-0.0785,-0.0785,-0.0729,-0.0729,-0.0729,-0.0561,-0.0056,0.0,0.0056,0.0056,0.0056,0.0112,0.0112,0.0336,0.0449,0.0393,0.1176,0.168,0.179,0.2235,0.2458,0.2291,0.2127,0.2294,0.2796,0.2745,0.297,0.3471,0.3688,0.3796,0.3852,0.4079,0.4249,0.4249,0.4304,0.4304,0.4304,0.419,0.4135,0.4135,0.4079,0.4079,0.4132,0.4132,0.4135,0.419,0.4463,0.4294,0.3907,0.3688,0.2932,0.2164,0.2064,0.1669,0.1344,0.1746,0.1837,0.1925,0.2504,0.2602,0.256,0.2631,0.2247,0.187,0.1749,0.1308,0.084,0.0605,0.0202,-0.0134,-0.0269,-0.0603,-0.0904,-0.0974,-0.0603,-0.0334,-0.0301,0.0201,0.0639,0.0841,0.1243,0.1577,0.1747,0.2111,0.2308,0.2308,0.2676,0.3335,0.4266,0.564,0.6929,0.8202,0.9829,1.1394,1.283,1.2793,1.3912,1.6053,1.6347,1.7291,1.8664,1.8974,1.9401,1.9898,2.0142,2.0308,2.0392,2.028,2.0238,2.0231,2.0196,2.025,2.0367,-0.0393,-0.028,-0.0393,-0.101,-0.101,-0.0898,-0.0898,-0.0898,-0.0673,-0.0056,0.0,0.0,0.0,0.0,0.0,0.0,0.0168,0.028,0.028,0.112,0.168,0.1959,0.2685,0.3019,0.3019,0.2683,0.2685,0.2905,0.2745,0.2914,0.3357,0.3408,0.3519,0.3633,0.3577,0.3688,0.391,0.3744,0.3747,0.3802,0.3519,0.3405,0.3405,0.3405,0.3519,0.3744,0.3796,0.391,0.4135,0.4301,0.4298,0.4187,0.3907,0.3197,0.2463,0.2163,0.1621,0.1208,0.17,0.1612,0.1521,0.2101,0.1981,0.1885,0.2536,0.2297,0.192,0.1812,0.128,0.0846,0.0796,0.0436,0.018,0.0281,0.0,-0.0207,-0.0101,0.0101,0.0335,0.0534,0.0904,0.1208,0.144,0.184,0.2109,0.2178,0.2543,0.2643,0.2374,0.2787,0.3297,0.3915,0.5453,0.6754,0.7813,0.9532,1.1265,1.2978,1.3491,1.4419,1.5709,1.6681,1.7611,1.8482,1.8797,1.9255,1.9791,2.006,2.0196,2.025,2.0215,2.0103,1.9974,2.0079,2.0219,2.0357,-0.0449,-0.0336,-0.0393,-0.101,-0.101,-0.0898,-0.0898,-0.0898,-0.0673,-0.0056,0.0,0.0,0.0,0.0,-0.0056,-0.0056,0.0056,0.0168,0.0168,0.0897,0.1569,0.2183,0.2854,0.3244,0.3413,0.2963,0.2683,0.2683,0.2575,0.2687,0.2963,0.2963,0.3021,0.319,0.2963,0.3072,0.3405,0.3074,0.3077,0.319,0.2738,0.2569,0.2625,0.2569,0.2852,0.3246,0.335,0.3688,0.4027,0.4079,0.4356,0.4467,0.3907,0.3406,0.2963,0.2413,0.1716,0.1298,0.1832,0.1521,0.1253,0.1832,0.1481,0.1229,0.2289,0.2199,0.1843,0.1726,0.1217,0.0824,0.0819,0.0668,0.0581,0.0669,0.0587,0.0575,0.079,0.0744,0.0906,0.1507,0.164,0.184,0.2172,0.2441,0.2577,0.2543,0.3043,0.3072,0.2474,0.3067,0.3481,0.3605,0.5176,0.6469,0.7387,0.8834,1.0544,1.2545,1.4069,1.4911,1.5172,1.693,1.7815,1.7976,1.852,1.8987,1.945,1.9758,1.9926,1.9993,2.0068,1.9925,1.971,1.9955,2.0164,2.0341,-0.0617,-0.0393,-0.0393,-0.101,-0.101,-0.0898,-0.0898,-0.0898,-0.0673,-0.0056,0.0,0.0,0.0,-0.0112,-0.0224,-0.0336,-0.0112,0.0,0.0,0.084,0.1567,0.2183,0.2291,0.2681,0.3357,0.2462,0.2127,0.2521,0.2127,0.2071,0.2296,0.2296,0.2352,0.2352,0.2519,0.2575,0.2631,0.2408,0.2464,0.2577,0.2127,0.2069,0.2238,0.2127,0.2296,0.2633,0.2633,0.291,0.3299,0.3741,0.3965,0.4079,0.4135,0.3782,0.336,0.2861,0.2144,0.1523,0.1433,0.1253,0.1208,0.1703,0.1515,0.1287,0.146,0.0957,0.055,0.0825,0.0703,0.0546,0.0471,0.0823,0.0976,0.0583,0.0751,0.0946,0.0975,0.1246,0.1573,0.1902,0.2308,0.2547,0.2613,0.2874,0.2944,0.2782,0.3471,0.3663,0.3109,0.3611,0.4177,0.4754,0.5478,0.6363,0.7376,0.874,1.0067,1.1345,1.3117,1.4547,1.5637,1.6838,1.7247,1.7052,1.8106,1.8592,1.8694,1.9249,1.9482,1.9513,1.9626,1.9657,1.9632,1.9769,1.9926,2.0087,-0.0785,-0.0617,-0.0673,-0.1288,-0.1177,-0.101,-0.101,-0.101,-0.0785,-0.0168,-0.0168,-0.0224,-0.0224,-0.0449,-0.0561,-0.0393,-0.0449,-0.0449,-0.0224,0.0392,0.0952,0.1345,0.1733,0.2012,0.2128,0.1734,0.1455,0.1345,0.1567,0.179,0.1959,0.179,0.179,0.1959,0.1737,0.1793,0.2071,0.168,0.1625,0.1794,0.1345,0.1232,0.1345,0.1401,0.1624,0.2071,0.2573,0.3021,0.3413,0.3799,0.4024,0.4135,0.4415,0.3886,0.3144,0.2981,0.2082,0.1156,0.1172,0.0941,0.0807,0.112,0.0941,0.0627,0.0357,0.0304,0.0338,0.0508,0.0623,0.07,0.0758,0.1141,0.1328,0.1067,0.1422,0.1599,0.1232,0.1703,0.2242,0.257,0.2805,0.3039,0.3335,0.3593,0.3756,0.3788,0.4307,0.4339,0.3667,0.414,0.4426,0.4381,0.549,0.6331,0.6822,0.8308,0.9761,1.1168,1.2224,1.3582,1.5171,1.6197,1.6384,1.5886,1.6547,1.7113,1.7576,1.8005,1.855,1.9096,1.8781,1.8734,1.8938,1.9563,1.9929,2.0134]},{"header":{"parameterUnit":"m.s-1","parameterCategory":1,"la1":30.6,"la2":28.766,"lo1":-90.7593,"lo2":-88.6598,"dy":0.0162,"dx":0.0183,"nx":116,"ny":114,"refTime":"2024-05-27T12:00:00:Z","depth":0,"parameterNumber":3,"parameterNumberName":"V-component_of_WINDS"},"data":[0.0,0.0,0.0,0.0,0.0,0.0,0.0,0.0,0.0,0.0,0.0,0.0,0.0,0.0,0.0,0.0,0.0,0.0,0.0,0.0,0.0,0.0,0.0,0.0,0.0,0.0,0.0,0.0,0.0,0.0,0.0,0.0,0.0,0.0,0.0,0.0,0.0,0.0,0.0,0.0,0.0,0.0,0.0,0.0,0.0,0.0,0.0,0.0,0.0,0.0,0.0,0.0,0.0,0.0,0.0,0.0,0.0,0.0,0.0,0.0,0.0,0.0,0.0,0.0,0.0,0.0,0.0,0.0,0.0,0.0,0.0,0.0,0.0,0.0,0.0,0.0,0.0,0.0,0.0,0.0,0.0,0.0,0.0,0.0,0.0,0.0,0.0,0.0,0.0,0.0,0.0,0.0,0.0,0.0,0.0,0.0,0.0,0.0,0.0,0.0,0.0,0.0,0.0,0.0,0.0,0.0,0.0,0.0,0.0,0.0,0.0,0.0,0.0,0.0,0.0,0.0,0.0,0.0,0.0,0.0,0.0,0.0,0.0,0.0,0.0,0.0,0.0,0.0,0.0,0.0,0.0,0.0,0.0,0.0,0.0,0.0,0.0,0.0,0.0,0.0,0.0,0.0,0.0,0.0,0.0,0.0,0.0,0.0,0.0,0.0,0.0,0.0,0.0,0.0,0.0,0.0,0.0,0.0,0.0,0.0,0.0,0.0,0.0,0.0,0.0,0.0,0.0,0.0,0.0,0.0,0.0,0.0,0.0,0.0,0.0,0.0,0.0,0.0,0.0,0.0,0.0,0.0,0.0,0.0,0.0,0.0,0.0,0.0,0.0,0.0,0.0,0.0,0.0,0.0,0.0,0.0,0.0,0.0,0.0,0.0,0.0,0.0,0.0,0.0,0.0,0.0,0.0,0.0,0.0,0.0,0.0,0.0,0.0,0.0,0.0,0.0,0.0,0.0,0.0,0.0,0.0,0.0,0.0,0.0,0.0,0.0,0.0,0.0,0.0,0.0,0.0,0.0,0.0,0.0,0.0,0.0,0.0,0.0,0.0,0.0,0.0,0.0,0.0,0.0,0.0,0.0,0.0,0.0,0.0,0.0,0.0,0.0,0.0,0.0,0.0,0.0,0.0,0.0,0.0,0.0,0.0,0.0,0.0,0.0,0.0,0.0,0.0,0.0,0.0,0.0,0.0,0.0,0.0,0.0,0.0,0.0,0.0,0.0,0.0,0.0,0.0,0.0,0.0,0.0,0.0,0.0,0.0,0.0,0.0,0.0,0.0,0.0,0.0,0.0,0.0,0.0,0.0,0.0,0.0,0.0,0.0,0.0,0.0,0.0,0.0,0.0,0.0,0.0,0.0,0.0,0.0,0.0,0.0,0.0,0.0,0.0,0.0,0.0,0.0,0.0,0.0,0.0,0.0,0.0,0.0,0.0,0.0,0.0,0.0,0.0,0.0,0.0,0.0,0.0,0.0,0.0,0.0,0.0,0.0,0.0,0.0,0.0,0.0,0.0,0.0,0.0,0.0,0.0,0.0,0.0,0.0,0.0,0.0,0.0,0.0,0.0,0.0,0.0,0.0,0.0,0.0,0.0,0.0,0.0,0.0,0.0,0.0,0.0,0.0,0.0,0.0,0.0,0.0,0.0,0.0,0.0,0.0,0.0,0.0,0.0,0.0,0.0,0.0,0.0,0.0,0.0,0.0,0.0,0.0,0.0,0.0,0.0,0.0,0.0,0.0,0.0,0.0,0.0,0.0,0.0,0.0,0.0,0.0,0.0,0.0,0.0,0.0,0.0,0.0,0.0,0.0,0.0,0.0,0.0,0.0,0.0,0.0,0.0,0.0,0.0,0.0,0.0,0.0,0.0,0.0,0.0,0.0,0.0,0.0,0.0,0.0,0.0,0.0,0.0,0.0,0.0,0.0,0.0,0.0,0.0,0.0,0.0,0.0,0.0,0.0,0.0,0.0,0.0,0.0,0.0,0.0,0.0,0.0,0.0,0.0,0.0,0.0,0.0,0.0,0.0,0.0,0.0,0.0,0.0,0.0,0.0,0.0,0.0,0.0,0.0,0.0,0.0,0.0,0.0,0.0,0.0,0.0,0.0,0.0,0.0,0.0,0.0,0.0,0.0,0.0,0.0,0.0,0.0,0.0,0.0,0.0,0.0,0.0,0.0,0.0,0.0,0.0,0.0,0.0,0.0,0.0,0.0,0.0,0.0,0.0,0.0,0.0,0.0,0.0,0.0,0.0,0.0,0.0,0.0,0.0,0.0,0.0,0.0,0.0,0.0,0.0,0.0,0.0,0.0,0.0,0.0,0.0,0.0,0.0,0.0,0.0,0.0,0.0,0.0,0.0,0.0,0.0,0.0,0.0,0.0,0.0,0.0,0.0,0.0,0.0,0.0,0.0,0.0,0.0,0.0,0.0,0.0,0.0,0.0,0.0,0.0,0.0,0.0,0.0,0.0,0.0,0.0,0.0,0.0,0.0,0.0,0.0,0.0,0.0,0.0,0.0,0.0,0.0,0.0,0.0,0.0,0.0,0.0,0.0,0.0,0.0,0.0,0.0,0.0,0.0,0.0,0.0,0.0,0.0,0.0,0.0,0.0,0.0,0.0,0.0,0.0,0.0,0.0,0.0,0.0,0.0,0.0,0.0,0.0,0.0,0.0,0.0,0.0,0.0,0.0,0.0,0.0,0.0,0.0,0.0,0.0,0.0,0.0,0.0,0.0,0.0,0.0,0.0,0.0,0.0,0.0,0.0,0.0,0.0,0.0,0.0,0.0,0.0,0.0,0.0,0.0,0.0,0.0,0.0,0.0,0.0,0.0,0.0,0.0,0.0,0.0,0.0,0.0,0.0,0.0,0.0,0.0,0.0,0.0,0.0,0.0,0.0,0.0,0.0,0.0,0.0,0.0,0.0,0.0,0.0,0.0,0.0,0.0,0.0,0.0,0.0,0.0,0.0,0.0,0.0,0.0,0.0,0.0,0.0,0.0,0.0,0.0,0.0,0.0,0.0,0.0,0.0,0.0,0.0,0.0,0.0,0.0,0.0,0.0,0.0,0.0,0.0,0.0,0.0,0.0,0.0,0.0,0.0,0.0,0.0,0.0,0.0,0.0,0.0,0.0,0.0,0.0,0.0,0.0,0.0,0.0,0.0,0.0,0.0,0.0,0.0,0.0,0.0,0.0,0.0,0.0,0.0,0.0,0.0,0.0,0.0,0.0,0.0,0.0,0.0,0.0,0.0,0.0,0.0,0.0,0.0,0.0,0.0,0.0,0.0,0.0,0.0,0.0,0.0,0.0,0.0,0.0,0.0,0.0,0.0,0.0,0.0,0.0,0.0,0.0,0.0,0.0,0.0,0.0,0.0,0.0,0.0,0.0,0.0,0.0,0.0,0.0,0.0,0.0,0.0,0.0,0.0,0.0,0.0,0.0,0.0,0.0,0.0,0.0,0.0,0.0,0.0,0.0,0.0,0.0,0.0,0.0,0.0,0.0,0.0,0.0,0.0,0.0,0.0,0.0,0.0,0.0,0.0,0.0,0.0,0.0,0.0,0.0,0.0,0.0,0.0,0.0,0.0,0.0,0.0,0.0,0.0,0.0,0.0,0.0,0.0,0.0,0.0,0.0,0.0,0.0,0.0,0.0,0.0,0.0,0.0,0.0,0.0,0.0,0.0,0.0,0.0,0.0,0.0,0.0,0.0,0.0,0.0,0.0,0.0,0.0,0.0,0.0,0.0,0.0,0.0,0.0,0.0,0.0,0.0,0.0,0.0,0.0,0.0,0.0,0.0,0.0,0.0,0.0,0.0,0.0,0.0,0.0,0.0,0.0,0.0,0.0,0.0,0.0,0.0,0.0,0.0,0.0,0.0,0.0,0.0,0.0,0.0,0.0,0.0,0.0,0.0,0.0,0.0,0.0,0.0,0.0,0.0,0.0,0.0,0.0,0.0,0.0,0.0,0.0,0.0,0.0,0.0,0.0,0.0,0.0,0.0,0.0,0.0,0.0,0.0,0.0,0.0,0.0,0.0,0.0,0.0,0.0,0.0,0.0,0.0,0.0,0.0,0.0,0.0,0.0,0.0,0.0,0.0,0.0,0.0,0.0,0.0,0.0,0.0,0.0,0.0,0.0,0.0,0.0,0.0,0.0,0.0,0.0,0.0,0.0,0.0,0.0,0.0,0.0,0.0,0.0,0.0,0.0,0.0,0.0,0.0,0.0,0.0,0.0,0.0,0.0,0.0,0.0,0.0,0.0,0.0,0.0,0.0,0.0,0.0,0.0,0.0,0.0,0.0,0.0,0.0,0.0,0.0,0.0,0.0,0.0,0.0,0.0,0.0,0.0,0.0,0.0,0.0,0.0,0.0,0.0,0.0,0.0,0.0,0.0,0.0,0.0,0.0,0.0,0.0,0.0,0.0,0.0,0.0,0.0,0.0,0.0,0.0,0.0,0.0,0.0,0.0,0.0,0.0,0.0,0.0,0.0,0.0,0.0,0.0,0.0,0.0,0.0,0.0,0.0,0.0,0.0,0.0,0.0,0.0,0.0,0.0,0.0,0.0,0.0,0.0,0.0,0.0,0.0,0.0,0.0,0.0,0.0,0.0,0.0,0.0,0.0,0.0,0.0,0.0,0.0,0.0,0.0,0.0,0.0,0.0,0.0,0.0,0.0,0.0,0.0,0.0,0.0,0.0,0.0,0.0,0.0,0.0,0.0,0.0,0.0,0.0,0.0,0.0,0.0,0.0,0.0,0.0,0.0,0.0,0.0,0.0,0.0,0.0,0.0,0.0,0.0,0.0,0.0,0.0,0.0,0.0,0.0,0.0,0.0,0.0,0.0,0.0,0.0,0.0,0.0,0.0,0.0,0.0,0.0,0.0,0.0,0.0,0.0,0.0,0.0,0.0,0.0,0.0,0.0,0.0,0.0,0.0,0.0,0.0,0.0,0.0,0.0,0.0,0.0,0.0,0.0,0.0,0.0,0.0,0.0,0.0,0.0,0.0,0.0,0.0,0.0,0.0,0.0,0.0,0.0,0.0,0.0,0.0,0.0,0.0,0.0,0.0,0.0,0.0,0.0,0.0,0.0,0.0,0.0,0.0,0.0,0.0,0.0,0.0,0.0,0.0,0.0,0.0,0.0,0.0,0.0,0.0,0.0,0.0,0.0,0.0,0.0,0.0,0.0,0.0,0.0,0.0,0.0,0.0,0.0,0.0,0.0,0.0,0.0,0.0,0.0,0.0,0.0,0.0,0.0,0.0,0.0,0.0,0.0,0.0,0.0,0.0,0.0,0.0,0.0,0.0,0.0,0.0,0.0,0.0,0.0,0.0,0.0,0.0,0.0,0.0,0.0,0.0,0.0,0.0,0.0,0.0,0.0,0.0,0.0,0.0,0.0,0.0,0.0,0.0,0.0,0.0,0.0,0.0,0.0,0.0,0.0,0.0,0.0,0.0,0.0,0.0,0.0,0.0,0.0,0.0,0.0,0.0,0.0,0.0,0.0,0.0,0.0,0.0,0.0,0.0,0.0,0.0,0.0,0.0,0.0,0.0,0.0,0.0,0.0,0.0,0.0,0.0,0.0,0.0,0.0,0.0,0.0,0.0,0.0,0.0,0.0,0.0,0.0,0.0,0.0,0.0,0.0,0.0,0.0,0.0,0.0,0.0,0.0,0.0,0.0,0.0,0.0,0.0,0.0,0.0,0.0,0.0,0.0,0.0,0.0,0.0,0.0,0.0,0.0,0.0,0.0,0.0,0.0,0.0,0.0,0.0,0.0,0.0,0.0,0.0,0.0,0.0,0.0,0.0,0.0,0.0,0.0,0.0,0.0,0.0,0.0,0.0,0.0,0.0,0.0,0.0,0.0,0.0,0.0,0.0,0.0,0.0,0.0,0.0,0.0,0.0,0.0,0.0,0.0,0.0,0.0,0.0,0.0,0.0,0.0,0.0,0.0,0.0,0.0,0.0,0.0,0.0,0.0,0.0,0.0,0.0,0.0,0.0,0.0,0.0,0.0,0.0,0.0,0.0,0.0,0.0,0.0,0.0,0.0,0.0,0.0,0.0,0.0,0.0,0.0,0.0,0.0,1.2661,1.1986,0.0,0.0,0.0,0.0,0.0,0.0,0.0,0.0,0.0,0.0,0.0,0.0,0.0,0.0,0.0,0.0,0.0,0.0,0.0,0.0,0.0,0.0,0.0,1.4587,1.4794,1.4794,1.4734,1.4701,1.4643,0.0,0.0,0.0,0.0,0.0,1.4041,1.3585,1.3508,1.3842,1.3809,1.4185,1.4934,1.535,1.4683,1.3132,0.0,0.0,0.0,0.0,0.0,0.0,0.0,0.0,0.0,0.0,0.0,0.0,0.0,0.0,0.0,0.0,0.0,0.0,0.0,0.0,0.0,0.0,0.0,0.0,0.0,0.0,0.0,0.0,0.0,0.0,0.0,0.0,0.0,0.0,0.0,0.0,0.0,0.0,0.0,0.0,0.0,0.0,0.0,0.0,0.0,0.0,0.0,0.0,0.0,0.0,0.0,0.0,0.0,0.0,0.0,0.0,0.0,0.0,0.0,0.0,0.0,0.0,0.0,0.0,0.0,0.0,0.0,0.0,0.0,0.0,1.3959,1.31,0.0,0.0,0.0,0.0,0.0,0.0,0.0,0.0,0.0,0.0,0.0,0.0,0.0,0.0,0.0,0.0,0.0,0.0,0.0,0.0,0.0,1.3055,1.4527,1.4765,1.4823,1.4813,1.4763,1.4714,1.4724,1.4714,0.0,0.0,0.0,1.4683,1.4603,1.4581,1.4936,1.5668,1.577,1.6137,1.6783,1.6787,1.5701,1.3751,1.3739,0.0,0.0,0.0,0.0,0.0,0.0,0.0,0.0,0.0,0.0,0.0,0.0,0.0,0.0,0.0,0.0,0.0,0.0,0.0,0.0,0.0,0.0,0.0,0.0,0.0,0.0,0.0,0.0,0.0,0.0,0.0,0.0,0.0,0.0,0.0,0.0,0.0,0.0,0.0,0.0,0.0,0.0,0.0,0.0,0.0,0.0,0.0,0.0,0.0,0.0,0.0,0.0,0.0,0.0,0.0,0.0,0.0,0.0,0.0,0.0,0.0,0.0,0.0,1.6949,1.7261,1.7183,1.6916,1.7231,1.7841,1.567,1.4897,1.5084,1.3959,0.0,0.0,0.0,0.0,0.0,0.0,0.0,0.0,0.0,0.0,0.0,0.0,0.0,0.0,0.0,0.0,0.0,0.0,0.0,1.278,1.3745,1.447,1.4894,1.4885,1.4832,1.4813,1.4869,1.4822,0.0,0.0,1.4763,1.4724,1.46,1.4541,1.4871,1.5611,1.6251,1.6609,1.6718,1.6718,1.6601,1.6397,1.6282,1.6237,1.6156,0.0,0.0,0.0,0.0,0.0,0.0,0.0,0.0,0.0,0.0,0.0,0.0,0.0,0.0,0.0,0.0,0.0,0.0,0.0,0.0,0.0,0.0,0.0,0.0,0.0,0.0,0.0,0.0,0.0,0.0,0.0,0.0,0.0,0.0,0.0,0.0,0.0,0.0,0.0,0.0,0.0,1.4283,1.4997,0.0,0.0,0.0,0.0,0.0,0.0,0.0,0.0,0.0,0.0,0.0,0.0,0.0,1.7484,1.72,1.7848,1.817,1.8136,1.8877,1.9072,1.8796,1.8808,1.8744,1.858,1.8499,0.0,1.6676,1.633,0.0,0.0,0.0,0.0,0.0,0.0,0.0,0.0,0.0,0.0,0.0,0.0,0.0,0.0,0.0,0.0,0.0,0.0,0.0,0.0,0.0,1.5001,1.5468,1.5458,1.5804,1.5856,1.5426,1.5375,1.5168,1.472,1.4703,1.4635,1.456,1.4921,1.5637,1.6666,1.7326,1.7736,1.7889,1.8337,1.8654,1.882,1.9259,1.8489,1.6808,1.6099,0.0,0.0,0.0,0.0,0.0,0.0,0.0,0.0,0.0,0.0,0.0,0.0,0.0,0.0,0.0,0.0,0.0,0.0,0.0,0.0,0.0,0.0,0.0,0.0,0.0,0.0,0.0,0.0,0.0,0.0,0.0,0.0,0.0,0.0,0.0,0.0,0.0,0.0,0.0,1.4689,1.5677,1.5581,1.5896,1.5854,0.0,0.0,0.0,0.0,0.0,0.0,0.0,0.0,0.0,1.7912,1.8779,1.9029,1.8583,1.9277,1.9476,1.9187,1.9925,2.031,2.034,2.0172,2.0233,2.0443,2.0553,2.0196,1.9445,1.8253,1.7411,1.6815,0.0,0.0,0.0,0.0,1.6338,1.6056,0.0,0.0,0.0,0.0,0.0,0.0,0.0,0.0,0.0,0.0,0.0,0.0,1.4961,1.5594,1.6008,1.6198,1.6522,1.6565,1.6163,1.5755,1.5366,1.4995,1.4743,1.4622,1.469,1.5542,1.6536,1.7682,1.8358,1.8851,1.9279,1.9868,2.0274,2.0536,2.117,2.0079,1.7731,1.7591,1.6693,0.0,0.0,0.0,0.0,0.0,0.0,0.0,0.0,0.0,0.0,0.0,0.0,0.0,0.0,0.0,0.0,0.0,0.0,0.0,0.0,0.0,0.0,0.0,0.0,0.0,0.0,0.0,0.0,0.0,0.0,0.0,0.0,0.0,0.0,0.0,0.0,0.0,0.0,1.6135,1.7044,1.6446,1.7521,1.7808,0.0,0.0,0.0,0.0,0.0,0.0,1.8505,1.9287,1.9651,1.9476,2.0238,2.0404,1.9886,2.0352,2.039,1.9988,2.0639,2.1023,2.1183,2.1071,2.1293,2.1661,2.1849,2.1915,2.1686,2.0057,1.9263,1.9066,1.8557,1.8238,1.8141,1.8577,1.8352,1.7971,0.0,0.0,0.0,0.0,0.0,0.0,0.0,0.0,0.0,0.0,0.0,1.4033,1.5678,1.5929,1.6287,1.6983,1.6376,1.6265,0.0,1.5603,1.5051,1.5722,1.5018,1.4769,1.5153,1.6396,1.74,1.8177,1.8961,1.9747,2.0505,2.054,2.0741,2.1062,2.1115,2.0824,2.0264,1.9512,1.8702,1.7721,0.0,0.0,0.0,0.0,0.0,0.0,0.0,0.0,0.0,0.0,0.0,0.0,0.0,0.0,0.0,0.0,0.0,0.0,0.0,0.0,0.0,0.0,0.0,0.0,0.0,0.0,0.0,0.0,0.0,0.0,0.0,0.0,0.0,0.0,0.0,0.0,0.0,0.0,0.0,1.8168,1.8906,0.0,0.0,0.0,0.0,1.913,1.9087,1.9367,2.0239,2.0864,2.1053,2.081,2.1337,2.1483,2.1195,2.091,2.0764,2.0747,2.1103,2.1119,2.086,2.1479,2.1587,2.1371,2.2265,2.2643,2.2583,2.1788,2.1077,2.0489,2.0244,2.0099,1.9967,1.9934,1.9892,1.9833,0.0,0.0,0.0,0.0,0.0,1.1566,1.2557,1.2879,1.33,1.4126,1.4092,1.4392,1.5514,1.6014,1.662,1.7464,1.776,1.7796,1.757,1.6566,1.6037,1.6117,1.5392,1.566,1.7115,1.7414,1.8154,1.9423,1.9534,1.9862,2.036,2.0884,2.1301,2.1635,2.2349,2.2285,2.1601,2.0512,1.962,1.882,1.7381,1.6167,0.0,0.0,0.0,0.0,0.0,0.0,0.0,0.0,0.0,0.0,0.0,0.0,0.0,0.0,0.0,0.0,0.0,0.0,0.0,0.0,0.0,0.0,0.0,0.0,0.0,0.0,0.0,0.0,0.0,0.0,0.0,0.0,0.0,0.0,0.0,0.0,0.0,2.0044,2.0631,0.0,1.9979,1.9675,1.9947,2.0894,2.0729,2.0858,2.1513,2.1776,2.1664,2.1163,2.1332,2.1182,2.0597,2.0462,2.0429,2.0429,2.053,2.0763,2.1071,2.1293,2.1433,2.1511,2.2027,2.2237,2.2248,2.2139,2.2193,2.2324,2.2157,2.201,2.1901,2.1884,2.1807,2.173,0.0,0.0,0.0,0.0,1.1705,1.238,1.338,1.3719,1.4011,1.4501,1.4611,1.4941,1.5721,1.6373,1.7146,1.8067,1.8357,1.8376,1.8106,1.7118,1.657,1.6672,1.6203,1.6557,1.7851,1.8,1.8682,1.9975,1.9794,2.0031,2.0642,2.1184,2.1704,2.2195,2.2904,2.3023,2.264,2.1549,2.0767,2.0094,1.9289,1.8284,1.7202,0.0,0.0,0.0,0.0,0.0,0.0,0.0,0.0,0.0,0.0,0.0,0.0,0.0,0.0,0.0,0.0,0.0,0.0,0.0,0.0,0.0,0.0,0.0,0.0,0.0,0.0,0.0,0.0,0.0,0.0,0.0,0.0,0.0,0.0,0.0,2.1115,2.0912,2.1771,2.2054,2.1225,2.1153,2.1384,2.1925,2.1799,2.181,2.2091,2.1982,2.1688,2.1261,2.1039,2.073,2.0345,2.0243,2.0277,2.0395,2.0481,2.0763,2.1198,2.1293,2.145,2.1603,2.1882,2.1998,2.2027,2.2248,2.2573,2.2917,2.2816,2.2712,2.2598,2.2598,2.2544,2.2463,0.0,0.0,0.0,1.1243,1.2605,1.363,1.3448,1.4142,1.4596,1.4331,1.4878,1.558,1.6292,1.7028,1.7826,1.8699,1.7986,1.7843,1.8643,1.7117,1.6554,1.7329,1.7403,1.7408,1.737,1.8195,1.9011,1.9736,1.9736,2.032,2.1477,2.1493,2.1911,2.2659,2.2685,2.2993,2.3424,2.265,2.2104,2.1678,2.0923,2.0574,2.034,0.0,0.0,0.0,0.0,0.0,0.0,0.0,0.0,0.0,0.0,0.0,0.0,0.0,0.0,0.0,0.0,0.0,0.0,0.0,0.0,0.0,0.0,0.0,0.0,0.0,0.0,0.0,0.0,0.0,0.0,0.0,0.0,0.0,1.9482,2.0905,2.1639,2.0863,2.2242,2.2797,2.1533,2.2281,2.2651,2.2153,2.2136,2.2096,2.1882,2.1509,2.1261,2.1102,2.0532,2.0345,2.0597,2.0345,2.0429,2.0827,2.1071,2.1198,2.123,2.1481,2.1589,2.162,2.1869,2.1969,2.1998,2.2124,2.2164,2.2164,2.2192,2.2108,2.1998,2.1998,2.1998,2.1998,0.0,0.0,1.1443,1.1925,1.2807,1.3607,1.3988,1.4222,1.4282,1.4163,1.4654,1.5222,1.5747,1.6407,1.7158,1.8142,1.7962,1.7968,1.8373,1.6937,1.6174,1.6457,1.7467,1.8408,1.9113,1.9291,1.9767,2.051,2.051,2.0719,2.1134,2.1385,2.1705,2.2089,2.2508,2.2773,2.2917,2.29,2.2833,2.2646,2.1753,2.1071,2.0517,0.0,0.0,0.0,0.0,0.0,0.0,0.0,0.0,0.0,0.0,0.0,0.0,0.0,0.0,0.0,0.0,0.0,0.0,0.0,0.0,0.0,0.0,0.0,0.0,0.0,0.0,0.0,0.0,0.0,0.0,0.0,0.0,2.1025,2.1185,2.2113,2.2608,2.2206,2.2554,2.2643,2.2129,2.204,2.2044,2.2096,2.1899,2.1768,2.1768,2.1648,2.1464,2.1182,2.1023,2.0795,2.0512,2.0496,2.0648,2.0958,2.1007,2.115,2.1355,2.1433,2.1433,2.1388,2.1464,2.1479,2.1509,2.154,2.157,2.1584,2.1924,2.201,2.1998,2.1998,2.1998,2.1969,0.0,1.1201,1.1925,1.2597,1.3346,1.3955,1.4217,1.4232,1.4127,1.392,1.4374,1.4898,1.5387,1.5754,1.6328,1.7288,1.7394,1.736,1.727,1.6778,1.6624,1.6832,1.8022,1.8956,1.9531,1.965,1.9906,2.0342,2.0342,2.0462,2.0715,2.1071,2.1432,2.1735,2.226,2.2569,2.2712,2.2867,2.3007,2.3071,2.2575,2.2185,2.1881,2.1694,2.0994,2.006,1.9396,1.8581,1.7789,1.7399,0.0,0.0,0.0,0.0,0.0,0.0,0.0,0.0,0.0,0.0,0.0,0.0,0.0,0.0,0.0,0.0,0.0,0.0,0.0,0.0,0.0,0.0,0.0,0.0,2.0708,2.1601,2.2046,2.2522,2.2703,2.2422,2.2422,2.2313,2.2124,2.1899,2.1751,2.1807,2.1678,2.1573,2.1587,2.1479,2.1308,2.1071,2.0974,2.0811,2.0679,2.073,2.091,2.1261,2.1197,2.1245,2.1386,2.1355,2.134,2.1309,2.1309,2.1309,2.1309,2.1309,2.1309,2.134,0.0,0.0,0.0,0.0,2.1705,2.1675,0.0,1.1857,1.2618,1.3174,1.3937,1.4399,1.4175,1.4127,1.3991,1.3617,1.4093,1.4607,1.4978,1.511,1.5545,1.639,1.6576,1.6428,0.0,0.0,1.7492,1.7796,1.8718,1.9239,1.9249,1.9552,1.969,1.969,1.969,1.9874,2.0246,2.0648,2.1071,2.1491,2.1886,2.2248,2.2535,2.2535,2.2669,2.2905,2.3056,2.3341,2.362,2.3214,2.2997,2.2722,2.1323,2.0262,1.9426,1.8764,0.0,0.0,0.0,0.0,0.0,0.0,0.0,0.0,0.0,0.0,0.0,0.0,0.0,0.0,0.0,0.0,0.0,0.0,0.0,0.0,0.0,0.0,0.0,0.0,2.0935,2.1535,2.222,2.2321,2.2248,2.1998,2.1969,2.1911,2.1751,2.1768,2.1631,2.1417,2.1511,2.1542,2.1417,2.1166,0.0,0.0,0.0,2.0712,2.0926,2.1007,2.1214,2.1559,2.1433,2.1386,2.1386,2.1277,2.1246,2.1309,2.1246,2.1262,2.1309,2.1246,2.1214,2.1183,2.1277,2.1309,2.1309,2.1309,2.1309,2.1246,0.0,1.229,1.3216,1.3081,1.3781,1.4211,1.3845,1.3667,1.3509,1.3379,1.3881,1.4156,1.3849,1.4546,1.537,1.6182,1.6337,1.6337,0.0,0.0,1.7882,1.7279,1.8516,1.9336,1.9622,1.9651,1.969,1.969,1.969,1.9747,1.9889,2.0261,2.0516,2.0731,2.1118,2.1368,2.1413,2.1521,2.1612,2.1668,2.1905,2.2557,2.3374,2.3343,2.2916,2.2342,2.2256,2.1697,2.1007,2.1056,2.0659,2.0099,1.9908,0.0,0.0,0.0,0.0,0.0,0.0,0.0,0.0,0.0,0.0,0.0,0.0,0.0,0.0,0.0,0.0,0.0,0.0,0.0,0.0,2.0909,2.1488,2.1831,2.184,2.1844,2.1814,2.1768,2.1768,2.1678,2.1509,2.1433,2.1402,2.1386,2.1417,2.1417,2.1386,2.1355,2.1324,2.1308,2.1261,2.123,2.1214,2.1293,2.1324,2.1356,2.134,0.0,2.1309,2.1023,2.1055,2.1277,2.1023,2.1055,2.1277,2.1023,2.0712,2.0481,2.1071,2.1309,2.1309,2.1309,2.1309,2.1246,1.2085,1.2798,1.3393,1.357,1.3959,1.4154,1.3853,1.3638,1.3428,1.3261,1.3401,1.3518,1.3557,1.3771,1.4227,1.5089,1.5222,0.0,0.0,1.7184,1.7691,1.7471,1.853,1.9224,1.9384,1.9398,1.9398,1.9398,1.9617,1.9726,1.9762,2.0104,2.0296,2.0431,2.0829,2.1023,2.1055,2.115,2.1213,2.1213,2.1458,2.1869,2.2398,2.2895,2.2946,2.2776,2.2948,2.247,2.1846,2.2116,2.1785,2.1248,2.1282,2.056,1.9595,0.0,0.0,0.0,0.0,0.0,0.0,0.0,0.0,0.0,0.0,0.0,0.0,0.0,0.0,1.9029,0.0,0.0,2.0726,2.1478,2.1735,2.1811,2.1708,2.1915,2.1903,2.1544,2.1822,2.2003,2.1907,2.1875,2.2005,2.2427,2.2118,2.207,2.2427,2.2102,2.1907,2.1907,2.1907,2.1713,2.1309,2.1697,2.1697,2.1309,2.1119,2.1055,2.1023,2.0679,2.0597,2.073,2.0563,2.0597,2.073,2.0563,2.0395,2.0243,2.063,2.073,2.0712,2.0712,2.0712,2.0646,1.3102,1.3344,1.3621,1.409,1.4154,1.4062,1.3871,1.3622,1.3395,1.3175,1.2908,1.2909,1.335,1.3061,1.3186,0.0,0.0,0.0,0.0,1.6764,1.7456,1.7767,1.8534,1.9026,1.9101,1.9101,1.9101,1.9101,1.9472,1.969,1.9726,1.9945,2.0104,2.0193,2.0548,2.073,2.0764,2.0862,2.0894,2.0894,2.1007,2.115,2.1323,2.2073,2.2583,2.2954,2.3076,2.2629,2.2078,2.2475,2.2236,2.1825,2.2234,2.186,2.1143,2.042,1.9738,0.0,0.0,0.0,0.0,0.0,0.0,0.0,0.0,0.0,1.9386,2.0009,1.9964,2.0154,2.1172,2.1194,2.1244,2.1857,2.1883,2.1847,2.1847,2.228,2.2394,2.1811,2.2248,2.2604,2.2604,2.2604,2.2847,2.3464,2.2928,2.2863,2.3481,2.2844,2.2488,2.2488,2.2387,2.2064,2.1455,2.2048,2.2048,2.1439,2.1173,2.0976,2.085,2.0458,2.0227,2.0208,2.0208,2.0174,2.0104,2.0104,2.007,2.0,1.9965,1.9909,1.9889,2.003,2.0065,2.003,0.0,1.3874,1.4306,1.4145,1.3963,1.3801,1.3652,1.3261,1.2962,1.2944,1.2743,1.262,1.2613,1.284,1.3293,1.4115,0.0,0.0,1.5573,1.6857,1.7678,1.7715,1.8245,1.8745,1.9101,1.9101,1.9101,1.9101,1.945,1.9632,1.969,1.9669,1.9705,1.9782,1.9869,1.994,1.9925,2.008,2.0115,2.0115,1.996,2.0224,2.0681,2.0668,2.1117,2.1715,2.1967,2.1735,2.1462,2.2387,2.2508,2.2472,2.3412,2.3217,2.2693,2.2765,0.0,1.949,2.0028,1.9499,1.8968,1.9632,1.9658,2.0085,0.0,0.0,2.1609,2.2225,2.2176,2.201,2.1933,2.1753,2.1655,2.1738,2.2066,2.2297,2.2297,2.2929,2.3367,2.327,2.3335,2.3383,2.3383,2.3383,2.3416,2.3497,2.3432,2.3416,2.3513,2.3016,2.2754,2.2754,2.2341,2.2108,2.2031,2.2108,2.2108,2.2031,2.1956,2.1664,2.1147,2.0729,2.0434,2.0208,2.0208,2.0015,1.9747,1.9747,1.953,1.9213,1.9153,1.9078,1.9035,1.9803,2.0,1.9955,0.0,1.4323,1.4458,1.4295,1.4167,1.4009,1.3761,1.3444,1.3193,1.3049,1.2778,1.2646,1.2773,1.294,1.3183,1.3521,0.0,0.0,1.4473,1.6487,1.7492,1.7089,1.7987,1.8461,1.8344,1.863,1.8745,1.8745,1.9339,1.9611,1.9632,1.9523,1.9398,1.9244,1.9244,1.9184,1.9035,1.9147,1.9199,1.9199,1.9132,1.9266,1.9507,1.963,1.9934,2.0449,2.1366,2.1378,0.0,0.0,2.2282,2.21,2.2826,2.2803,2.248,2.2082,2.1516,0.0,2.1783,2.1256,0.0,0.0,2.115,2.1364,2.1898,2.1831,2.1709,2.1938,2.182,2.1552,2.1305,2.1359,2.1415,0.0,2.167,2.203,2.203,2.2733,2.3052,2.2608,2.3333,2.3869,2.3895,2.399,2.4204,2.4531,2.414,2.3987,2.4185,2.3835,2.3374,2.2925,2.3056,2.2831,2.211,2.2532,2.2532,2.2095,2.1879,2.168,2.1424,2.1035,2.0754,2.0667,2.0295,2.0241,2.0421,1.967,1.9485,1.9653,1.9176,1.9118,1.9366,1.9691,1.9753,1.9788,0.0,1.4478,1.4545,1.4439,1.4356,1.4195,1.3883,1.3636,1.3395,1.3208,1.2926,1.2834,1.3051,1.3067,1.3051,1.3001,1.3791,1.4113,0.0,1.5832,1.6967,1.6613,1.7459,1.7877,1.7787,1.8108,1.8305,1.8305,1.8936,1.9265,1.9302,1.9124,1.8921,1.8741,1.8741,1.864,1.8461,1.8553,1.8592,1.8592,1.8563,1.8602,1.8703,1.8808,1.9008,1.9319,2.0382,2.0576,0.0,0.0,2.102,2.0945,2.1387,2.1619,2.1683,2.1366,2.1789,2.2339,2.224,0.0,0.0,2.1596,2.1788,2.1894,2.13,2.1275,2.1337,2.1275,2.107,2.0782,2.0518,2.0872,2.11,2.0849,2.1538,2.2058,2.2058,2.2753,2.3016,2.2291,2.3138,2.381,2.3802,2.4125,2.4496,2.4863,2.4437,2.4226,2.4455,2.4115,2.3677,2.308,2.3356,2.3142,2.2265,2.2787,2.2787,2.2224,2.201,2.1798,2.158,2.0983,2.0802,2.0959,2.0324,2.0295,2.0643,1.9864,1.9734,1.994,1.9573,1.9612,1.9916,2.0157,2.0046,1.9906,0.0,0.0,1.4656,1.4522,1.4387,1.4208,1.3934,1.362,1.3412,1.3396,1.321,1.3139,1.3295,1.3121,1.2908,1.2746,1.3684,1.4056,1.3446,1.4821,1.5927,1.6564,1.651,1.689,1.7787,1.7787,1.7828,1.7828,1.8187,1.8422,1.8539,1.8277,1.8198,1.8305,1.8305,1.8305,1.8305,1.8461,1.85,1.8475,1.8307,1.8358,1.8574,1.8422,1.8384,1.846,1.8683,0.0,0.0,0.0,1.8329,1.8848,1.9195,1.978,0.0,2.1416,2.2195,0.0,0.0,0.0,2.1742,2.1099,2.1022,2.1197,2.1337,2.1165,2.0863,2.0749,2.0503,2.0234,1.9989,2.0394,2.0797,2.0797,2.1901,2.2763,2.2763,2.3409,2.3648,2.3021,2.3031,2.2965,0.0,2.3443,2.3933,2.3921,2.3906,2.3906,2.3921,2.3507,2.3231,2.3187,2.2815,2.2603,2.2589,2.2618,2.2618,2.2589,2.2543,2.2228,2.1555,2.0423,2.0316,2.0959,2.0229,1.9929,1.9958,2.0439,2.0269,1.9784,2.0273,2.0472,2.0571,2.1399,2.114,2.0499,0.0,0.0,0.0,1.4522,1.4387,1.4247,1.4119,1.3801,1.3557,1.3429,1.3346,0.0,0.0,0.0,0.0,0.0,0.0,0.0,1.3339,1.4542,1.5342,1.5538,1.5841,1.6177,1.6598,1.6943,1.7342,1.772,1.8108,1.8305,1.8344,1.824,1.8082,1.7908,1.7787,1.7639,1.7434,1.7434,1.7352,1.7173,1.7323,1.7393,1.7394,1.8002,1.8082,1.7841,0.0,0.0,0.0,0.0,1.8604,0.0,1.8829,0.0,0.0,2.0204,2.1103,2.1761,0.0,0.0,2.1179,2.0953,2.0606,2.0366,2.0565,2.0158,1.9737,1.9823,1.9767,1.9609,1.9281,2.0084,2.0721,2.0561,2.16,2.2408,2.2408,2.27,2.2657,2.1975,2.2309,0.0,0.0,0.0,0.0,2.3694,2.3681,2.3595,2.3377,2.3421,2.3231,2.2663,2.2889,2.2844,2.2615,2.2615,2.2615,2.2615,2.2615,2.25,2.2241,2.1856,2.1829,2.2017,2.1312,2.1269,2.1642,2.0983,2.0812,2.0927,2.0642,2.0726,2.1152,2.1657,2.1682,2.1654,0.0,0.0,0.0,0.0,0.0,0.0,0.0,0.0,0.0,0.0,0.0,0.0,0.0,0.0,0.0,0.0,0.0,0.0,0.0,0.0,1.4379,1.4587,1.4671,1.5026,1.571,1.5902,1.6277,1.6903,1.7165,1.732,1.732,1.7434,1.7304,1.7007,1.7094,1.6976,1.665,1.6663,1.665,1.6655,1.6603,1.6667,1.6927,1.7388,1.7407,0.0,0.0,0.0,0.0,0.0,0.0,0.0,0.0,0.0,0.0,1.9843,2.0606,2.1293,2.1007,2.0682,2.0398,2.0299,1.9849,1.9471,1.9615,1.9207,1.886,1.8988,1.8912,1.8798,1.8567,1.9399,2.0063,2.01,2.0976,2.1699,2.1908,2.2091,2.1899,2.1115,2.1517,2.1647,0.0,0.0,0.0,2.3069,2.3113,2.3024,2.2814,2.2979,2.2844,2.2324,2.2663,2.2709,2.2463,2.2463,2.2463,2.2463,2.2463,2.2463,2.2509,2.2281,2.2355,2.2572,2.1853,2.178,2.2152,2.151,2.1338,2.148,2.1207,2.1332,2.173,2.2015,2.2138,2.2263,0.0,0.0,0.0,0.0,0.0,0.0,0.0,0.0,0.0,0.0,0.0,0.0,0.0,0.0,0.0,0.0,0.0,0.0,0.0,0.0,0.0,1.3801,1.307,1.3411,1.5081,1.4653,1.4751,1.5387,1.5462,1.5487,1.5513,1.5971,1.5991,1.5709,1.6195,1.6262,1.6003,1.6102,1.6434,1.685,1.6089,1.635,1.7088,1.6633,0.0,0.0,0.0,0.0,0.0,0.0,0.0,0.0,0.0,0.0,0.0,2.0254,2.0681,2.1055,2.0302,1.9834,1.9471,1.9156,1.8788,1.8577,1.8664,1.8447,1.8226,1.8266,1.8095,1.7909,0.0,0.0,1.8983,1.9469,2.0152,2.0792,2.1342,2.1616,2.1492,0.0,0.0,0.0,0.0,0.0,0.0,2.2035,2.2137,2.2184,2.2184,2.2184,2.2184,2.2184,2.2184,2.2184,2.2184,2.2184,2.2184,2.2184,2.2184,2.2231,2.2356,2.1716,2.1863,2.2526,2.1747,2.1462,2.1591,2.2006,2.1833,2.1369,2.1945,2.2184,2.2217,2.2526,2.2434,2.2217,0.0,0.0,0.0,0.0,0.0,0.0,0.0,0.0,0.0,0.0,0.0,0.0,0.0,0.0,0.0,0.0,0.0,0.0,0.0,0.0,0.0,0.0,0.0,1.2443,1.3692,1.3671,0.0,0.0,0.0,1.5487,1.5636,1.5681,1.5709,1.5709,1.5634,1.5659,1.5685,1.5554,1.5646,1.5942,0.0,1.5944,1.6236,0.0,0.0,0.0,0.0,0.0,0.0,0.0,0.0,0.0,0.0,0.0,2.01,0.0,0.0,2.0177,1.9778,1.9346,1.9006,1.8741,1.8159,1.776,1.8201,1.7828,1.7449,1.7895,1.8175,1.8101,0.0,0.0,0.0,1.9039,1.9894,0.0,2.1342,2.1471,0.0,2.122,0.0,2.124,2.1192,2.1192,0.0,0.0,2.1458,2.1616,2.1616,2.1616,2.1616,2.1616,2.1616,2.1616,2.1616,2.1616,2.1712,2.1902,2.1902,2.2044,2.2263,2.2062,2.2122,2.231,2.2108,2.2006,2.202,2.1941,2.1805,2.168,2.1595,2.1616,2.1602,2.1698,2.1698,2.1616,0.0,0.0,0.0,0.0,0.0,0.0,0.0,0.0,0.0,0.0,0.0,0.0,0.0,0.0,0.0,0.0,0.0,0.0,0.0,0.0,0.0,0.0,0.0,1.1567,1.2641,1.2813,1.3253,0.0,0.0,0.0,0.0,1.5017,1.5055,1.502,1.5122,1.5154,1.5131,0.0,0.0,0.0,0.0,0.0,0.0,0.0,0.0,0.0,0.0,0.0,0.0,0.0,0.0,1.9625,1.9286,1.9655,2.0131,1.9741,0.0,1.9528,1.9014,1.8612,1.8159,1.7572,1.712,1.6841,1.7201,1.698,1.6844,1.7277,1.7475,0.0,0.0,0.0,0.0,0.0,0.0,0.0,2.0962,2.118,2.118,0.0,2.1068,0.0,2.0709,2.0709,2.056,0.0,2.0759,2.1055,2.0908,2.1055,2.1166,2.1166,2.1326,2.1423,2.1423,2.1423,2.1471,2.1616,2.1616,2.1602,2.1589,2.1746,2.1746,2.1589,2.1793,2.1841,2.1841,2.1712,2.1616,2.1616,2.1471,2.1423,2.1423,2.1423,2.1423,2.1375,0.0,0.0,0.0,0.0,0.0,0.0,0.0,0.0,0.0,0.0,1.3446,0.0,0.0,0.0,0.0,0.0,0.0,0.0,0.0,0.0,0.0,0.0,1.0788,1.0847,1.1893,0.0,0.0,0.0,0.0,0.0,0.0,0.0,0.0,0.0,0.0,0.0,0.0,0.0,0.0,0.0,0.0,0.0,0.0,0.0,0.0,0.0,0.0,0.0,0.0,0.0,1.8407,1.9924,1.9544,1.9898,2.0311,1.9864,1.9456,1.9014,1.821,1.768,1.716,1.633,1.6027,1.5983,1.6071,1.6151,1.6275,1.6626,0.0,1.6307,1.5941,1.6121,1.6662,1.78,0.0,1.9201,2.038,2.0785,2.0749,2.0296,2.0472,2.0346,1.9695,1.9643,1.95,1.9198,1.9952,2.0333,2.0093,2.0396,2.0597,2.0597,2.0957,2.1118,2.1118,2.1118,2.1166,2.1166,2.1166,2.1006,2.0746,2.1166,2.1104,2.0795,2.1215,2.1423,2.1423,2.1375,2.1375,2.1326,2.1277,2.1277,2.1277,2.1166,2.1118,2.1068,0.0,0.0,0.0,0.0,0.0,0.0,0.0,0.0,0.0,0.0,1.348,1.326,0.0,0.0,0.0,0.0,0.0,0.0,0.0,0.0,0.0,0.0,0.0,0.0,0.0,0.0,0.0,0.0,0.0,0.0,0.0,0.0,0.0,0.0,0.0,0.0,0.0,0.0,0.0,0.0,0.0,0.0,0.0,0.0,0.0,0.0,0.0,0.0,0.0,0.0,1.8738,2.036,1.9767,1.9718,1.9788,1.8968,1.8679,1.8447,1.7666,1.7092,1.6629,1.6201,1.5599,1.5287,1.594,1.583,0.0,0.0,0.0,1.6297,1.5413,1.6126,1.6995,1.728,0.0,0.0,0.0,0.0,2.0131,0.0,0.0,0.0,0.0,0.0,0.0,0.0,1.8321,1.875,1.9512,1.9617,1.9668,1.9668,1.972,1.9772,1.9772,1.9772,1.9862,2.0055,2.0055,2.0144,2.0333,2.0696,2.0858,2.0795,2.1215,2.1423,2.1375,2.118,2.1082,2.1033,2.0749,2.0662,2.0599,1.9952,1.9734,1.9683,0.0,0.0,0.0,0.0,0.0,0.0,0.0,1.3793,1.3642,1.3594,1.3513,1.3312,1.2983,1.3018,1.2855,0.0,0.0,0.0,0.0,0.0,0.0,0.0,0.0,0.0,0.0,0.0,0.0,0.0,0.0,0.0,0.0,0.0,0.0,0.0,0.0,0.0,0.0,0.0,0.0,0.0,0.0,0.0,0.0,0.0,0.0,0.0,0.0,0.0,0.0,0.0,1.7063,1.8634,1.9126,1.9147,1.8945,1.8616,1.8187,1.7707,1.7063,1.6557,1.6039,1.5377,1.4949,1.4755,1.5136,0.0,0.0,0.0,0.0,1.5661,1.5067,0.0,0.0,0.0,0.0,0.0,0.0,0.0,0.0,0.0,0.0,0.0,0.0,0.0,0.0,1.7567,1.7523,1.7744,1.8224,1.8494,1.8827,1.9198,1.921,1.9263,1.942,1.942,1.9473,1.9617,1.9617,1.9552,1.9488,2.0093,2.0258,2.0118,2.0785,2.0871,2.066,2.0396,2.0156,1.9914,1.9592,1.9436,1.9436,1.9056,1.8951,1.8898,0.0,0.0,0.0,0.0,0.0,0.0,0.0,1.3661,1.3578,1.3578,1.3528,1.3412,1.3193,1.3108,1.2949,0.0,0.0,0.0,0.0,0.0,0.0,0.0,0.0,0.0,0.0,0.0,0.0,0.0,0.0,0.0,0.0,0.0,0.0,0.0,0.0,0.0,0.0,0.0,0.0,0.0,0.0,0.0,0.0,0.0,0.0,0.0,0.0,0.0,0.0,0.0,1.5164,1.6361,1.7695,1.8082,1.8021,1.8145,1.7707,1.706,1.6514,1.5996,1.5433,1.4605,1.4373,1.4391,1.441,1.4803,0.0,0.0,1.5195,1.4982,1.4735,0.0,0.0,0.0,0.0,0.0,0.0,0.0,0.0,0.0,0.0,0.0,0.0,0.0,0.0,1.7032,1.7032,1.7088,1.719,1.7579,1.8007,1.8614,1.8614,1.8774,1.904,1.9052,1.9052,1.9105,1.9105,1.8946,1.8691,1.95,1.9656,1.9316,2.0182,2.0271,1.9798,1.9579,1.9226,1.8869,1.8536,1.8417,1.8417,1.819,1.8147,1.8135,0.0,0.0,0.0,0.0,0.0,0.0,0.0,1.3293,1.3578,1.3512,1.3512,1.3528,1.3639,1.3461,1.3227,0.0,0.0,0.0,0.0,0.0,0.0,0.0,0.0,0.0,0.0,0.0,0.0,0.0,0.0,0.0,0.0,0.0,0.0,0.0,0.0,0.0,0.0,0.0,0.0,0.0,0.0,0.0,0.0,0.0,0.0,0.0,0.0,0.0,0.0,0.0,0.0,1.4366,1.5044,1.6072,1.7058,1.7126,0.0,0.0,1.6095,1.5534,1.5051,1.4512,1.4373,1.4391,1.441,0.0,0.0,1.5095,1.4947,1.4739,1.4397,1.4492,0.0,0.0,0.0,0.0,0.0,0.0,0.0,0.0,0.0,0.0,0.0,0.0,0.0,1.6488,1.6488,1.6705,1.719,1.7245,1.7301,1.7357,1.7357,1.7523,1.7865,1.7877,1.7975,1.8193,1.8193,1.8193,1.8193,1.904,1.9263,1.8905,1.9695,1.9695,1.9093,1.9093,1.8857,1.8525,1.8255,1.8147,1.8038,1.7268,1.6933,1.6877,0.0,0.0,0.0,0.0,0.0,0.0,1.2692,1.3228,1.3562,1.3462,1.3462,1.3528,1.3638,1.3511,1.3362,1.3261,0.0,0.0,0.0,0.0,0.0,0.0,0.0,0.0,0.0,0.0,0.0,0.0,0.0,0.0,0.0,0.0,0.0,0.0,0.0,0.0,0.0,0.0,0.0,0.0,0.0,0.0,0.0,0.0,0.0,0.0,0.0,0.0,0.0,0.0,0.0,0.0,1.266,1.3548,0.0,0.0,1.5803,1.5508,1.488,1.4628,1.4455,1.3941,1.3847,1.3936,1.3979,0.0,1.4651,1.458,1.4528,1.4461,1.4332,1.4193,1.4375,0.0,1.5085,1.5176,0.0,0.0,0.0,0.0,0.0,0.0,0.0,0.0,1.6124,1.5836,1.5904,1.6077,1.6296,1.6581,1.6818,1.6976,1.6976,1.7088,1.7423,1.7423,1.7468,1.7579,1.7579,1.7579,1.7579,1.8236,1.8398,1.829,1.8845,1.8792,1.8333,1.8104,1.7776,1.7335,1.7,1.6832,1.6729,1.64,1.6239,1.6239,0.0,0.0,0.0,0.0,0.0,1.1789,1.2261,1.3063,1.3562,1.3412,1.3495,1.3575,1.365,1.3509,1.3445,1.356,1.3294,0.0,0.0,0.0,0.0,0.0,0.0,0.0,0.0,0.0,0.0,0.0,0.0,0.0,0.0,0.0,0.0,0.0,0.0,0.0,0.0,0.0,0.0,0.0,0.0,0.0,0.0,0.0,0.0,0.0,0.0,0.0,0.0,0.0,0.0,0.0,0.0,0.0,0.0,0.0,1.466,1.4525,1.3943,1.4011,1.4082,1.3515,1.361,1.379,0.0,0.0,1.4375,1.4186,1.4235,1.4268,1.4059,1.3841,1.3813,1.4223,1.3959,1.4009,1.4882,0.0,0.0,0.0,0.0,0.0,0.0,1.5197,1.5342,1.4991,1.5118,1.5186,1.5186,1.5604,1.6077,1.6648,1.6705,1.6807,1.7088,1.7088,1.7134,1.719,1.719,1.719,1.7256,1.7689,1.7843,1.7744,1.8159,1.7995,1.7512,1.7279,1.6842,1.6353,1.6066,1.5904,1.5856,1.574,1.5682,1.5662,0.0,0.0,0.0,0.0,0.0,0.0,1.1514,1.2687,1.3562,1.3412,1.3559,1.3731,1.3798,1.3632,1.3555,1.3698,1.3379,0.0,0.0,0.0,0.0,0.0,0.0,0.0,0.0,0.0,1.2629,1.3277,1.3358,0.0,0.0,0.0,0.0,0.0,0.0,0.0,0.0,0.0,0.0,0.0,0.0,0.0,0.0,0.0,0.0,0.0,0.0,0.0,0.0,0.0,0.0,0.0,0.0,0.0,0.0,0.0,1.391,1.4596,1.3586,1.3764,1.4082,1.3515,1.3894,1.4258,0.0,1.4335,1.47,1.3976,1.4072,1.4124,1.3527,1.3425,1.343,1.3484,1.3643,1.3884,1.4416,0.0,0.0,0.0,0.0,0.0,0.0,1.4212,1.4025,1.4025,1.4025,1.4025,1.4025,1.4341,1.5128,1.6374,1.6384,1.6545,1.6818,1.6818,1.692,1.719,1.719,1.7256,1.7334,1.7689,1.7634,1.7245,1.7678,1.7401,1.6627,1.6627,1.6353,1.5914,1.574,1.5672,1.5672,1.5332,1.5215,1.5157,0.0,0.0,0.0,0.0,0.0,0.0,0.0,1.2238,1.2976,1.3344,1.3495,1.3592,1.365,1.3509,1.3479,1.356,1.3311,0.0,0.0,0.0,0.0,0.0,0.0,0.0,0.0,0.0,1.3034,1.3725,1.3725,1.3882,1.4137,0.0,0.0,0.0,0.0,0.0,0.0,0.0,0.0,0.0,0.0,0.0,0.0,0.0,0.0,0.0,0.0,0.0,0.0,0.0,0.0,0.0,0.0,0.0,0.0,0.0,0.0,0.0,1.2743,1.2773,1.2679,1.2278,1.2556,1.2958,1.2878,1.2945,1.3131,1.3557,1.3415,1.3259,1.345,1.3229,1.3165,1.3506,1.3639,0.0,0.0,0.0,0.0,0.0,0.0,0.0,0.0,0.0,1.2895,1.3312,1.3855,1.3974,1.3563,1.4332,1.4864,1.5069,1.5303,1.543,1.5468,1.5468,1.571,1.6181,1.6181,1.6363,1.6658,1.6818,1.6751,1.6457,1.6616,1.6457,1.6134,1.6134,1.5961,1.574,1.574,1.5614,1.5449,1.4983,1.4535,1.4183,0.0,0.0,0.0,0.0,0.0,0.0,0.0,1.1625,1.2213,1.2557,1.2687,1.2865,1.3186,1.3129,1.3171,1.346,1.3278,0.0,0.0,0.0,0.0,0.0,0.0,0.0,1.2901,1.2829,1.3116,1.3792,1.4041,1.4325,1.4622,1.4447,1.3949,0.0,0.0,0.0,0.0,0.0,0.0,0.0,0.0,0.0,0.0,0.0,0.0,0.0,0.0,0.0,0.0,0.0,0.0,0.0,0.0,0.0,0.0,0.0,1.0615,0.0,0.0,1.1902,1.1836,1.1784,1.204,1.2289,1.2345,1.2235,1.2248,1.2786,1.2737,1.2698,1.2943,1.292,1.2914,1.3108,1.342,0.0,0.0,0.0,0.0,0.0,0.0,0.0,0.0,1.2518,1.1859,1.2269,1.2742,1.2862,1.2518,1.3348,1.3795,1.3631,1.4222,1.4579,1.4579,1.4706,1.501,1.5488,1.5614,1.5904,1.6306,1.6306,1.6192,1.6009,1.6009,1.5961,0.0,1.5798,1.573,1.5604,1.5604,1.5303,1.4885,1.4354,1.3798,1.3138,0.0,0.0,0.0,0.0,0.0,0.0,0.0,1.0923,1.1317,1.1311,1.1412,1.1751,1.2425,1.2505,1.2742,1.3354,0.0,0.0,0.0,0.0,0.0,0.0,0.0,0.0,1.2901,1.2703,1.2943,1.3626,1.4241,1.4606,1.4722,1.5352,1.4936,1.3595,1.3468,0.0,0.0,0.0,0.0,0.0,0.0,0.0,0.0,0.0,0.0,0.0,0.0,0.0,0.0,0.0,0.0,0.0,0.0,0.0,0.0,0.0,0.0,0.0,0.0,0.0,0.0,0.0,1.2026,1.2128,1.2034,1.1975,0.0,1.1738,1.2088,1.2366,1.2201,1.2497,1.2686,1.2543,1.3128,0.0,0.0,0.0,0.0,0.0,0.0,0.0,1.2129,1.151,1.1159,1.1077,1.1137,1.1122,1.1041,1.1699,1.2051,1.1989,1.3141,1.3819,1.3914,1.4222,1.4588,1.505,1.5362,1.572,1.5989,1.5989,1.5951,1.5914,1.5914,1.5798,1.5672,1.5672,1.5546,1.541,1.541,1.4855,1.4114,1.3602,1.2917,1.206,0.0,0.0,0.0,0.0,0.0,0.0,0.0,0.0,0.0,0.0,1.1404,1.1473,1.1596,1.2101,1.2453,0.0,0.0,0.0,0.0,0.0,0.0,0.0,0.0,0.0,1.2901,1.2757,1.3057,1.3824,1.3876,1.4223,1.4847,1.4498,1.4042,1.35,1.2971,1.2598,0.0,0.0,0.0,0.0,0.0,0.0,0.0,0.0,0.0,0.0,0.0,1.1285,0.0,0.0,0.0,0.0,0.0,0.0,0.0,0.0,1.0186,1.0027,1.0258,0.0,1.0329,1.0393,1.047,1.0612,0.0,1.0829,0.0,0.0,0.0,0.0,0.0,1.2566,1.2576,0.0,0.0,0.0,0.0,0.0,0.0,0.0,0.0,1.3283,1.2722,1.2137,1.1578,1.1152,1.1428,1.1381,1.0777,1.1357,1.1461,1.0989,1.1464,1.2145,1.2842,1.2903,1.3208,1.3743,1.3803,1.4332,1.5206,1.5206,1.54,1.574,1.574,1.5662,1.5478,1.5478,1.5371,1.5264,1.5264,1.4578,1.3593,1.3088,1.2036,1.0809,0.0,0.0,0.0,0.0,0.0,0.0,0.0,0.0,0.0,0.0,0.0,1.0463,1.0758,1.113,0.0,0.0,0.0,0.0,0.0,0.0,0.0,0.0,0.0,1.2924,1.2904,1.2776,1.3057,1.3746,1.3653,1.3998,1.4751,1.4433,1.4042,1.36,1.2852,1.2514,0.0,0.0,0.0,0.0,0.0,0.0,0.0,0.0,0.0,0.0,1.163,1.1384,0.0,1.1239,1.0991,1.0705,0.0,0.0,0.0,0.0,1.0348,1.0276,1.0363,1.0315,1.0298,1.0432,1.0498,1.0586,0.0,0.0,0.0,0.0,0.0,0.0,0.0,0.0,0.0,0.0,0.0,0.0,0.0,0.0,0.0,0.0,0.0,1.2802,0.0,1.1565,1.0821,1.0473,1.0688,1.0664,1.0319,1.0797,1.0929,1.0587,1.0755,1.1182,1.1882,1.2003,1.2437,1.3078,1.3092,1.3688,1.4805,1.4805,1.5059,1.5546,1.5546,1.5488,1.5313,1.5313,1.5079,1.4628,1.4501,1.3633,1.2439,1.1798,1.0786,0.9672,0.0,0.0,0.0,0.0,0.0,0.0,0.0,0.0,0.0,0.0,0.0,0.0,0.0,0.0,0.0,0.0,0.0,0.0,0.0,0.0,0.0,0.0,1.3067,1.2979,1.2924,1.2778,1.2974,1.3487,1.3394,1.3684,1.4284,1.4336,1.4068,1.3556,1.282,1.251,0.0,0.0,0.0,0.0,0.0,0.0,0.0,0.0,0.0,0.0,0.0,0.0,0.0,1.1307,1.1132,1.092,1.0968,0.0,0.0,0.0,0.0,0.0,1.0813,1.0858,1.0904,1.1013,1.1155,1.1263,0.0,0.0,0.0,0.0,0.0,0.0,0.0,0.0,0.0,0.0,0.0,0.0,0.0,0.0,0.0,0.0,1.2502,0.0,1.2049,1.0737,0.9784,0.968,0.9673,0.9707,0.9821,1.0072,1.0328,1.0441,1.0485,1.0646,1.0924,1.127,1.1817,1.2562,1.2504,1.32,1.4529,1.4464,1.4768,1.5362,1.5362,1.5274,1.5061,1.4993,1.4458,1.3762,1.3367,1.239,1.0996,1.0272,0.946,0.8637,0.0,0.0,0.0,0.0,0.0,0.0,0.0,0.0,0.0,0.0,0.0,0.0,0.0,0.0,0.0,0.0,0.0,0.0,0.0,0.0,0.0,1.3491,1.3243,1.3049,1.2995,1.285,1.2859,1.3011,1.2842,1.2768,1.283,1.2774,1.267,1.254,1.251,1.2562,1.2681,1.2607,0.0,0.0,0.0,0.0,0.0,0.0,0.0,0.0,0.0,0.0,0.0,1.1376,1.1215,1.1015,1.1262,0.0,0.0,0.0,0.0,0.0,1.1314,1.1735,1.1885,1.0926,1.1242,1.1708,0.0,0.0,0.0,0.0,0.0,0.0,0.0,0.0,0.0,0.0,0.0,0.0,0.0,0.0,0.0,1.2624,0.0,1.1901,1.1502,1.0877,1.0299,0.9749,0.9563,0.9445,0.9499,0.9535,0.9609,0.976,1.0031,1.0199,1.025,1.0578,1.0945,1.1376,1.1047,1.19,1.3674,1.3403,1.3974,1.5205,1.5205,1.4955,1.4459,1.3956,1.3396,1.2814,1.2195,1.1264,1.0103,0.9377,0.8543,0.7597,0.0,0.0,0.0,0.0,0.0,0.0,0.0,0.0,0.0,0.0,0.0,0.0,0.0,0.0,0.0,0.0,0.0,0.0,0.0,0.0,1.2532,1.2832,1.3076,1.3192,1.3122,1.3086,1.3013,1.2848,1.263,1.2475,1.2383,1.2363,1.2363,1.2403,1.2506,1.2588,1.263,1.261,0.0,0.0,0.0,0.0,0.0,0.0,0.0,0.0,0.0,0.0,0.0,0.0,1.1376,1.1285,1.1421,0.0,0.0,0.0,0.0,0.0,1.147,1.188,1.2151,1.1607,1.1966,1.2494,0.0,0.0,0.0,0.0,0.0,0.0,0.0,0.0,0.0,0.0,0.0,0.0,0.0,0.0,1.2403,0.0,0.0,1.0973,1.0556,0.998,0.9535,0.9227,0.9213,0.9205,0.9271,0.9361,0.9465,0.9614,0.9556,0.9528,0.9528,0.967,1.0093,1.0806,1.0485,1.102,1.2364,1.2746,1.338,1.4322,1.4639,1.4592,1.4166,1.3401,1.2638,1.1855,1.1107,0.9986,0.8731,0.7862,0.7035,0.6253,0.0,0.0,0.0,0.0,0.0,0.0,0.0,0.0,0.0,0.0,0.0,0.0,0.0,0.0,0.0,0.0,0.0,0.0,0.0,1.1313,1.2046,1.2323,1.2818,1.3109,1.3158,1.314,1.2998,1.2738,1.2459,1.224,1.2086,1.2185,1.2282,1.2379,1.2506,1.2588,1.261,1.261,1.261,0.0,0.0,0.0,0.0,0.0,0.0,0.0,0.0,0.0,0.0,0.0,0.0,0.0,0.0,0.0,0.0,1.1489,1.1489,1.1533,1.1678,1.1952,1.2242,1.2424,0.0,0.0,0.0,0.0,0.0,0.0,0.0,0.0,0.0,0.0,0.0,0.0,0.0,0.0,0.0,1.2677,1.2187,1.1519,1.0736,1.0115,0.9762,0.9211,0.8857,0.8857,0.8956,0.9113,0.9263,0.9361,0.9465,0.9614,0.9309,0.9106,0.9008,0.9008,0.9437,1.0364,1.0093,1.0521,1.16,1.2247,1.2837,1.3548,1.3979,1.3989,1.3626,1.2685,1.1746,1.0886,0.9795,0.8538,0.7194,0.642,0.571,0.5117,0.0,0.0,0.0,0.0,0.0,0.0,0.0,0.0,0.0,0.0,0.0,0.0,0.0,0.0,0.0,0.0,0.0,0.0,0.0,1.0513,1.1182,1.2599,1.2532,1.265,1.3015,1.2778,1.261,1.2517,1.2061,1.1717,1.1468,1.1848,1.1991,1.1955,1.2323,1.2542,1.261,1.261,1.2684,1.2792,0.0,0.0,0.0,0.0,0.0,0.0,0.0,0.0,0.0,0.0,0.0,0.0,0.0,0.0,1.1489,1.1489,1.1489,1.162,1.2192,1.2283,1.2381,1.3124,0.0,0.0,0.0,0.0,0.0,0.0,0.0,0.0,0.0,0.0,0.0,0.0,0.0,0.0,1.361,0.0,1.1368,1.1326,1.0336,0.9666,0.9614,0.9211,0.9008,0.9008,0.9113,0.9263,0.9361,0.9413,0.9465,0.9614,0.9562,0.9361,0.9008,0.9008,0.9172,0.9598,0.9493,1.0409,1.2159,1.1785,1.226,1.3496,1.356,1.322,1.2536,1.1416,1.0621,0.9925,0.8168,0.6657,0.5458,0.5391,0.5007,0.4574,0.0,0.0,0.0,0.0,0.0,0.0,0.0,0.0,0.0,0.0,0.0,0.0,0.0,0.0,0.0,0.0,0.0,0.0,0.0,1.0214,1.0615,1.113,1.1749,1.1843,1.1332,1.2169,1.2411,1.2061,1.1803,1.168,1.1657,1.2092,1.2427,1.2641,1.2855,1.2944,1.2964,1.2799,1.2743,1.2797,1.2794,0.0,0.0,0.0,0.0,0.0,0.0,0.0,0.0,0.0,1.1564,1.1556,0.0,1.1444,1.1444,1.1489,1.1489,1.1547,1.1794,1.2024,1.2356,1.3037,0.0,0.0,0.0,0.0,0.0,0.0,0.0,0.0,0.0,0.0,0.0,0.0,0.0,1.361,1.3266,1.2197,1.1318,1.0889,1.0269,0.9666,0.9263,0.9113,0.9061,0.9106,0.9159,0.9263,0.9413,0.9465,0.9562,0.9614,0.9093,0.8791,0.8633,0.8315,0.8366,0.8695,0.8944,0.9633,1.0729,1.1145,1.175,1.2422,1.2742,1.2713,1.2245,1.0874,1.0127,0.9651,0.7486,0.6095,0.5281,0.4952,0.4457,0.4015,0.0,0.0,0.0,0.0,0.0,0.0,0.0,0.0,0.0,0.0,0.0,0.0,0.0,0.0,0.0,0.0,0.0,0.0,0.9448,0.9786,1.003,1.0125,1.0791,1.0978,1.0615,1.1443,1.1692,1.134,1.1555,1.1743,1.1913,1.2479,1.2918,1.3194,1.3295,1.3312,1.3278,1.3054,1.2928,1.2871,1.2869,1.2754,0.0,0.0,0.0,0.0,0.0,0.0,0.0,0.0,1.1556,1.1519,0.0,0.0,0.0,0.0,1.1489,1.1466,1.1466,1.1669,1.2046,0.0,0.0,0.0,0.0,0.0,0.0,0.0,0.0,0.0,0.0,0.0,0.0,0.0,1.4014,1.3505,1.3064,1.194,1.0998,1.0618,1.0012,0.9465,0.8956,0.9008,0.9113,0.9211,0.9263,0.9361,0.9465,0.9413,0.9413,0.9413,0.8738,0.8315,0.8156,0.7883,0.7836,0.8103,0.8573,0.9242,1.0087,1.0685,1.127,1.1809,1.2111,1.218,1.1965,1.0697,0.9806,0.9013,0.7004,0.5823,0.5226,0.4625,0.4187,0.391,0.0,0.0,0.0,0.0,0.0,0.0,0.0,0.0,0.0,0.0,0.0,0.0,0.0,0.0,0.0,0.0,0.0,0.0,0.9312,0.9174,0.9361,0.9963,0.9678,1.0064,1.1265,1.0624,1.0298,1.0313,1.1308,1.1913,1.2128,1.2921,1.334,1.3415,1.355,1.357,1.3507,1.3345,1.3192,1.3013,1.3013,1.2922,0.0,0.0,0.0,0.0,0.0,0.0,0.0,0.0,1.1747,1.1762,0.0,0.0,0.0,1.1489,1.1444,1.1399,1.1399,1.1307,0.0,0.0,0.0,0.0,0.0,0.0,0.0,0.0,0.0,0.0,0.0,0.0,0.0,1.4593,1.4107,1.3627,1.3054,1.1516,1.0466,1.0568,0.9562,0.8804,0.8804,0.9061,0.9211,0.9211,0.9465,0.9614,0.9614,0.9211,0.9008,0.9008,0.858,0.8156,0.7723,0.7723,0.7771,0.7925,0.8508,0.9451,1.06,1.0328,1.0838,1.1877,1.1778,1.1628,1.1469,1.0854,0.954,0.7788,0.6632,0.5823,0.5226,0.4463,0.4307,0.448,0.0,0.0,0.0,0.0,0.0,0.0,0.0,0.0,0.0,0.0,0.0,0.0,0.0,0.0,0.0,0.0,0.0,0.0,0.9312,0.9085,0.9038,0.9213,0.9402,0.9633,0.9892,0.9889,1.0175,1.0801,1.1559,1.2219,1.2751,1.3323,1.3728,1.4029,1.3979,1.3917,1.3818,1.3572,1.3378,1.3261,1.3085,1.2977,0.0,0.0,0.0,0.0,0.0,0.0,0.0,0.0,0.0,0.0,1.1489,0.0,0.0,1.1489,1.1489,1.1466,1.1399,0.0,0.0,0.0,0.0,0.0,0.0,0.0,0.0,0.0,0.0,0.0,0.0,0.0,0.0,1.4466,1.3684,1.3054,1.3016,1.1584,1.0592,1.0744,0.9777,0.9061,0.9061,0.9061,0.9113,0.9211,0.9256,0.9256,0.904,0.9001,0.885,0.8586,0.8156,0.783,0.7723,0.7622,0.767,0.7925,0.8712,0.954,1.0482,1.0744,1.1167,1.1769,1.1628,1.1477,1.1276,1.0182,0.8974,0.7694,0.6956,0.5987,0.5007,0.4893,0.4239,0.3249,0.0,0.0,0.0,0.0,0.0,0.0,0.0,0.0,0.0,0.0,0.0,0.0,0.0,0.0,0.0,0.0,0.0,0.0,0.0,0.9022,0.8869,0.8829,0.9,0.9123,0.9141,0.9976,1.0534,1.0772,1.1548,1.2233,1.2856,1.3598,1.4074,1.4332,1.4201,1.3908,1.351,1.3261,1.3079,1.2938,1.2791,1.2838,1.2895,0.0,0.0,0.0,0.0,0.0,0.0,0.0,0.0,0.0,0.0,0.0,0.0,1.1131,1.1183,1.1213,1.1527,0.0,0.0,0.0,0.0,0.0,0.0,0.0,0.0,0.0,0.0,0.0,0.0,0.0,0.0,1.3836,1.3198,1.2716,1.2433,1.1342,1.0482,1.0438,0.9569,0.9061,0.9061,0.9008,0.9061,0.9106,0.9159,0.9106,0.8995,0.8791,0.8639,0.8573,0.7723,0.7396,0.7557,0.7408,0.7563,0.8078,0.9266,1.0195,1.088,1.0964,1.1226,1.1628,1.1377,1.1226,1.1015,0.9769,0.8817,0.8119,0.6902,0.5987,0.5226,0.4787,0.4079,0.3086,0.0,0.0,0.0,0.0,0.0,0.0,0.0,0.0,0.0,0.0,0.0,0.0,0.0,0.0,0.0,0.0,0.0,0.0,0.0,0.899,0.8852,0.8729,0.8743,0.8907,0.922,1.0717,1.1171,1.0494,1.1415,1.212,1.2639,1.3748,1.432,1.4374,1.4167,1.36,1.2772,1.2581,1.2396,1.2222,1.219,1.2438,1.2699,1.1754,0.0,0.0,0.0,0.0,0.0,0.0,0.0,0.0,1.0589,1.0175,0.984,1.0624,1.0742,1.0772,0.0,0.0,0.0,0.0,0.0,0.0,0.0,0.0,0.0,0.0,0.0,0.0,0.0,1.4547,1.3988,1.2957,1.2764,1.2433,1.1619,1.0838,1.0261,0.9865,0.9211,0.8811,0.8804,0.891,0.8956,0.8956,0.9113,0.9159,0.9106,0.8586,0.8368,0.862,0.7396,0.6918,0.7289,0.7187,0.7557,0.8383,1.0069,1.1107,1.1551,1.1217,1.1167,1.1427,1.1015,1.082,1.071,0.9392,0.8869,0.8652,0.6573,0.5719,0.5555,0.4418,0.3872,0.3256,0.0,0.0,0.0,0.0,0.0,0.0,0.0,0.0,0.0,0.0,0.0,0.0,0.0,0.0,0.0,0.0,0.0,0.0,0.0,0.9043,0.888,0.8846,1.0051,1.1005,1.163,1.1511,1.137,1.1257,1.1952,1.2442,1.2788,1.372,1.4175,1.4221,1.3513,1.301,1.2679,1.2021,1.1673,1.1582,1.1367,1.1334,1.1326,1.0269,0.9702,0.0,0.0,0.0,0.0,0.0,0.0,0.0,1.1285,1.087,1.0512,1.1161,1.0922,1.0612,0.0,0.0,0.0,0.0,0.0,0.0,0.0,0.0,0.0,0.0,0.0,0.0,1.4605,1.4093,1.3552,1.2909,1.2491,1.2017,1.1418,1.0787,1.0261,0.9865,0.9211,0.8857,0.8962,0.891,0.8857,0.8857,0.8962,0.8896,0.858,0.8527,0.8203,0.7509,0.7187,0.7031,0.7133,0.73,0.7931,0.902,1.0442,1.1124,1.1217,1.1792,1.1692,1.1015,1.0541,1.0226,0.9917,0.8324,0.7688,0.7528,0.6136,0.5336,0.4908,0.4809,0.3125,0.0726,0.0,0.0,0.0,0.0,0.0,0.0,0.0,0.0,0.0,0.0,0.0,0.0,0.0,0.0,0.0,0.0,0.0,0.0,0.0,0.9139,0.9001,0.9001,1.0146,1.0795,1.0817,1.0899,1.0773,1.046,1.1206,1.1836,1.2353,1.3538,1.4087,1.4006,1.3174,1.2534,1.203,1.1179,1.0817,1.0766,1.0562,1.0667,1.0843,0.9947,0.9457,0.9233,0.8741,0.0,0.0,0.0,0.0,0.0,0.0,0.0,0.9895,1.0165,1.0157,1.0249,0.0,0.0,0.0,0.0,0.0,0.0,0.0,0.0,0.0,0.0,0.0,0.0,1.414,1.381,1.3372,1.2589,1.2264,1.1819,1.0998,1.0576,1.0115,0.9413,0.9008,0.8804,0.891,0.8857,0.8804,0.8804,0.8857,0.8804,0.8586,0.8262,0.8049,0.799,0.7241,0.7074,0.7551,0.7931,0.856,0.9429,1.0906,1.1625,1.1742,1.1891,1.1443,1.0541,1.0174,0.9592,0.8803,0.7581,0.6891,0.6568,0.5437,0.4901,0.4519,0.3116,0.1503,-0.0279,0.0,0.0,0.0,0.0,0.0,0.0,0.0,0.0,0.0,0.0,0.0,0.0,0.0,0.0,0.0,0.0,0.0,0.0,0.0,0.9277,0.9219,0.9321,0.993,1.0046,0.9558,1.0143,1.0161,0.9533,1.0318,1.1057,1.1799,1.3221,1.3898,1.387,1.2926,1.2078,1.1352,1.0343,0.9918,0.9881,0.9761,1.0039,1.0452,0.9812,0.9419,0.9132,0.8514,0.8612,0.9078,0.9505,0.0,0.0,0.0,0.0,0.9002,0.9044,0.9329,0.9806,0.0,0.0,0.0,0.0,0.0,0.0,0.0,0.0,0.0,0.0,0.0,1.4777,1.381,1.3621,1.3276,1.2264,1.2076,1.171,1.0568,1.0415,1.0012,0.891,0.8804,0.8804,0.8804,0.8804,0.8804,0.8804,0.8804,0.8804,0.8804,0.8109,0.8049,0.8745,0.7498,0.723,0.8025,0.8455,0.9026,0.974,1.1216,1.207,1.2365,1.1651,1.0897,1.0115,0.9592,0.8751,0.7635,0.6784,0.6145,0.5655,0.4736,0.4301,0.3907,0.1168,-0.0056,-0.0781,0.0,0.0,0.0,0.0,0.0,0.0,0.0,0.0,0.0,0.0,0.0,0.9957,0.9893,0.9881,0.0,0.0,0.0,0.0,0.9673,0.0,0.0,1.0196,1.0422,1.0806,1.1334,1.089,1.0617,1.0508,1.0588,1.0955,0.0,0.0,1.3391,1.3913,1.2358,1.1598,1.1394,0.9881,0.9161,0.9044,0.8975,0.8959,0.8973,0.8762,0.8586,0.8435,0.834,0.8612,0.9018,0.9078,0.9553,0.0,0.0,0.0,0.0,0.9531,0.9611,0.0,0.0,0.0,0.0,0.0,0.0,0.0,0.0,0.0,0.0,0.0,1.5289,1.4777,1.381,1.3621,1.3276,1.2264,1.2076,1.171,1.0568,1.0415,1.0012,0.891,0.8804,0.8804,0.8804,0.8804,0.8804,0.8804,0.8804,0.8804,0.8804,0.8699,0.8374,0.7883,0.7771,0.7711,0.7771,0.7931,0.8705,1.0108,1.1191,1.19,1.2169,1.1191,1.0387,0.9762,0.8423,0.7475,0.6843,0.5386,0.4846,0.4794,0.4024,0.3249,0.2411,0.1229,-0.0335,-0.2069,0.0,0.0,0.0,0.0,0.0,0.0,0.0,0.0,0.0,0.0,0.0,1.002,0.9971,0.9955,0.0,0.0,0.0,0.0,0.9761,0.9698,0.0,0.9995,1.0058,1.0231,1.0528,1.0232,1.0078,1.0033,1.0033,0.0,0.0,1.2085,1.2875,0.0,1.2271,1.1549,1.1376,0.9749,0.0,0.8891,0.8829,0.8981,0.9208,0.878,0.8789,0.8973,0.8559,0.8594,0.8873,0.9094,0.9514,0.9873,0.9543,0.0,0.0,0.0,0.0,0.0,0.0,0.0,0.0,0.0,0.0,0.0,0.0,0.0,0.0,0.0,1.4563,1.4294,1.3888,1.3742,1.3362,1.2372,1.2126,1.1819,1.0998,1.0897,1.0584,0.9814,0.971,0.971,0.971,0.9413,0.9263,0.9263,0.8962,0.8752,0.8692,0.8368,0.799,0.7605,0.7337,0.7283,0.7605,0.8277,0.9422,1.1049,1.1158,1.125,1.1283,0.9835,0.9273,0.9384,0.8053,0.6934,0.5873,0.5011,0.4411,0.3968,0.2965,0.2411,0.2079,0.0949,-0.0558,-0.235,0.0,0.0,0.0,0.0,0.0,0.0,0.0,0.0,0.0,0.0,0.0,0.0,1.003,0.0,0.0,0.0,0.0,0.0,0.9875,0.0,0.0,0.0,0.9698,0.9666,0.9609,0.9603,0.957,0.95,0.0,0.0,1.1641,1.1682,1.2449,0.0,1.2477,1.1756,0.0,0.0,0.0,0.0,0.915,0.9384,0.9709,0.9395,0.9557,0.988,0.9091,0.8894,0.0,0.0,0.0,0.0,0.0,0.0,0.0,0.0,0.0,0.0,0.0,0.0,0.0,0.0,0.0,0.0,0.0,0.0,0.0,0.0,1.3674,1.3471,1.3529,1.3584,1.3351,1.2471,1.2224,1.1977,1.1377,1.1326,1.1057,1.0474,1.0415,1.0415,1.0415,0.9917,0.9614,0.9614,0.9054,0.8633,0.8415,0.7931,0.761,0.7498,0.7069,0.7122,0.7658,0.8797,0.9997,1.1209,1.0846,1.0541,1.0233,0.8685,0.8212,0.8639,0.741,0.6185,0.5062,0.4632,0.3913,0.3079,0.2465,0.1794,0.1065,0.0223,-0.1059,-0.2516,0.0,0.0,0.0,0.0,0.0,0.0,0.0,0.0,0.0,0.0,0.0,0.0,1.01,1.0082,1.0096,1.0096,0.0,0.0,0.0,0.0,0.0,0.0,0.0,0.0,0.9609,0.9603,0.957,0.95,0.0,0.0,1.151,1.1441,1.221,1.3586,1.3,1.2308,1.1528,0.0,0.0,0.0,0.0,0.9967,0.9944,1.0563,1.0872,1.0894,0.9974,0.0,0.0,0.0,0.0,0.0,0.0,0.0,0.8438,0.0,0.0,0.0,0.0,0.0,0.0,0.0,0.0,0.0,0.0,0.0,0.0,0.0,1.2886,1.2256,1.22,1.2754,1.3025,1.2421,1.2274,1.2076,1.1368,1.1326,1.1057,1.0474,1.0415,1.0415,1.0415,0.9917,0.9614,0.9614,0.8988,0.8415,0.7978,0.7652,0.7498,0.7515,0.7444,0.7664,0.8168,0.9249,0.9814,0.9917,1.0115,0.9961,0.9413,0.8106,0.7469,0.7315,0.5706,0.4842,0.4519,0.3913,0.2965,0.2015,0.3095,0.1403,-0.1572,-0.1286,-0.2009,-0.3176,0.0,0.0,0.0,0.0,0.0,0.0,0.0,0.0,0.0,0.0,0.0,0.0,0.0,1.0157,1.0155,1.0097,1.0063,0.0,0.0,0.0,0.0,0.0,0.0,0.0,0.0,0.9641,0.9577,0.0,0.0,0.9842,1.087,1.0755,1.0979,1.1486,1.1729,1.1911,1.1937,1.0285,0.0,0.0,0.0,0.0,1.0764,1.0997,1.1359,1.1647,0.0,0.0,0.0,0.0,0.0,0.0,0.9441,0.9009,0.8488,0.8335,0.0,0.0,0.0,0.0,0.0,0.0,0.0,0.0,0.0,0.0,0.0,1.2408,1.2081,1.1745,1.1735,1.1911,1.2087,1.1978,1.193,1.1831,1.1841,1.1819,1.1719,1.1501,1.1501,1.1501,1.1501,1.0998,1.0651,1.0549,0.9666,0.8942,0.8626,0.8203,0.7877,0.7753,0.7747,0.8171,0.9079,0.9131,0.951,1.019,0.9503,0.8869,0.8283,0.6999,0.6136,0.5592,0.468,0.4415,0.4632,0.3922,0.337,0.2699,0.0,-0.1347,-0.1909,-0.2965,-0.3236,-0.3284,0.0,0.0,0.0,0.0,0.0,0.0,0.0,0.0,1.0205,1.0193,0.0,0.0,0.0,0.0,1.0173,1.0121,1.0052,1.002,0.9997,1.0006,0.0,0.0,0.0,0.0,0.0,0.9677,0.9633,0.9603,0.9403,0.9698,0.0,1.0273,1.0316,1.0531,1.0745,1.1107,0.0,0.0,0.0,1.0213,0.0,0.0,1.1315,0.0,1.2222,1.2514,0.0,0.0,0.0,0.0,0.0,0.0,0.0,0.9283,0.8538,0.8396,0.0,0.0,0.0,0.0,0.0,0.0,0.0,0.0,0.0,0.0,1.1616,1.1616,1.1297,1.0998,1.0998,1.0809,1.0835,1.1312,1.1406,1.1547,1.1868,1.1883,1.1929,1.2058,1.2076,1.2076,1.2076,1.1569,1.1226,1.1124,1.0131,0.9406,0.9099,0.862,0.829,0.8159,0.8376,0.8849,0.9592,0.9242,0.9354,0.9829,0.8823,0.7972,0.7272,0.5987,0.5175,0.4677,0.4082,0.403,0.4359,0.3819,0.3607,0.31,-0.1741,-0.3098,-0.2527,-0.3752,-0.3965,-0.384,0.0,0.0,0.0,0.0,0.0,0.0,0.0,0.0,1.0201,1.0209,0.0,0.0,0.0,0.0,0.0,1.0102,1.01,1.0068,0.9997,0.9997,0.0,0.0,0.0,0.0,0.971,0.9702,0.9658,0.9601,0.9394,0.9637,1.0262,1.0063,1.0323,1.0906,1.0192,0.995,1.0113,0.0,1.0927,1.0279,0.0,1.2085,1.1585,0.0,0.0,0.0,1.2643,1.2417,0.0,1.1548,0.0,0.0,0.0,0.927,0.8542,0.8497,0.8811,0.0,0.0,0.0,0.0,0.0,0.0,0.0,0.0,0.0,1.1106,1.1118,1.053,1.0005,1.0005,0.9466,0.9352,1.0381,1.0856,1.1155,1.1453,1.148,1.1627,1.2061,1.2067,1.2076,1.2076,1.1528,1.1124,1.1124,1.0336,0.9658,0.9228,0.8954,0.8731,0.8731,0.9332,0.9614,0.9614,0.9614,0.9302,0.8771,0.8019,0.7272,0.6534,0.5289,0.4746,0.4746,0.3916,0.3527,0.3471,0.3548,0.3498,0.2927,-0.1741,-0.3548,-0.3596,-0.3644,-0.4187,-0.4952,0.0,0.0,0.0,0.0,0.0,1.0292,1.0291,1.027,1.0268,0.0,0.0,0.0,1.0272,1.0222,1.0183,1.0164,1.0074,1.0016,1.0001,1.001,0.9984,0.9973,0.9931,0.9856,0.9775,0.9666,0.9623,0.9595,0.9439,0.9425,0.9491,0.9359,0.9343,0.9479,0.9217,0.9134,0.9193,0.9492,0.0,0.0,1.0882,1.1434,0.0,0.0,0.0,0.0,0.0,1.3263,1.326,0.0,1.2455,1.1614,0.0,0.0,0.0,0.8681,0.0,0.0,0.8946,0.0,0.0,0.0,0.0,0.0,0.0,0.0,0.0,1.1325,1.0645,0.9972,0.995,0.963,0.9303,0.9159,0.9761,1.0442,1.0975,1.1343,1.1526,1.1636,1.1902,1.2076,1.2076,1.1828,1.1628,1.1528,1.0804,1.0285,1.0079,0.9969,0.9917,0.9917,1.0079,1.019,1.019,0.9406,0.8928,0.8771,0.7652,0.6794,0.6145,0.512,0.447,0.4089,0.2854,0.1788,0.1117,0.2867,0.1515,-0.1629,-0.2132,-0.2858,-0.3699,-0.4298,-0.4948,-0.5651,0.0,0.0,0.0,1.0734,1.0526,1.043,1.0781,1.0526,1.0291,0.0,0.0,0.0,1.0303,1.0561,1.0598,1.0238,1.0101,1.0035,0.9996,1.0005,1.0003,0.999,0.9925,0.9869,0.9796,0.9688,0.9631,0.9605,0.9466,0.9339,0.9189,0.9085,0.8985,0.8897,0.8863,0.8816,0.8809,0.8834,0.0,0.0,1.0856,0.0,0.0,1.2588,1.3069,0.0,0.0,0.0,1.2953,1.3309,1.2821,0.0,0.0,0.0,0.0,0.0,0.0,0.0,0.0,0.0,0.0,0.0,0.0,0.0,1.1412,1.1097,0.0,0.0,1.0421,0.9939,0.971,0.9397,0.9143,0.8898,0.9282,0.973,1.0082,1.0514,1.0801,1.0957,1.148,1.1764,1.1628,1.1728,1.1706,1.1447,1.1082,1.0863,1.0761,1.0557,1.0403,1.0403,1.019,0.9814,0.9384,0.8758,0.8178,0.7706,0.646,0.5647,0.5206,0.4233,0.3411,0.2742,0.2073,0.0839,-0.0726,-0.0559,-0.1399,-0.2865,-0.2912,-0.3519,-0.4519,-0.5058,-0.5756,-0.6509,0.0,0.0,1.0556,1.1361,1.0917,1.0742,1.16,1.0995,1.0486,0.0,1.0598,1.0596,1.0571,1.1123,1.1182,1.0406,1.0186,1.0063,0.9996,0.9991,0.9995,0.9982,0.9929,0.9875,0.9791,0.9724,0.9669,0.9595,0.9474,0.9349,0.9226,0.9164,0.9067,0.8925,0.8925,0.8897,0.8828,0.8828,0.0,0.9315,1.1264,1.1809,0.0,0.0,1.3143,1.321,1.3192,1.264,1.2009,1.2739,1.2572,0.0,0.0,0.0,0.0,0.0,1.1397,0.0,0.0,0.0,0.0,0.0,0.0,0.0,1.1476,1.1135,1.0681,0.0,1.0076,0.9842,0.9481,0.9144,0.8939,0.9067,0.916,0.9161,0.9124,0.9456,0.9833,1.0146,1.0864,1.1177,1.0929,1.1318,1.1487,1.119,1.1187,1.1217,1.1217,1.0651,1.0293,1.0293,0.9769,0.8967,0.7894,0.7841,0.7261,0.615,0.4937,0.433,0.4161,0.3016,0.2015,0.1229,0.1457,0.0168,-0.2238,-0.4957,-0.4497,-0.2237,-0.3916,-0.5022,-0.5614,-0.5814,-0.6558,-0.7469,0.0,1.0291,1.0561,1.1425,1.1444,1.1638,1.2519,1.1914,1.1602,1.23,1.2396,1.2371,1.2327,1.1835,1.1412,1.1189,1.0515,1.0063,0.9996,0.9991,0.9965,0.9923,0.99,0.9875,0.9789,0.9725,0.9665,0.9601,0.9517,0.9439,0.9366,0.9347,0.9273,0.9146,0.9143,0.9102,0.9043,0.0,0.0,1.0138,1.0306,0.0,1.3076,1.2582,1.2772,1.3261,1.3105,1.2538,1.1877,1.1784,1.2013,1.2234,0.0,0.0,0.0,1.0941,1.1334,1.186,1.1597,0.0,0.0,0.0,0.0,0.0,1.2271,1.1745,1.1322,0.0,1.0295,0.9805,1.0004,0.9786,0.935,0.8587,0.8829,0.9098,0.9115,0.9456,0.9621,0.9363,0.9769,1.0251,1.0846,1.0913,1.11,1.1567,1.0973,1.0557,1.0557,1.0035,0.9769,0.9769,0.9169,0.858,0.7894,0.7304,0.6666,0.6036,0.4824,0.4216,0.4161,0.3016,0.2015,0.1174,0.0279,-0.1397,-0.3585,-0.4754,-0.475,-0.4027,-0.4698,-0.5289,-0.5814,-0.6036,-0.7149,-0.8619,0.0,1.0271,1.0698,1.1984,1.1875,1.2031,1.3299,1.2792,1.2401,1.2846,1.3254,1.3327,1.2847,1.2411,1.197,1.1485,1.0617,1.0063,1.0006,1.0006,0.9981,0.9952,0.9918,0.9875,0.985,0.9743,0.9687,0.9641,0.9542,0.9465,0.9394,0.9394,0.933,0.9189,0.9196,0.9167,0.9088,0.0,0.9603,1.0421,1.0544,0.0,1.2927,1.264,1.272,1.2909,1.2687,1.2146,1.1484,1.1194,1.1443,0.0,0.0,1.1949,1.2002,0.0,1.2071,1.2401,1.2488,0.0,0.0,1.3837,0.0,0.0,0.0,1.2215,1.1355,1.1243,1.0499,0.9996,1.0398,1.0111,0.9644,0.8957,0.9231,0.9244,0.8368,0.8718,0.8973,0.8769,0.9058,0.9281,0.9397,0.9581,0.9752,0.9899,0.9565,0.9239,0.9026,0.8479,0.8223,0.8223,0.7723,0.7149,0.6504,0.6126,0.5651,0.5069,0.407,0.3456,0.3121,0.1845,0.0839,0.0112,-0.0894,-0.2291,-0.3971,-0.5462,-0.5941,-0.5919,-0.6352,-0.6779,-0.725,-0.7841,-0.8849,-0.9997,0.0,1.0251,1.0778,1.2306,1.2163,1.2343,1.3862,1.355,1.312,1.3138,1.3838,1.4089,1.3384,1.3147,1.2767,1.2048,1.0984,1.0328,1.0273,1.0102,1.0001,0.999,0.9941,0.9906,0.9894,0.9766,0.9688,0.9695,0.9567,0.9474,0.9421,0.9421,0.9367,0.9247,0.9293,0.0,0.0,0.0,0.0,1.0935,0.0,1.1747,1.237,1.2806,1.2818,1.2556,1.2116,1.1666,1.1239,1.095,1.1093,1.1551,1.2155,1.2471,0.0,0.0,0.0,0.0,0.0,0.0,0.0,0.0,0.0,1.3161,0.0,0.0,0.0,1.1296,1.0759,0.0,0.0,0.0,0.0,0.9477,0.0,0.0,0.0,0.7973,0.0,0.8228,0.8414,0.843,0.8108,0.8401,0.8438,0.8126,0.7967,0.7735,0.737,0.685,0.6579,0.6627,0.6201,0.5659,0.5065,0.49,0.4609,0.4113,0.3277,0.2561,0.1959,0.0616,-0.0336,-0.1006,-0.1733,-0.2903,-0.4343,-0.6228,-0.7235,-0.7653,-0.7923,-0.8351,-0.8947,-0.9688,-1.0438,-1.1116,1.0292,1.0293,1.0605,1.1561,1.2246,1.2988,1.3941,1.4022,1.3964,1.3957,1.4718,1.5202,1.5124,1.442,1.3883,1.3733,1.2215,1.125,1.1239,1.0464,1.0001,0.999,0.9941,0.9893,0.9906,0.9773,0.9702,0.9702,0.9557,0.95,0.9491,0.9491,0.9483,0.9483,0.9593,0.0,0.0,0.0,1.0763,0.0,1.1931,1.1959,0.0,1.3024,1.3018,1.2565,1.1513,1.1318,1.1495,0.0,1.1409,1.201,0.0,1.2572,1.261,1.261,0.0,0.0,0.0,0.0,0.0,0.0,1.4549,0.0,0.0,0.0,1.2342,1.1413,0.0,0.0,0.0,0.0,0.0,0.0,0.0,0.0,0.8328,0.8022,0.7791,0.7534,0.7642,0.7998,0.8623,0.8392,0.8136,0.8084,0.7011,0.6393,0.6522,0.5991,0.5714,0.5917,0.5354,0.5019,0.4915,0.4264,0.3933,0.3912,0.2837,0.2013,0.1515,0.0617,-0.0336,-0.1285,-0.1786,-0.3387,-0.5642,-0.6338,-0.7617,-0.9103,-0.8633,-0.9096,-1.0026,-0.9982,-1.0669,-1.1628,1.0293,1.0293,0.0,1.1401,1.1854,1.2558,1.39,1.4524,1.4856,1.4852,1.5171,1.5404,0.0,0.0,0.0,0.0,0.0,1.2194,0.0,0.0,1.1019,1.1494,1.0513,1.0198,1.0701,1.0093,0.975,0.975,0.9591,0.95,0.95,0.95,0.95,0.9527,1.0058,0.0,1.0822,0.0,1.12,0.0,0.0,0.0,0.0,1.2952,1.2982,1.2455,1.198,1.1655,1.1464,0.0,1.1777,0.0,0.0,0.0,0.0,0.0,0.0,0.0,0.0,0.0,0.0,0.0,0.0,0.0,1.3541,0.0,1.2559,0.0,0.0,0.0,0.0,0.0,0.0,0.0,0.9831,0.0,0.0,0.0,0.8052,0.7927,0.0,0.7201,0.7296,0.704,0.6725,0.6273,0.5477,0.4819,0.4442,0.4422,0.4327,0.4164,0.4215,0.4263,0.426,0.3664,0.3192,0.2729,0.1593,0.083,0.0423,-0.0915,-0.1629,-0.2006,-0.2872,-0.4275,-0.6027,-0.7191,-0.8416,-0.9577,-1.0305,-1.0762,-1.1023,-1.1225,-1.1651,-1.2126,0.0,0.0,0.0,1.1066,1.1402,1.2165,1.3839,1.4832,1.5398,1.5402,1.5406,0.0,1.5403,1.4838,0.0,0.0,1.3662,1.3143,0.0,0.0,1.1779,1.2586,1.0972,1.0448,1.1307,1.0333,0.9817,0.9789,0.9631,0.9534,0.95,0.95,0.95,0.9545,1.0358,1.0886,1.1196,0.0,1.1807,1.1802,1.2604,1.2629,1.2249,1.3018,1.3035,1.2646,1.261,1.2258,1.1891,1.2458,1.2613,1.264,1.3049,1.3525,1.3869,0.0,0.0,0.0,1.4869,0.0,0.0,0.0,0.0,0.0,0.0,0.0,0.0,0.0,0.0,0.0,0.0,0.0,1.1815,1.0552,0.0,0.9362,0.0,0.791,0.0,0.0,0.0,0.0,0.6542,0.595,0.5363,0.4723,0.4121,0.3563,0.3049,0.3285,0.3321,0.3167,0.3497,0.3695,0.3749,0.3263,0.2594,0.1633,0.0741,0.0,-0.0555,-0.1986,-0.2656,-0.2759,-0.4053,-0.5324,-0.6578,-0.796,-0.9013,-0.9953,-1.1301,-1.1819,-1.181,-1.2224,-1.2382,-1.2421,1.0291,1.0293,0.0,0.0,0.0,1.2165,1.3839,1.4835,1.5405,1.539,0.0,0.0,0.0,0.0,0.0,0.0,0.0,1.406,1.4062,0.0,1.1795,1.2667,1.103,1.0492,0.0,1.0413,0.9869,0.9791,0.9725,0.9625,0.95,0.95,0.95,0.9545,1.042,1.1196,1.1872,1.196,1.2807,1.4036,1.3279,1.332,1.3774,0.0,1.3295,1.3244,1.3109,1.3059,1.3109,1.3434,1.4077,1.4763,1.5096,1.5669,1.6171,0.0,0.0,0.0,1.6895,1.7164,1.7216,1.5843,1.5122,1.4383,0.0,0.0,1.3573,0.0,0.0,0.0,0.0,1.3545,1.2562,1.1028,1.0189,0.0,0.0,0.0,0.0,0.0,0.0,0.0,0.0,0.5676,0.4503,0.4139,0.3265,0.2864,0.3078,0.3005,0.313,0.3565,0.3396,0.3396,0.3592,0.3138,0.2282,0.1044,0.0712,0.0,-0.1111,-0.2089,-0.2808,-0.3445,-0.5077,-0.646,-0.767,-0.8355,-0.9302,-1.0446,-1.1006,-1.156,-1.2126,-1.2529,-1.2627,-1.248,0.0,0.0,0.0,0.0,0.0,1.1325,1.3041,1.45,1.5401,0.0,0.0,0.0,0.0,1.539,1.539,0.0,0.0,1.4959,1.4961,1.3856,0.0,0.0,0.0,1.1933,0.0,1.1258,1.0444,0.9793,0.9728,0.9657,0.957,0.9517,0.95,0.9563,0.0,1.1724,0.0,0.0,0.0,0.0,0.0,1.3451,1.4058,1.3711,1.3584,1.363,1.3626,1.3624,1.3739,1.4481,1.4556,1.4538,1.5713,1.5897,1.5774,1.6128,1.6743,1.7294,1.7185,1.7673,1.7929,1.682,1.5916,1.4981,1.3944,1.33,1.2943,0.0,0.0,0.0,0.0,1.3316,1.2585,1.1229,1.0072,0.9094,0.0,0.0,0.0,0.0,0.0,0.0,0.0,0.6115,0.5285,0.4996,0.4204,0.3713,0.3567,0.375,0.38,0.3746,0.358,0.3593,0.3806,0.286,0.2022,0.1366,0.0091,-0.1012,-0.1966,-0.2861,-0.3695,-0.4564,-0.5548,-0.6707,-0.7925,-0.8862,-0.9496,-0.9976,-1.0846,-1.1301,-1.161,-1.2421,-1.2676,-1.2676,1.201,0.0,0.0,0.0,0.0,0.0,1.3118,1.452,0.0,0.0,1.539,0.0,1.539,0.0,1.539,0.0,1.539,1.539,1.5391,1.4586,0.0,1.5299,1.3678,0.0,0.0,1.219,1.125,1.0295,1.0208,0.9979,0.9605,0.9535,0.95,0.9581,0.0,1.1939,1.2138,0.0,1.3998,0.0,0.0,1.3761,0.0,1.4001,1.3927,1.3969,1.4105,1.4126,1.4211,1.4872,1.5148,1.5423,1.6452,1.6857,1.7,1.7391,1.7781,1.8085,1.807,1.8376,1.8378,1.717,1.6308,1.5471,1.4262,1.3534,1.3124,1.3138,1.3556,0.0,0.0,1.3193,1.2412,1.1163,1.0096,0.9309,0.0,0.9292,0.0,0.0,0.0,0.0,0.0,0.0,0.5557,0.5402,0.4708,0.4311,0.4385,0.4442,0.4426,0.4354,0.3923,0.3791,0.3922,0.2665,0.1934,0.1695,-0.0179,-0.1478,-0.2248,-0.3124,-0.3945,-0.4743,-0.5627,-0.6696,-0.785,-0.8874,-0.9444,-0.9666,-1.0592,-1.0905,-1.1057,-1.2116,-1.2666,-1.2949,0.0,0.0,0.0,0.0,1.2418,0.0,0.0,0.0,1.5408,0.0,1.539,1.5408,1.5405,1.539,1.5406,1.5391,1.5409,1.5408,1.541,1.4629,0.0,0.0,1.3805,1.3295,1.4078,1.3129,1.2141,0.0,0.0,0.0,0.9605,0.9543,0.9508,0.0,1.1191,0.0,1.201,1.3624,1.4268,1.4211,1.4211,1.4282,1.4398,1.4356,1.4246,1.4197,1.4489,1.4563,1.4541,1.4757,1.5905,1.7256,1.7399,1.8448,1.9657,1.9682,1.9609,1.9512,1.9512,1.9268,1.8588,1.6928,1.6376,1.5798,1.3929,1.3803,1.4061,1.4086,1.4153,1.4175,1.3986,1.3173,1.2141,1.0926,1.0266,0.996,1.0059,0.0,0.0,0.0,0.0,0.0,0.0,0.0,0.54,0.5432,0.4767,0.0,0.0,0.5089,0.5025,0.5426,0.4482,0.3998,0.4061,0.2664,0.1967,0.1964,-0.0045,-0.1299,-0.1841,-0.2794,-0.346,-0.395,-0.5285,-0.6534,-0.7664,-0.8436,-0.9079,-0.9666,-1.0138,-1.0395,-1.0549,-1.1751,-1.2589,-1.317,1.3748,1.3613,1.3455,0.0,1.3646,1.3859,0.0,0.0,0.0,0.0,1.5409,1.5408,1.539,1.5391,1.5391,1.5406,1.5409,0.0,0.0,0.0,0.0,1.5395,1.4968,1.4509,1.4035,1.3144,1.2175,1.1131,0.0,0.0,0.9593,0.9587,0.9543,0.0,0.0,0.0,1.2014,1.363,1.4319,1.4356,1.4399,1.4469,1.4552,1.4639,1.4227,1.3687,1.4367,1.4622,1.486,1.629,1.6621,1.6761,1.8754,1.9189,1.9058,1.9609,1.975,1.972,1.9713,1.931,1.8704,1.8056,1.6904,1.5751,1.5053,1.4287,1.3696,1.3599,1.4103,1.4332,1.3474,1.3135,1.2528,1.1212,1.0468,1.0247,0.0,0.0,0.0,1.1586,0.0,0.0,0.0,0.0,0.6449,0.616,0.6175,0.6302,0.6518,0.6601,0.6446,0.6082,0.542,0.5079,0.5028,0.3593,0.2983,0.3117,0.1067,-0.0134,-0.0535,-0.1804,-0.2903,-0.3792,-0.4854,-0.6131,-0.7482,-0.8164,-0.8885,-0.9614,-0.9769,-1.0182,-1.0804,-1.1418,-1.2157,-1.2745,1.4588,0.0,0.0,1.4675,0.0,0.0,1.4679,1.5086,0.0,1.539,1.5408,0.0,1.5391,1.541,1.541,1.5391,1.539,0.0,1.539,0.0,0.0,1.5391,1.5401,1.5143,1.4582,1.4066,0.0,1.175,0.0,1.0483,0.9646,0.9619,0.0,0.0,0.0,1.1898,1.2014,1.3642,1.4375,1.4458,1.4526,1.4595,0.0,1.4718,1.4214,1.3588,1.3969,1.4367,1.4873,1.5989,1.6744,1.751,1.9001,1.9401,1.9381,1.9752,1.9821,1.9821,1.9832,1.9314,1.8631,1.8094,1.7028,1.5946,1.5295,1.4483,1.3823,1.3701,1.3818,1.382,1.3314,1.277,1.2109,1.1207,1.0811,0.0,0.0,0.0,0.0,0.0,1.1765,0.0,0.0,0.7999,0.7125,0.6571,0.6989,0.7245,0.724,0.7676,0.7617,0.7024,0.638,0.5912,0.5634,0.4485,0.3943,0.3968,0.2229,0.1194,0.08,-0.0712,-0.2029,-0.323,-0.4026,-0.5391,-0.7092,-0.7785,-0.8525,-0.9226,-0.9416,-0.9913,-1.0506,-1.0761,-1.1651,-1.2686,1.5251,0.0,0.0,0.0,0.0,0.0,0.0,1.5554,0.0,1.5566,0.0,1.5736,1.5742,1.5739,1.5696,1.558,0.0,1.5522,1.5418,1.5403,1.5401,1.5405,1.5403,1.5368,1.5303,1.5132,1.4241,0.0,1.2356,1.137,0.9705,0.9649,0.0,0.0,0.0,0.0,0.0,1.3819,1.4462,1.4545,1.4606,1.4699,1.4794,1.4578,1.4167,1.368,1.3567,1.4045,1.4753,1.5008,1.6696,1.8735,1.8868,1.9469,2.0107,2.0,1.9909,1.9871,1.9944,1.9287,1.8417,1.763,1.6898,1.6086,1.5063,1.456,1.4279,1.4126,1.3669,1.3321,1.3509,1.259,1.1659,1.1162,0.0,0.0,0.0,0.0,0.0,0.0,0.0,0.0,0.0,0.0,0.0,0.0,0.7549,0.7835,0.7858,0.848,0.854,0.7973,0.7408,0.6851,0.6301,0.5485,0.5012,0.4944,0.3563,0.259,0.1995,0.0444,-0.1067,-0.2497,-0.3236,-0.4684,-0.6669,-0.7477,-0.8245,-0.8922,-0.9351,-0.971,-0.9999,-1.0051,-1.1141,-1.2618,0.0,0.0,0.0,0.0,0.0,1.6389,1.6392,1.6444,1.6464,1.646,1.7056,1.748,1.7535,1.7535,1.7263,1.6543,1.6464,0.0,0.0,0.0,0.0,1.5409,1.5405,1.5363,1.5291,1.4581,1.3643,0.0,1.1775,1.0841,0.9775,0.9724,0.9684,0.0,0.0,0.0,1.4154,1.4444,0.0,1.4746,1.4757,1.4859,1.4879,1.4136,1.3788,1.3693,1.3664,1.4162,1.4916,1.5774,1.7269,1.8926,1.9684,2.0092,2.026,2.0246,2.0219,2.0204,2.0236,1.9168,1.7973,1.7716,1.6565,1.5418,1.5042,1.4916,1.4821,1.4691,1.4659,1.4603,1.4418,1.3881,1.3028,1.1711,1.2418,0.0,0.0,0.0,0.0,0.0,0.0,1.2764,0.0,0.0,0.0,0.0,0.0,0.8638,0.8689,0.916,0.9071,0.8261,0.8596,0.8637,0.8369,0.708,0.672,0.7282,0.5418,0.3904,0.2775,0.1416,-0.0355,-0.2404,-0.3265,-0.4736,-0.66,-0.7578,-0.8691,-0.981,-0.9963,-1.0053,-1.0051,-1.0352,-1.0753,-1.1191,0.0,0.0,0.0,0.0,0.0,0.0,0.0,1.7633,1.781,1.7385,1.7669,1.79,1.7935,1.7957,1.7613,1.6769,1.6707,1.6338,1.5466,1.5406,1.54,1.541,1.5409,1.537,1.5307,1.488,1.4192,1.3225,1.2341,1.1451,1.0521,1.0038,0.9779,0.9815,0.0,1.3086,0.0,0.0,1.4747,1.4804,1.4876,1.4673,1.4278,1.3861,1.3694,1.3705,1.3702,1.4768,1.6281,1.6799,1.8089,1.9579,2.0084,2.0294,2.0334,2.0258,2.0268,2.0315,2.0334,1.9412,1.844,1.847,1.7228,1.5954,1.5857,1.542,1.5018,1.4924,1.4848,1.4621,1.4024,1.3766,1.331,1.2324,1.2721,0.0,0.0,0.0,0.0,0.0,0.0,0.0,0.0,0.0,0.0,0.0,0.0,0.8665,0.8751,0.9375,0.973,0.9647,0.9722,0.9923,1.0233,0.9129,0.852,0.8408,0.6854,0.4994,0.2939,0.1367,-0.0663,-0.2964,-0.3894,-0.5179,-0.6787,-0.7816,-0.9063,-1.0256,-1.0009,-1.0027,-1.0092,-0.9992,-1.0253,-1.0702,0.0,1.6916,0.0,0.0,1.7019,1.7349,1.797,1.8809,1.908,1.8279,1.8337,1.843,1.8457,1.8457,1.8118,1.7304,1.7229,1.6789,1.5731,1.5674,1.5593,1.541,1.5392,1.536,1.5294,1.53,1.4842,1.3923,1.3229,1.2343,1.125,1.0711,1.0544,1.0709,0.0,1.3378,1.4794,1.4831,1.484,1.4839,1.4766,1.4418,1.3944,1.3584,1.3773,1.424,1.424,1.5765,1.7814,1.8054,1.9014,2.012,2.0269,2.034,2.0379,2.0272,2.0287,2.0341,2.0385,1.9697,1.893,1.891,1.7726,1.6527,1.6343,1.5694,1.5112,1.505,1.495,1.46,1.3685,1.3733,1.3661,1.2938,1.3013,0.0,0.0,0.0,0.0,0.0,0.0,0.0,1.3373,0.0,0.0,0.0,0.0,0.8726,0.8572,0.9565,1.0313,1.0741,1.0782,1.1186,1.1972,1.1104,1.0406,0.9889,0.8273,0.6109,0.3456,0.1271,-0.1101,-0.3571,-0.4548,-0.5808,-0.7266,-0.8144,-0.918,-1.0134,-0.9853,-0.9788,-0.9875,-0.9545,-0.9665,-1.0132,0.0,0.0,0.0,0.0,0.0,1.8896,1.896,1.9715,1.9995,1.9181,1.9718,2.0199,2.0246,2.0269,1.9915,1.9039,1.8977,1.8284,1.6685,1.6584,1.6237,1.5433,1.5394,1.5364,1.5296,1.5293,1.4873,0.0,0.0,1.3047,1.147,1.2073,1.2728,1.3429,1.3589,1.4188,1.5056,1.4989,1.4976,1.4916,1.413,1.4251,1.4715,1.3201,1.4049,1.6067,1.6067,1.7185,1.8801,1.9602,1.9973,2.0114,2.0265,2.0341,2.0402,2.0386,2.0383,2.0386,2.0399,1.9751,1.8896,1.8123,1.721,1.63,1.5513,1.5264,1.5188,1.5185,1.5501,1.5459,1.4399,1.4968,1.5067,1.3504,1.3871,1.4244,0.0,0.0,0.0,0.0,0.0,0.0,0.0,1.093,0.0,0.0,0.9911,0.9333,0.8551,1.0035,1.0692,1.0277,1.1704,1.2807,1.35,1.2625,1.2528,1.3103,0.9982,0.7317,0.5065,0.2021,-0.0877,-0.3571,-0.489,-0.6489,-0.8283,-0.8439,-0.8773,-0.9185,-0.9606,-0.9456,-0.9058,-0.9376,-0.9213,-0.8867,0.0,0.0,1.8666,1.8629,1.8891,1.9275,1.9805,2.0186,2.0282,1.9953,2.02,2.0408,2.0448,2.0448,2.0085,1.923,1.9141,1.8656,1.7499,1.6965,1.6543,1.6195,1.5673,1.5395,1.5358,1.536,1.5175,1.4775,1.4295,1.3706,1.3002,1.2801,1.3156,1.3911,1.3927,1.4356,1.5075,1.4558,1.4601,1.497,1.462,1.4684,1.4985,1.4832,1.5738,1.7062,1.7025,1.8099,1.9583,1.9964,2.0126,2.0161,2.0175,2.0241,2.0328,2.0292,2.0287,2.0283,2.0282,1.9558,1.8729,1.8458,1.7348,1.6246,1.5971,1.5528,1.5166,1.5236,1.5289,1.5164,1.4693,1.4667,1.4541,1.3929,1.409,1.4083,0.0,0.0,0.0,0.0,0.0,0.0,0.0,0.0,0.0,0.0,0.0,0.8891,0.9608,0.9123,0.9451,1.0762,1.0005,1.0643,1.2841,1.1794,1.1796,1.2852,1.0276,0.7829,0.5539,0.2058,-0.1605,-0.5229,-0.6362,-0.7266,-0.8021,-0.8349,-0.8594,-0.8731,-0.918,-0.9188,-0.8917,-0.8685,-0.8395,-0.8165,1.9707,1.9576,1.9568,1.9512,1.9491,1.9701,2.0308,2.0399,2.0405,2.0398,2.0398,2.0392,2.0399,2.0399,2.0146,1.9546,1.9503,1.9169,1.834,1.7766,1.7345,1.7098,1.6243,1.5774,1.5784,1.5533,1.5373,1.5336,1.4758,1.4325,1.4012,1.3452,1.362,1.4416,1.4399,1.48,1.547,1.4864,1.5062,1.5743,1.548,1.5537,1.5792,1.6154,1.6984,1.7946,1.7824,1.8713,1.9945,1.9936,1.996,2.0021,2.0097,2.018,2.026,2.0178,1.9978,1.9783,1.975,1.9021,1.8212,1.8073,1.7132,1.6184,1.6034,1.553,1.5166,1.5251,1.427,1.3709,1.4685,1.2877,1.1652,1.2927,1.2275,1.1574,1.149,1.2026,0.0,0.0,1.1836,1.1736,1.2622,1.0685,0.0,0.0,0.0,0.8772,1.0515,0.8808,0.8712,1.073,0.8754,0.8908,1.1536,1.1057,1.1265,1.2135,1.0344,0.8127,0.5435,0.1018,-0.2948,-0.638,-0.7021,-0.7314,-0.7433,-0.7724,-0.7833,-0.7889,-0.8265,-0.8329,-0.8113,-0.7758,-0.7493,-0.7328,2.0487,2.0488,2.0474,2.0487,2.0434,2.0383,2.0405,2.0399,2.0392,2.0408,2.0394,2.0402,2.0405,2.0399,2.0404,2.0395,2.0448,2.0114,1.9249,1.9246,1.888,1.8023,1.7145,1.6676,1.6672,1.5833,1.5405,1.5405,1.5385,1.4938,1.41,1.4097,1.4553,1.5382,1.5313,1.5728,1.6469,1.6321,1.6762,1.7485,1.6624,1.6799,1.7486,1.6611,1.7318,1.8754,1.8553,1.9054,1.9775,1.9585,1.9499,1.9593,2.005,2.0197,2.018,2.0031,1.943,1.88,1.8745,1.807,1.7217,1.6422,1.6276,1.607,1.5205,1.5108,1.5194,1.5195,1.2349,1.0904,1.4351,0.9354,0.6005,0.9998,0.7867,0.6052,0.7027,0.7526,0.0,1.0761,0.8463,0.764,1.0093,0.6855,0.0,0.0,0.0,0.9256,1.0989,0.957,0.9024,0.9783,0.8624,0.8594,0.9817,1.0937,1.1525,1.1589,1.0456,0.8205,0.4915,-0.1249,-0.4894,-0.6386,-0.6337,-0.6465,-0.6683,-0.6416,-0.6331,-0.6374,-0.6826,-0.6713,-0.6264,-0.6651,-0.6579,-0.619,2.0507,2.0505,2.0497,2.0499,2.0487,2.0476,2.0467,2.0468,2.0473,2.0464,2.0467,2.0467,2.0473,2.0464,2.0443,2.0406,2.046,2.0383,2.0107,1.9553,1.9109,1.883,1.8023,1.7593,1.7597,1.7315,1.7164,1.7165,1.7164,1.7027,1.6755,1.6754,1.6589,1.6308,1.6842,1.6852,1.6505,1.6445,1.6893,1.7581,1.7297,1.7702,1.8523,1.8781,1.9173,1.9549,1.9424,1.9512,1.965,1.9591,1.9582,1.9497,1.911,1.8963,1.8966,1.8911,1.8305,1.7654,1.7662,1.7004,1.6276,1.611,1.5668,1.5232,1.5092,1.5162,1.5223,1.5091,1.2191,0.9995,1.1103,0.7678,0.5157,0.6615,0.6307,0.5884,0.5933,0.6489,0.7029,0.741,0.6824,0.679,0.7813,0.622,0.0,0.0,0.6794,0.7341,1.0131,0.8582,0.7305,0.6611,0.4894,0.4837,0.6649,0.8242,0.9487,1.0363,0.9816,0.6666,0.1198,-0.3141,-0.5653,-0.6641,-0.7147,-0.7021,-0.6422,-0.6452,-0.6064,-0.5508,-0.5754,-0.5754,-0.5594,-0.5626,-0.5374,-0.5043,2.0526,2.0527,2.0508,2.0502,2.0488,2.0455,2.0455,2.0464,2.0474,2.0494,2.0506,2.0509,2.0494,2.05,2.0483,2.0435,2.0489,2.0497,2.0501,1.9981,1.9686,1.9695,1.889,1.8459,1.8456,1.8147,1.7999,1.8001,1.8004,1.8006,1.8005,1.796,1.7673,1.7173,1.7656,1.7694,1.744,1.7401,1.786,1.8565,1.854,1.8847,1.9411,1.9907,2.0059,1.9969,1.9843,1.9531,1.9176,1.9104,1.8832,1.8458,1.7972,1.7603,1.743,1.7783,1.731,1.6698,1.6705,1.6105,1.5482,1.5565,1.5251,1.4966,1.5129,1.521,1.5209,1.4996,1.2094,0.9993,1.1251,0.6769,0.3497,0.5291,0.3887,0.2636,0.2778,0.3508,0.4213,0.0,0.4376,0.4422,0.5387,0.4181,0.4043,0.5775,0.5159,0.5624,0.7725,0.6415,0.5349,0.4824,0.2798,0.2527,0.4251,0.6406,0.7893,0.8656,0.7672,0.4442,-0.0823,-0.3687,-0.5567,-0.6598,-0.7021,-0.6803,-0.6204,-0.6204,-0.5733,-0.5091,-0.5173,-0.5168,-0.5082,-0.5,-0.4739,-0.4439,2.0585,2.0584,2.0562,2.0507,2.0505,2.0485,2.0427,2.0407,2.0426,2.0485,2.0505,2.0505,2.0502,2.0502,2.0516,2.0509,2.0508,2.0515,2.0508,2.051,2.0501,2.05,1.9737,1.9302,1.9289,1.8559,1.8182,1.8184,1.8181,1.8164,1.8162,1.8109,1.8042,1.7979,1.797,1.8358,1.9001,1.8989,1.9462,2.0192,2.0126,2.0098,2.0088,2.0088,2.0069,1.9992,1.979,1.916,1.8359,1.8191,1.755,1.6807,1.6753,1.6228,1.5799,1.6657,1.6432,1.5884,1.5848,1.5365,1.4902,1.4905,1.5018,1.5144,1.5266,1.525,1.5148,1.4948,1.2077,1.0544,1.3673,0.6568,0.1528,0.5571,0.1318,-0.2133,-0.1162,-0.0389,0.0862,0.2934,0.1392,0.0919,0.2812,0.1089,0.0756,0.299,0.3637,0.4001,0.4121,0.3365,0.3266,0.4039,0.2103,0.1542,0.2563,0.5411,0.6925,0.7058,0.472,0.184,-0.1392,-0.3128,-0.4817,-0.6343,-0.6124,-0.5996,-0.5947,-0.5739,-0.5361,-0.4941,-0.4941,-0.4849,-0.4714,-0.4714,-0.4539,-0.4316,2.0642,2.1045,2.1272,2.0618,2.1049,2.1249,2.0579,2.0488,2.0486,2.0507,2.0506,2.0508,2.0503,2.0546,2.0565,2.0499,2.0557,2.0581,2.0573,2.058,2.0555,2.05,2.0343,2.0241,2.02,2.0053,1.9974,1.9977,1.9936,1.9913,1.9908,1.9899,1.949,1.8843,1.9444,1.9432,1.9042,1.963,2.0016,2.0199,2.0135,2.0108,2.0098,2.0098,1.9649,1.9018,1.8928,1.8272,1.7422,1.7435,1.7269,1.6923,1.6376,1.6072,1.5919,1.5993,1.541,1.4818,1.5018,1.4935,1.4865,1.5012,1.5181,1.5314,1.5292,1.5286,1.5221,1.5074,1.2109,0.9762,1.0556,0.6705,0.3636,0.4304,0.4044,0.3744,0.3703,0.2726,0.2279,0.2974,0.0601,-0.0816,-0.0121,-0.045,-0.029,0.0717,0.1117,0.1348,0.143,0.1214,0.1244,0.1534,0.0951,0.0807,0.1173,0.5328,0.8253,0.9881,0.5529,0.1573,-0.1974,-0.3433,-0.4847,-0.6124,-0.6301,-0.613,-0.5739,-0.5384,-0.4831,-0.4144,-0.4144,-0.3968,-0.3748,-0.4012,-0.4056,-0.4012,2.165,2.2018,2.2211,2.1766,2.1725,2.162,2.1152,2.0757,2.0507,2.0505,2.0503,2.0505,2.0507,2.0527,2.0544,2.0492,2.052,2.0559,2.0543,2.0549,2.054,2.0496,2.0533,2.0549,2.0495,2.0547,2.0551,2.0557,2.0527,2.0477,2.0444,2.0445,2.0167,1.9676,2.0102,2.0015,1.9577,2.0014,2.018,2.0153,2.0155,2.0126,2.0098,2.0126,1.9573,1.8793,1.8754,1.8342,1.7772,1.7455,1.7524,1.7543,1.6397,1.6022,1.5905,1.5471,1.5003,1.4671,1.4847,1.495,1.5021,1.5168,1.5293,1.5382,1.5312,1.5302,1.5263,1.5138,1.3486,1.2027,1.1978,0.9292,0.7075,0.698,0.6416,0.5926,0.5769,0.4011,0.2791,0.2905,0.039,-0.1253,-0.0936,-0.0881,-0.069,-0.0247,0.0033,0.0331,0.0578,0.0429,0.034,0.0418,0.0349,0.0459,0.0795,0.4622,0.749,0.9298,0.5082,0.1293,-0.2117,-0.3618,-0.4856,-0.5867,-0.6167,-0.6039,-0.5653,-0.5255,-0.4696,-0.41,-0.3968,-0.388,-0.3924,-0.4308,-0.4439,-0.4526,2.289,2.3106,2.3168,2.3104,2.2546,2.2085,2.201,2.1375,2.0891,2.0893,2.0894,2.0837,2.0703,2.0699,2.0633,2.0518,2.0498,2.049,2.0503,2.0503,2.0494,2.0495,2.0491,2.0511,2.0506,2.0496,2.0497,2.0497,2.048,2.046,2.0402,2.0395,2.0352,2.0308,2.0304,2.0249,2.0216,2.035,2.0363,2.0336,2.0508,2.0546,2.048,2.0412,1.9915,1.9257,1.9124,1.9012,1.882,1.8108,1.8182,1.8313,1.694,1.6299,1.5959,1.5478,1.5234,1.5122,1.5042,1.5127,1.5236,1.5306,1.5364,1.5388,1.533,1.5321,1.5277,1.5162,1.5124,1.5075,1.4976,1.2743,1.0981,1.1139,0.9091,0.7467,0.7446,0.5483,0.3879,0.3429,0.0998,-0.0662,-0.0755,-0.0793,-0.0691,-0.0438,-0.0131,0.0235,0.0672,0.0719,0.0601,0.029,0.0146,0.0714,0.1987,0.3748,0.5559,0.7341,0.383,0.0561,-0.2436,-0.3767,-0.4826,-0.5615,-0.5696,-0.5653,-0.548,-0.5082,-0.4657,-0.4232,-0.3968,-0.4056,-0.432,-0.4826,-0.4995,-0.5125,2.31,2.3586,2.3869,2.3143,2.3547,2.3742,2.3011,2.2789,2.2695,2.2708,2.2691,2.2421,2.1678,2.1593,2.131,2.0553,2.0494,2.0492,2.0506,2.0504,2.0506,2.0509,2.0503,2.049,2.0499,2.0439,2.0437,2.0497,2.0437,2.0405,2.0405,2.0404,2.0353,2.0292,2.03,2.0257,2.0241,2.0983,2.13,2.1339,2.202,2.2316,2.2221,2.1503,2.112,2.0929,2.0174,1.9907,1.9859,1.9745,1.9278,1.8697,1.845,1.7449,1.6472,1.708,1.6784,1.6086,1.5306,1.5217,1.5371,1.5377,1.5391,1.5408,1.539,1.5389,1.5366,1.528,1.5214,1.5193,1.5235,1.4711,1.4076,1.3503,1.3618,1.3544,1.2814,1.1053,0.8872,0.631,0.3603,0.1124,-0.094,-0.0966,-0.0636,-0.0033,0.02,0.0437,0.0672,0.2572,0.2871,0.1154,0.04,0.2254,0.694,0.3388,0.332,0.6679,0.1929,-0.1703,-0.4292,-0.432,-0.4626,-0.5072,-0.4801,-0.4626,-0.4578,-0.4228,-0.388,-0.3571,-0.3792,-0.3751,-0.3615,-0.4276,-0.4491,-0.4622,2.4384,2.4708,2.4849,2.4505,2.4783,2.4757,2.3924,2.3398,2.3103,2.3105,2.3104,2.2947,2.2538,2.2491,2.2346,2.194,2.1908,2.1901,2.1903,2.1011,2.0504,2.0499,2.0494,2.0723,2.1182,2.1632,2.1852,2.1858,2.1818,2.1543,2.1049,2.105,2.0778,2.0323,2.0743,2.093,2.0952,2.1789,2.2154,2.2192,2.2556,2.269,2.2602,2.224,2.1799,2.1349,2.0938,2.1081,2.1309,2.0394,2.0737,2.1318,1.9982,1.9331,1.9003,1.8539,1.7517,1.6554,1.6553,1.5951,1.5462,1.5929,1.5728,1.5401,1.5408,1.539,1.539,1.5366,1.5297,1.5274,1.5345,1.5248,1.5048,1.4714,1.4989,1.5117,1.4712,1.2603,1.0051,0.7206,0.4416,0.1703,-0.0896,-0.1009,-0.0129,0.1684,0.1989,0.2851,0.4648,0.5583,0.5867,0.5414,0.2192,0.1799,0.452,0.2127,0.1821,0.3591,0.0572,-0.1881,-0.369,-0.4721,-0.5125,-0.5029,-0.5631,-0.5323,-0.432,-0.3199,-0.2984,-0.335,-0.2765,-0.2898,-0.3483,-0.4052,-0.4487,-0.487,2.5469,2.5576,2.5579,2.5683,2.565,2.5422,2.4803,2.4135,2.3701,2.3696,2.3696,2.3623,2.3415,2.3407,2.3324,2.3119,2.3107,2.3098,2.3105,2.1852,2.1108,2.1108,2.1104,2.1413,2.209,2.2762,2.3067,2.3028,2.3015,2.2624,2.19,2.1898,2.1548,2.092,2.154,2.1803,2.1854,2.2652,2.2997,2.3025,2.3208,2.3255,2.3186,2.3055,2.27,2.2258,2.2048,2.2515,2.3031,2.1722,2.2477,2.3607,2.1665,2.1242,2.1221,2.0207,1.8774,1.7539,1.7744,1.6871,1.6025,1.6479,1.6144,1.5648,1.544,1.5408,1.539,1.5391,1.5363,1.534,1.5397,1.5368,1.538,1.5559,1.5416,1.5342,1.5554,1.3543,1.1042,0.8347,0.6127,0.3768,0.1084,0.0921,0.1936,0.4177,0.4455,0.5602,0.8049,0.8388,0.8874,0.9656,0.4478,0.2094,0.2914,0.1077,0.0522,0.1207,-0.0748,-0.2234,-0.3268,-0.4866,-0.5374,-0.5029,-0.5793,-0.5303,-0.3822,-0.222,-0.2047,-0.2768,-0.2053,-0.2186,-0.2946,-0.3653,-0.4125,-0.45,2.5598,2.5645,2.5681,2.5707,2.5701,2.5663,2.5602,2.5541,2.5517,2.5512,2.5512,2.5199,2.4397,2.4298,2.3983,2.3164,2.3103,2.3105,2.3091,2.2974,2.2916,2.2916,2.2906,2.2935,2.3004,2.3073,2.3095,2.3095,2.3026,2.2927,2.2811,2.2796,2.2732,2.2615,2.2673,2.2705,2.2757,2.3554,2.3908,2.3976,2.4713,2.502,2.4924,2.4187,2.4321,2.4804,2.4009,2.4311,2.5071,2.49,2.4493,2.4032,2.3726,2.2652,2.1641,2.2391,2.1464,1.9853,1.823,1.7757,1.7524,1.6797,1.661,1.6381,1.5581,1.5406,1.5407,1.5406,1.539,1.5381,1.5391,1.5403,1.5638,1.6378,1.5761,1.5481,1.6305,1.5534,1.3878,1.1126,1.061,0.9471,0.684,0.6656,0.6918,0.7433,0.7529,0.7732,0.8094,1.0072,1.1467,1.2035,0.6842,0.5051,0.7141,0.102,-0.0811,0.1602,-0.2212,-0.4216,-0.4482,-0.4613,-0.4797,-0.4941,-0.3453,-0.2788,-0.2568,-0.1511,-0.1113,-0.1292,-0.2368,-0.2144,-0.1381,-0.2898,-0.294,-0.2527,2.5668,2.5646,2.5646,2.5699,2.5703,2.5702,2.5702,2.57,2.5697,2.5693,2.5691,2.5572,2.5236,2.5217,2.5061,2.4749,2.4673,2.4645,2.4648,2.4648,2.4188,2.315,2.3627,2.391,2.3907,2.4432,2.4689,2.4657,2.4618,2.4294,2.3715,2.3721,2.3408,2.289,2.3375,2.3608,2.3668,2.4427,2.4732,2.4771,2.5086,2.5198,2.5168,2.4867,2.4943,2.516,2.4826,2.4933,2.5165,2.4677,2.4649,2.4764,2.4251,2.4006,2.3787,2.3153,2.2154,2.0978,1.9743,1.8271,1.7135,1.7307,1.6581,1.576,1.5407,1.5362,1.5392,1.5398,1.5407,1.539,1.5401,1.5392,1.5496,1.5751,1.5497,1.5375,1.5704,1.542,1.4168,1.1379,1.1072,1.0029,0.7273,0.7033,0.7842,0.9771,0.9887,1.0677,1.2473,1.3314,1.3759,1.3798,1.0832,0.7628,0.4212,0.4204,0.309,0.0903,0.1868,0.1831,0.0845,0.0158,-0.0406,-0.0943,-0.2791,-0.2423,-0.0438,0.0665,0.0267,-0.098,-0.0982,-0.0982,-0.1025,-0.1204,-0.1603,-0.2176,2.5702,2.5658,2.5655,2.5683,2.5703,2.5702,2.5702,2.5702,2.57,2.5697,2.5694,2.5693,2.5709,2.5707,2.5707,2.5707,2.5654,2.5623,2.5639,2.5639,2.5122,2.397,2.4488,2.4812,2.4812,2.5382,2.5675,2.5624,2.5605,2.5263,2.4633,2.4599,2.4266,2.3708,2.427,2.4494,2.4505,2.4983,2.5192,2.5192,2.519,2.5198,2.5206,2.5212,2.5241,2.5239,2.5241,2.5222,2.5156,2.462,2.486,2.5271,2.4733,2.4805,2.4788,2.339,2.2401,2.1547,2.0642,1.8915,1.7457,1.7736,1.674,1.5648,1.5368,1.5332,1.5368,1.5409,1.54,1.5409,1.5401,1.5392,1.5455,1.5659,1.5429,1.5332,1.5632,1.5389,1.4475,1.2567,1.2414,1.1682,0.9752,0.9561,1.0386,1.2377,1.2479,1.3276,1.5129,1.5351,1.5459,1.5536,1.4683,1.1515,0.5888,0.7355,0.6244,0.2627,0.5181,0.5647,0.4161,0.3455,0.267,0.1731,-0.0714,-0.0595,0.1394,0.2211,0.1647,0.0223,0.0402,0.0357,0.0178,-0.0178,-0.0623,-0.1244,2.5702,2.5703,2.5703,2.5703,2.5703,2.5703,2.5703,2.5702,2.5702,2.57,2.5697,2.5694,2.5694,2.5709,2.5707,2.5707,2.5691,2.5691,2.5707,2.5707,2.5707,2.5707,2.5703,2.5698,2.5698,2.5704,2.5691,2.5691,2.5634,2.5601,2.5595,2.5449,2.5393,2.5406,2.5407,2.5361,2.5303,2.5233,2.5192,2.5192,2.5192,2.5192,2.5222,2.5264,2.5293,2.5311,2.5311,2.5313,2.5283,2.5212,2.534,2.5485,2.5421,2.4885,2.4136,2.3251,2.2434,2.1591,2.0653,1.9769,1.8882,1.8037,1.7195,1.6378,1.5511,1.5297,1.5329,1.5383,1.5392,1.5406,1.5405,1.5401,1.5638,1.6367,1.5707,1.5427,1.6369,1.569,1.5143,1.5284,1.5365,1.5409,1.539,1.5409,1.5404,1.5391,1.5399,1.5303,1.5108,1.5744,1.6498,1.7348,1.8061,1.7001,1.4059,0.9999,0.7794,0.7421,0.6766,0.5676,0.4237,0.4237,0.3554,0.2389,0.3331,0.3321,0.2727,0.2854,0.2893,0.2789,0.1518,0.1784,0.2595,-0.0,-0.0134,0.0623,2.5702,2.5703,2.5703,2.5703,2.5703,2.5703,2.5703,2.5703,2.5702,2.5702,2.5701,2.57,2.5698,2.5698,2.5697,2.5697,2.5668,2.5637,2.5626,2.5623,2.5648,2.5707,2.5703,2.5698,2.5698,2.5704,2.5687,2.5632,2.561,2.5574,2.5531,2.5483,2.5456,2.5406,2.5407,2.5361,2.5303,2.5273,2.5282,2.5282,2.5222,2.5192,2.5212,2.5273,2.5292,2.5292,2.5312,2.5293,2.5303,2.5332,2.535,2.5382,2.5449,2.4921,2.4136,2.3303,2.2468,2.1608,2.0651,1.9793,1.91,1.8788,1.7603,1.6459,1.6208,1.5704,1.5307,1.5339,1.537,1.5398,1.541,1.5402,1.5457,1.5629,1.5376,1.5273,1.5606,1.5419,1.5255,1.5307,1.5353,1.5401,1.5407,1.5408,1.5397,1.541,1.5368,1.5283,1.5185,1.5894,1.6339,1.6428,1.7667,1.7615,1.6123,1.5081,1.2859,0.9523,1.1031,1.0702,0.8837,0.9185,0.8043,0.5794,0.5865,0.5184,0.4025,0.3114,0.2821,0.2837,0.2062,0.2239,0.2823,0.2014,0.1429,0.0623,2.5702,2.5703,2.5703,2.5703,2.5703,2.5703,2.5703,2.5703,2.5703,2.5703,2.5703,2.5702,2.5701,2.57,2.57,2.57,2.5652,2.5642,2.564,2.5648,2.5645,2.5651,2.5668,2.5671,2.5703,2.5707,2.5671,2.5593,2.5605,2.5568,2.5492,2.5476,2.5437,2.5406,2.5407,2.5361,2.5303,2.5302,2.5311,2.5311,2.5262,2.5233,2.5252,2.5312,2.5312,2.5302,2.5303,2.5293,2.5292,2.5322,2.5313,2.533,2.5499,2.4724,2.3707,2.3225,2.2231,2.1162,2.0565,2.0046,1.9653,1.9587,1.8268,1.6918,1.6584,1.6124,1.5676,1.5377,1.5326,1.5366,1.5408,1.5409,1.5377,1.5307,1.5267,1.5256,1.5291,1.5295,1.5295,1.5296,1.5353,1.5408,1.5391,1.5403,1.5409,1.5399,1.5345,1.5274,1.5231,1.6291,1.6835,1.664,1.8027,1.839,1.7608,1.6851,1.5038,1.218,1.3229,1.277,1.1012,1.1364,1.0136,0.7721,0.721,0.6271,0.4985,0.3829,0.3173,0.2876,0.2558,0.26,0.2912,0.2879,0.2152,0.0893,2.5702,2.5703,2.5703,2.5703,2.5703,2.5703,2.5703,2.5703,2.5703,2.5703,2.5703,2.5703,2.5703,2.5702,2.5701,2.5701,2.5697,2.5696,2.57,2.5691,2.5654,2.5601,2.5598,2.5613,2.5681,2.569,2.5655,2.5593,2.5604,2.5564,2.5511,2.5434,2.5393,2.5395,2.5407,2.5361,2.5313,2.5312,2.5321,2.5321,2.5303,2.5303,2.5331,2.538,2.5361,2.5313,2.5313,2.5322,2.5292,2.5233,2.5253,2.534,2.5511,2.4394,2.3003,2.3069,2.1866,2.05,2.0421,2.0402,2.0388,2.0321,1.9169,1.7773,1.6835,1.6494,1.6173,1.5442,1.5294,1.5336,1.5388,1.5391,1.5388,1.5314,1.5299,1.5304,1.5321,1.531,1.5307,1.5307,1.5368,1.5391,1.5392,1.5387,1.5397,1.539,1.5334,1.5287,1.5287,1.6752,1.7596,1.7592,1.8742,1.9059,1.8396,1.6109,1.4917,1.478,1.3629,1.2416,1.1224,1.1327,1.0256,0.8351,0.7556,0.6531,0.5313,0.4517,0.3693,0.2912,0.2957,0.2954,0.2957,0.2965,0.2333,0.1298,2.5701,2.5702,2.5702,2.5691,2.5691,2.5693,2.5693,2.5693,2.5697,2.5703,2.5703,2.5703,2.5703,2.5703,2.5703,2.5703,2.5701,2.5699,2.57,2.5657,2.5629,2.5601,2.5547,2.5526,2.5542,2.5595,2.5581,2.5531,2.5576,2.557,2.5507,2.5437,2.5401,2.5393,2.5397,2.5389,2.5389,2.538,2.538,2.538,2.5379,2.5388,2.5388,2.5397,2.5397,2.5369,2.5369,2.5388,2.5379,2.5313,2.5322,2.5385,2.5437,2.4316,2.3004,2.3013,2.1811,2.0503,2.0472,2.0484,2.0456,2.0394,2.0106,1.9442,1.7874,1.6508,1.5513,1.535,1.5335,1.5387,1.5398,1.5409,1.541,1.5388,1.534,1.5325,1.5379,1.534,1.5309,1.531,1.535,1.5397,1.5407,1.536,1.5329,1.533,1.5265,1.5217,1.5217,1.6206,1.696,1.7435,1.8025,1.8052,1.7489,1.5135,1.3945,1.394,1.214,1.0967,1.0425,1.0364,0.9535,0.8115,0.7141,0.5609,0.3778,0.3416,0.3126,0.2957,0.3303,0.3432,0.3476,0.3561,0.2846,0.1603,2.57,2.5702,2.57,2.5703,2.5703,2.5707,2.5707,2.5707,2.5694,2.5703,2.5703,2.5703,2.5703,2.5703,2.5703,2.5703,2.5703,2.5702,2.5702,2.5659,2.5629,2.5609,2.5543,2.5506,2.5506,2.5523,2.5543,2.5499,2.5576,2.5577,2.5503,2.5456,2.5441,2.5445,2.5453,2.5437,2.5404,2.5429,2.5448,2.544,2.5441,2.5437,2.5437,2.5437,2.5441,2.5429,2.5401,2.5404,2.5388,2.5361,2.5341,2.536,2.5385,2.4283,2.2954,2.2984,2.1815,2.0492,2.0457,2.0483,2.0471,2.0419,2.0117,1.9577,1.8637,1.7447,1.6529,1.6542,1.6258,1.615,1.6563,1.6635,1.6503,1.6091,1.5996,1.5838,1.5449,1.5371,1.5348,1.5303,1.5325,1.5343,1.5303,1.5261,1.5245,1.5255,1.5199,1.5182,1.5206,1.6009,1.6769,1.7477,1.7837,1.7826,1.7345,1.5255,1.4099,1.3856,1.1421,1.019,1.0056,1.0122,0.9562,0.852,0.7595,0.6025,0.4117,0.3763,0.3561,0.348,0.3565,0.3953,0.4382,0.4268,0.3429,0.214,2.5699,2.5701,2.57,2.5703,2.5703,2.5707,2.5707,2.5707,2.5694,2.5703,2.5703,2.5703,2.5703,2.5703,2.5703,2.5703,2.5703,2.5703,2.5703,2.5687,2.5655,2.5591,2.5544,2.5498,2.5495,2.5512,2.5523,2.5523,2.5574,2.5562,2.5512,2.5512,2.5525,2.5524,2.5512,2.5479,2.5437,2.5499,2.5518,2.5524,2.5517,2.5515,2.551,2.5515,2.5525,2.5517,2.5444,2.5437,2.5425,2.5397,2.5351,2.5332,2.5385,2.4234,2.2895,2.2959,2.1808,2.0486,2.0426,2.0471,2.0489,2.0426,1.9925,1.9395,1.9338,1.8581,1.7913,1.7925,1.7399,1.7148,1.7872,1.7995,1.7744,1.7038,1.6806,1.6455,1.5722,1.549,1.5364,1.5297,1.5283,1.5261,1.5217,1.5196,1.5193,1.5199,1.5127,1.5101,1.519,1.5779,1.6552,1.7524,1.7615,1.7536,1.7297,1.5535,1.4381,1.3751,1.1241,1.02,1.0476,1.0426,1.0079,0.9458,0.8343,0.7052,0.5577,0.488,0.4509,0.4387,0.4128,0.46,0.5374,0.4975,0.4148,0.2904,2.5696,2.57,2.57,2.5703,2.5703,2.5707,2.5707,2.5707,2.5694,2.5703,2.5703,2.5703,2.5703,2.5703,2.5702,2.5701,2.5703,2.5703,2.5703,2.565,2.5616,2.5591,2.5542,2.5504,2.5503,2.5565,2.5595,2.5599,2.5595,2.56,2.56,2.56,2.5595,2.5595,2.5579,2.5574,2.5568,2.559,2.5585,2.5593,2.5595,2.558,2.5586,2.5595,2.56,2.5587,2.5587,2.5538,2.549,2.541,2.5395,2.5397,2.5388,2.4218,2.282,2.2888,2.177,2.049,2.0497,2.0489,2.0492,2.0496,2.0393,2.0311,2.024,1.9058,1.7999,1.7989,1.7896,1.7863,1.7982,1.795,1.7883,1.7822,1.7191,1.6653,1.6534,1.583,1.529,1.5214,1.5217,1.5218,1.5207,1.514,1.5146,1.5197,1.5034,1.4968,1.5113,1.5041,1.5724,1.7288,1.6373,1.605,1.6471,1.4618,1.3299,1.2545,1.1554,1.1675,1.2719,1.1465,1.0987,1.1074,0.9077,0.8084,0.7743,0.6301,0.5679,0.5641,0.5674,0.5776,0.5862,0.5529,0.5014,0.4132,2.5691,2.5696,2.5694,2.5651,2.5676,2.5703,2.5703,2.5703,2.5691,2.5703,2.5703,2.5702,2.5702,2.5699,2.5697,2.57,2.5699,2.5699,2.5702,2.5661,2.5666,2.5668,2.5586,2.5565,2.5615,2.5605,2.5623,2.5668,2.5616,2.5601,2.5609,2.5601,2.5601,2.5609,2.5644,2.564,2.56,2.5629,2.5652,2.566,2.5668,2.5654,2.5668,2.5665,2.5632,2.56,2.5554,2.5525,2.5495,2.5421,2.5406,2.5388,2.5361,2.4538,2.3482,2.303,2.2129,2.1179,2.0631,2.0525,2.0551,2.0516,2.0525,2.0537,2.0466,1.992,1.9392,1.9407,1.9033,1.8854,1.9301,1.9341,1.8997,1.8094,1.7579,1.6995,1.6105,1.5552,1.5226,1.5155,1.5133,1.5107,1.5045,1.4965,1.4925,1.4917,1.4776,1.4766,1.4987,1.4803,1.531,1.664,1.5833,1.5474,1.569,1.4463,1.3622,1.3193,1.2713,1.2555,1.273,1.2095,1.1741,1.1595,1.034,0.9292,0.8383,0.7366,0.6936,0.6809,0.6467,0.6178,0.5926,0.561,0.5387,0.5067]}]]